<?xml version="1.0" encoding="UTF-8" standalone="no" ?>
<gpx xmlns="http://www.topografix.com/GPX/1/1" xmlns:xsi="http://www.w3.org/2001/XMLSchema-instance" xsi:schemaLocation="http://www.topografix.com/GPX/1/1 http://www.topografix.com/GPX/1/1/gpx.xsd" version="1.1" creator="VisuGPX - https://www.visugpx.com">
  <metadata>
    <name>pierre le bigault 2011</name>
    <desc><![CDATA[pierre le bigault 2011]]></desc>
  </metadata>
  <trk>
    <name><![CDATA[Toaster Course]]></name>
    <trkseg>
      <trkpt lat="48.40402" lon="-3.42688">
        <ele>165</ele>
        <time>2011-06-22T00:00:00Z</time>
      </trkpt>
      <trkpt lat="48.40391" lon="-3.42692">
        <ele>164</ele>
        <time>2011-06-22T00:00:01Z</time>
      </trkpt>
      <trkpt lat="48.40374" lon="-3.42597">
        <ele>164</ele>
        <time>2011-06-22T00:00:10Z</time>
      </trkpt>
      <trkpt lat="48.4036" lon="-3.42558">
        <ele>164</ele>
        <time>2011-06-22T00:00:14Z</time>
      </trkpt>
      <trkpt lat="48.40343" lon="-3.42494">
        <ele>160</ele>
        <time>2011-06-22T00:00:20Z</time>
      </trkpt>
      <trkpt lat="48.40338" lon="-3.42462">
        <ele>159</ele>
        <time>2011-06-22T00:00:23Z</time>
      </trkpt>
      <trkpt lat="48.40338" lon="-3.42451">
        <ele>158</ele>
        <time>2011-06-22T00:00:24Z</time>
      </trkpt>
      <trkpt lat="48.40349" lon="-3.42418">
        <ele>157</ele>
        <time>2011-06-22T00:00:27Z</time>
      </trkpt>
      <trkpt lat="48.40387" lon="-3.42357">
        <ele>154</ele>
        <time>2011-06-22T00:00:34Z</time>
      </trkpt>
      <trkpt lat="48.40441" lon="-3.42292">
        <ele>151</ele>
        <time>2011-06-22T00:00:44Z</time>
      </trkpt>
      <trkpt lat="48.40545" lon="-3.4219">
        <ele>148</ele>
        <time>2011-06-22T00:01:00Z</time>
      </trkpt>
      <trkpt lat="48.40581" lon="-3.42146">
        <ele>148</ele>
        <time>2011-06-22T00:01:06Z</time>
      </trkpt>
      <trkpt lat="48.40607" lon="-3.42105">
        <ele>148</ele>
        <time>2011-06-22T00:01:11Z</time>
      </trkpt>
      <trkpt lat="48.40648" lon="-3.42024">
        <ele>148</ele>
        <time>2011-06-22T00:01:20Z</time>
      </trkpt>
      <trkpt lat="48.40678" lon="-3.41933">
        <ele>148</ele>
        <time>2011-06-22T00:01:29Z</time>
      </trkpt>
      <trkpt lat="48.40695" lon="-3.41898">
        <ele>148</ele>
        <time>2011-06-22T00:01:33Z</time>
      </trkpt>
      <trkpt lat="48.40948" lon="-3.41488">
        <ele>153</ele>
        <time>2011-06-22T00:02:35Z</time>
      </trkpt>
      <trkpt lat="48.41014" lon="-3.41379">
        <ele>157</ele>
        <time>2011-06-22T00:02:58Z</time>
      </trkpt>
      <trkpt lat="48.41024" lon="-3.41356">
        <ele>157</ele>
        <time>2011-06-22T00:03:01Z</time>
      </trkpt>
      <trkpt lat="48.41026" lon="-3.41327">
        <ele>157</ele>
        <time>2011-06-22T00:03:04Z</time>
      </trkpt>
      <trkpt lat="48.41018" lon="-3.41291">
        <ele>157</ele>
        <time>2011-06-22T00:03:08Z</time>
      </trkpt>
      <trkpt lat="48.4094" lon="-3.41102">
        <ele>160</ele>
        <time>2011-06-22T00:03:33Z</time>
      </trkpt>
      <trkpt lat="48.40908" lon="-3.41045">
        <ele>160</ele>
        <time>2011-06-22T00:03:40Z</time>
      </trkpt>
      <trkpt lat="48.40892" lon="-3.41025">
        <ele>160</ele>
        <time>2011-06-22T00:03:42Z</time>
      </trkpt>
      <trkpt lat="48.40856" lon="-3.41004">
        <ele>160</ele>
        <time>2011-06-22T00:03:48Z</time>
      </trkpt>
      <trkpt lat="48.40826" lon="-3.40994">
        <ele>160</ele>
        <time>2011-06-22T00:03:52Z</time>
      </trkpt>
      <trkpt lat="48.40807" lon="-3.40978">
        <ele>160</ele>
        <time>2011-06-22T00:03:55Z</time>
      </trkpt>
      <trkpt lat="48.40789" lon="-3.40928">
        <ele>160</ele>
        <time>2011-06-22T00:04:00Z</time>
      </trkpt>
      <trkpt lat="48.40778" lon="-3.40872">
        <ele>160</ele>
        <time>2011-06-22T00:04:05Z</time>
      </trkpt>
      <trkpt lat="48.40773" lon="-3.40825">
        <ele>160</ele>
        <time>2011-06-22T00:04:10Z</time>
      </trkpt>
      <trkpt lat="48.40783" lon="-3.4075">
        <ele>160</ele>
        <time>2011-06-22T00:04:18Z</time>
      </trkpt>
      <trkpt lat="48.40817" lon="-3.40617">
        <ele>162</ele>
        <time>2011-06-22T00:04:33Z</time>
      </trkpt>
      <trkpt lat="48.40815" lon="-3.40587">
        <ele>162</ele>
        <time>2011-06-22T00:04:36Z</time>
      </trkpt>
      <trkpt lat="48.40801" lon="-3.40561">
        <ele>162</ele>
        <time>2011-06-22T00:04:40Z</time>
      </trkpt>
      <trkpt lat="48.40792" lon="-3.4057">
        <ele>162</ele>
        <time>2011-06-22T00:04:41Z</time>
      </trkpt>
      <trkpt lat="48.40782" lon="-3.40569">
        <ele>162</ele>
        <time>2011-06-22T00:04:43Z</time>
      </trkpt>
      <trkpt lat="48.40772" lon="-3.40551">
        <ele>162</ele>
        <time>2011-06-22T00:04:45Z</time>
      </trkpt>
      <trkpt lat="48.40775" lon="-3.40533">
        <ele>162</ele>
        <time>2011-06-22T00:04:47Z</time>
      </trkpt>
      <trkpt lat="48.40788" lon="-3.40523">
        <ele>162</ele>
        <time>2011-06-22T00:04:50Z</time>
      </trkpt>
      <trkpt lat="48.40851" lon="-3.40373">
        <ele>164</ele>
        <time>2011-06-22T00:05:08Z</time>
      </trkpt>
      <trkpt lat="48.40864" lon="-3.40362">
        <ele>164</ele>
        <time>2011-06-22T00:05:11Z</time>
      </trkpt>
      <trkpt lat="48.40896" lon="-3.403">
        <ele>165</ele>
        <time>2011-06-22T00:05:21Z</time>
      </trkpt>
      <trkpt lat="48.40955" lon="-3.40215">
        <ele>168</ele>
        <time>2011-06-22T00:05:37Z</time>
      </trkpt>
      <trkpt lat="48.41004" lon="-3.40149">
        <ele>171</ele>
        <time>2011-06-22T00:05:54Z</time>
      </trkpt>
      <trkpt lat="48.41101" lon="-3.40041">
        <ele>177</ele>
        <time>2011-06-22T00:06:24Z</time>
      </trkpt>
      <trkpt lat="48.41444" lon="-3.39616">
        <ele>193</ele>
        <time>2011-06-22T00:08:02Z</time>
      </trkpt>
      <trkpt lat="48.41622" lon="-3.39382">
        <ele>201</ele>
        <time>2011-06-22T00:08:52Z</time>
      </trkpt>
      <trkpt lat="48.41782" lon="-3.39152">
        <ele>202</ele>
        <time>2011-06-22T00:09:24Z</time>
      </trkpt>
      <trkpt lat="48.41862" lon="-3.39054">
        <ele>203</ele>
        <time>2011-06-22T00:09:40Z</time>
      </trkpt>
      <trkpt lat="48.41967" lon="-3.38942">
        <ele>212</ele>
        <time>2011-06-22T00:10:19Z</time>
      </trkpt>
      <trkpt lat="48.4222" lon="-3.38728">
        <ele>225</ele>
        <time>2011-06-22T00:11:29Z</time>
      </trkpt>
      <trkpt lat="48.42277" lon="-3.38688">
        <ele>225</ele>
        <time>2011-06-22T00:11:39Z</time>
      </trkpt>
      <trkpt lat="48.42728" lon="-3.38416">
        <ele>231</ele>
        <time>2011-06-22T00:12:57Z</time>
      </trkpt>
      <trkpt lat="48.42937" lon="-3.38298">
        <ele>229</ele>
        <time>2011-06-22T00:13:27Z</time>
      </trkpt>
      <trkpt lat="48.43647" lon="-3.37716">
        <ele>243</ele>
        <time>2011-06-22T00:15:48Z</time>
      </trkpt>
      <trkpt lat="48.43671" lon="-3.37702">
        <ele>243</ele>
        <time>2011-06-22T00:15:54Z</time>
      </trkpt>
      <trkpt lat="48.43707" lon="-3.3769">
        <ele>245</ele>
        <time>2011-06-22T00:16:02Z</time>
      </trkpt>
      <trkpt lat="48.43843" lon="-3.37666">
        <ele>250</ele>
        <time>2011-06-22T00:16:32Z</time>
      </trkpt>
      <trkpt lat="48.43852" lon="-3.37659">
        <ele>250</ele>
        <time>2011-06-22T00:16:33Z</time>
      </trkpt>
      <trkpt lat="48.43973" lon="-3.3764">
        <ele>251</ele>
        <time>2011-06-22T00:16:52Z</time>
      </trkpt>
      <trkpt lat="48.44035" lon="-3.37622">
        <ele>249</ele>
        <time>2011-06-22T00:17:00Z</time>
      </trkpt>
      <trkpt lat="48.44046" lon="-3.37659">
        <ele>248</ele>
        <time>2011-06-22T00:17:04Z</time>
      </trkpt>
      <trkpt lat="48.44055" lon="-3.37667">
        <ele>248</ele>
        <time>2011-06-22T00:17:05Z</time>
      </trkpt>
      <trkpt lat="48.4408" lon="-3.37672">
        <ele>248</ele>
        <time>2011-06-22T00:17:08Z</time>
      </trkpt>
      <trkpt lat="48.44134" lon="-3.37662">
        <ele>248</ele>
        <time>2011-06-22T00:17:16Z</time>
      </trkpt>
      <trkpt lat="48.44181" lon="-3.37631">
        <ele>248</ele>
        <time>2011-06-22T00:17:23Z</time>
      </trkpt>
      <trkpt lat="48.44225" lon="-3.37613">
        <ele>247</ele>
        <time>2011-06-22T00:17:29Z</time>
      </trkpt>
      <trkpt lat="48.443" lon="-3.37609">
        <ele>247</ele>
        <time>2011-06-22T00:17:39Z</time>
      </trkpt>
      <trkpt lat="48.44418" lon="-3.3763">
        <ele>256</ele>
        <time>2011-06-22T00:18:16Z</time>
      </trkpt>
      <trkpt lat="48.44542" lon="-3.37635">
        <ele>263</ele>
        <time>2011-06-22T00:18:50Z</time>
      </trkpt>
      <trkpt lat="48.44605" lon="-3.3765">
        <ele>264</ele>
        <time>2011-06-22T00:19:01Z</time>
      </trkpt>
      <trkpt lat="48.44684" lon="-3.37681">
        <ele>266</ele>
        <time>2011-06-22T00:19:16Z</time>
      </trkpt>
      <trkpt lat="48.44729" lon="-3.37687">
        <ele>267</ele>
        <time>2011-06-22T00:19:25Z</time>
      </trkpt>
      <trkpt lat="48.44869" lon="-3.37682">
        <ele>271</ele>
        <time>2011-06-22T00:19:53Z</time>
      </trkpt>
      <trkpt lat="48.44921" lon="-3.37669">
        <ele>270</ele>
        <time>2011-06-22T00:20:00Z</time>
      </trkpt>
      <trkpt lat="48.45149" lon="-3.37591">
        <ele>270</ele>
        <time>2011-06-22T00:20:31Z</time>
      </trkpt>
      <trkpt lat="48.45598" lon="-3.37483">
        <ele>264</ele>
        <time>2011-06-22T00:21:32Z</time>
      </trkpt>
      <trkpt lat="48.45702" lon="-3.37473">
        <ele>263</ele>
        <time>2011-06-22T00:21:46Z</time>
      </trkpt>
      <trkpt lat="48.45826" lon="-3.37504">
        <ele>264</ele>
        <time>2011-06-22T00:22:05Z</time>
      </trkpt>
      <trkpt lat="48.45826" lon="-3.37504">
        <ele>264</ele>
        <time>2011-06-22T00:22:06Z</time>
      </trkpt>
      <trkpt lat="48.46093" lon="-3.37578">
        <ele>270</ele>
        <time>2011-06-22T00:22:57Z</time>
      </trkpt>
      <trkpt lat="48.4632" lon="-3.37606">
        <ele>264</ele>
        <time>2011-06-22T00:23:27Z</time>
      </trkpt>
      <trkpt lat="48.46394" lon="-3.37593">
        <ele>259</ele>
        <time>2011-06-22T00:23:37Z</time>
      </trkpt>
      <trkpt lat="48.46477" lon="-3.37563">
        <ele>255</ele>
        <time>2011-06-22T00:23:48Z</time>
      </trkpt>
      <trkpt lat="48.46493" lon="-3.37546">
        <ele>253</ele>
        <time>2011-06-22T00:23:51Z</time>
      </trkpt>
      <trkpt lat="48.46521" lon="-3.37488">
        <ele>250</ele>
        <time>2011-06-22T00:23:57Z</time>
      </trkpt>
      <trkpt lat="48.46532" lon="-3.37473">
        <ele>249</ele>
        <time>2011-06-22T00:23:59Z</time>
      </trkpt>
      <trkpt lat="48.46548" lon="-3.37461">
        <ele>248</ele>
        <time>2011-06-22T00:24:02Z</time>
      </trkpt>
      <trkpt lat="48.46601" lon="-3.37442">
        <ele>244</ele>
        <time>2011-06-22T00:24:09Z</time>
      </trkpt>
      <trkpt lat="48.46685" lon="-3.37441">
        <ele>238</ele>
        <time>2011-06-22T00:24:20Z</time>
      </trkpt>
      <trkpt lat="48.46815" lon="-3.37456">
        <ele>227</ele>
        <time>2011-06-22T00:24:38Z</time>
      </trkpt>
      <trkpt lat="48.46892" lon="-3.37453">
        <ele>224</ele>
        <time>2011-06-22T00:24:48Z</time>
      </trkpt>
      <trkpt lat="48.46996" lon="-3.37458">
        <ele>221</ele>
        <time>2011-06-22T00:25:02Z</time>
      </trkpt>
      <trkpt lat="48.47075" lon="-3.37452">
        <ele>221</ele>
        <time>2011-06-22T00:25:12Z</time>
      </trkpt>
      <trkpt lat="48.47256" lon="-3.37413">
        <ele>221</ele>
        <time>2011-06-22T00:25:37Z</time>
      </trkpt>
      <trkpt lat="48.47304" lon="-3.37418">
        <ele>219</ele>
        <time>2011-06-22T00:25:43Z</time>
      </trkpt>
      <trkpt lat="48.47478" lon="-3.37474">
        <ele>215</ele>
        <time>2011-06-22T00:26:07Z</time>
      </trkpt>
      <trkpt lat="48.47521" lon="-3.3748">
        <ele>213</ele>
        <time>2011-06-22T00:26:13Z</time>
      </trkpt>
      <trkpt lat="48.47607" lon="-3.37469">
        <ele>212</ele>
        <time>2011-06-22T00:26:24Z</time>
      </trkpt>
      <trkpt lat="48.47631" lon="-3.37475">
        <ele>211</ele>
        <time>2011-06-22T00:26:28Z</time>
      </trkpt>
      <trkpt lat="48.47722" lon="-3.37528">
        <ele>210</ele>
        <time>2011-06-22T00:26:41Z</time>
      </trkpt>
      <trkpt lat="48.47797" lon="-3.37556">
        <ele>210</ele>
        <time>2011-06-22T00:26:51Z</time>
      </trkpt>
      <trkpt lat="48.47865" lon="-3.37594">
        <ele>210</ele>
        <time>2011-06-22T00:27:01Z</time>
      </trkpt>
      <trkpt lat="48.47892" lon="-3.37614">
        <ele>210</ele>
        <time>2011-06-22T00:27:05Z</time>
      </trkpt>
      <trkpt lat="48.47914" lon="-3.37644">
        <ele>210</ele>
        <time>2011-06-22T00:27:09Z</time>
      </trkpt>
      <trkpt lat="48.47938" lon="-3.37666">
        <ele>210</ele>
        <time>2011-06-22T00:27:12Z</time>
      </trkpt>
      <trkpt lat="48.48018" lon="-3.3773">
        <ele>210</ele>
        <time>2011-06-22T00:27:24Z</time>
      </trkpt>
      <trkpt lat="48.4817" lon="-3.37807">
        <ele>217</ele>
        <time>2011-06-22T00:28:03Z</time>
      </trkpt>
      <trkpt lat="48.48212" lon="-3.37847">
        <ele>219</ele>
        <time>2011-06-22T00:28:16Z</time>
      </trkpt>
      <trkpt lat="48.48269" lon="-3.37887">
        <ele>223</ele>
        <time>2011-06-22T00:28:32Z</time>
      </trkpt>
      <trkpt lat="48.48356" lon="-3.37891">
        <ele>225</ele>
        <time>2011-06-22T00:28:50Z</time>
      </trkpt>
      <trkpt lat="48.48366" lon="-3.3788">
        <ele>226</ele>
        <time>2011-06-22T00:28:53Z</time>
      </trkpt>
      <trkpt lat="48.48375" lon="-3.37837">
        <ele>226</ele>
        <time>2011-06-22T00:28:59Z</time>
      </trkpt>
      <trkpt lat="48.48408" lon="-3.37831">
        <ele>228</ele>
        <time>2011-06-22T00:29:06Z</time>
      </trkpt>
      <trkpt lat="48.48408" lon="-3.37831">
        <ele>228</ele>
        <time>2011-06-22T00:29:07Z</time>
      </trkpt>
      <trkpt lat="48.48375" lon="-3.37837">
        <ele>228</ele>
        <time>2011-06-22T00:29:13Z</time>
      </trkpt>
      <trkpt lat="48.48383" lon="-3.378">
        <ele>229</ele>
        <time>2011-06-22T00:29:18Z</time>
      </trkpt>
      <trkpt lat="48.48392" lon="-3.3771">
        <ele>230</ele>
        <time>2011-06-22T00:29:29Z</time>
      </trkpt>
      <trkpt lat="48.48413" lon="-3.37678">
        <ele>231</ele>
        <time>2011-06-22T00:29:34Z</time>
      </trkpt>
      <trkpt lat="48.48447" lon="-3.3764">
        <ele>234</ele>
        <time>2011-06-22T00:29:48Z</time>
      </trkpt>
      <trkpt lat="48.48469" lon="-3.37569">
        <ele>239</ele>
        <time>2011-06-22T00:30:06Z</time>
      </trkpt>
      <trkpt lat="48.48483" lon="-3.37489">
        <ele>241</ele>
        <time>2011-06-22T00:30:19Z</time>
      </trkpt>
      <trkpt lat="48.48486" lon="-3.37453">
        <ele>242</ele>
        <time>2011-06-22T00:30:25Z</time>
      </trkpt>
      <trkpt lat="48.48487" lon="-3.37339">
        <ele>246</ele>
        <time>2011-06-22T00:30:43Z</time>
      </trkpt>
      <trkpt lat="48.48479" lon="-3.37195">
        <ele>248</ele>
        <time>2011-06-22T00:31:01Z</time>
      </trkpt>
      <trkpt lat="48.48483" lon="-3.37061">
        <ele>249</ele>
        <time>2011-06-22T00:31:16Z</time>
      </trkpt>
      <trkpt lat="48.48516" lon="-3.36916">
        <ele>251</ele>
        <time>2011-06-22T00:31:33Z</time>
      </trkpt>
      <trkpt lat="48.48547" lon="-3.36811">
        <ele>252</ele>
        <time>2011-06-22T00:31:47Z</time>
      </trkpt>
      <trkpt lat="48.48609" lon="-3.3663">
        <ele>255</ele>
        <time>2011-06-22T00:32:11Z</time>
      </trkpt>
      <trkpt lat="48.48642" lon="-3.36449">
        <ele>254</ele>
        <time>2011-06-22T00:32:28Z</time>
      </trkpt>
      <trkpt lat="48.48669" lon="-3.36183">
        <ele>256</ele>
        <time>2011-06-22T00:32:57Z</time>
      </trkpt>
      <trkpt lat="48.48674" lon="-3.36095">
        <ele>256</ele>
        <time>2011-06-22T00:33:07Z</time>
      </trkpt>
      <trkpt lat="48.48695" lon="-3.35904">
        <ele>259</ele>
        <time>2011-06-22T00:33:29Z</time>
      </trkpt>
      <trkpt lat="48.48696" lon="-3.35799">
        <ele>260</ele>
        <time>2011-06-22T00:33:41Z</time>
      </trkpt>
      <trkpt lat="48.48686" lon="-3.3557">
        <ele>263</ele>
        <time>2011-06-22T00:34:08Z</time>
      </trkpt>
      <trkpt lat="48.48702" lon="-3.35189">
        <ele>267</ele>
        <time>2011-06-22T00:34:51Z</time>
      </trkpt>
      <trkpt lat="48.48722" lon="-3.35028">
        <ele>270</ele>
        <time>2011-06-22T00:35:13Z</time>
      </trkpt>
      <trkpt lat="48.48758" lon="-3.34851">
        <ele>269</ele>
        <time>2011-06-22T00:35:29Z</time>
      </trkpt>
      <trkpt lat="48.48907" lon="-3.3468">
        <ele>256</ele>
        <time>2011-06-22T00:35:54Z</time>
      </trkpt>
      <trkpt lat="48.48946" lon="-3.34641">
        <ele>253</ele>
        <time>2011-06-22T00:36:01Z</time>
      </trkpt>
      <trkpt lat="48.49072" lon="-3.34543">
        <ele>247</ele>
        <time>2011-06-22T00:36:20Z</time>
      </trkpt>
      <trkpt lat="48.49112" lon="-3.34522">
        <ele>245</ele>
        <time>2011-06-22T00:36:25Z</time>
      </trkpt>
      <trkpt lat="48.49237" lon="-3.34482">
        <ele>241</ele>
        <time>2011-06-22T00:36:42Z</time>
      </trkpt>
      <trkpt lat="48.49458" lon="-3.344">
        <ele>235</ele>
        <time>2011-06-22T00:37:13Z</time>
      </trkpt>
      <trkpt lat="48.49564" lon="-3.34319">
        <ele>237</ele>
        <time>2011-06-22T00:37:33Z</time>
      </trkpt>
      <trkpt lat="48.49587" lon="-3.34295">
        <ele>236</ele>
        <time>2011-06-22T00:37:37Z</time>
      </trkpt>
      <trkpt lat="48.49628" lon="-3.34235">
        <ele>236</ele>
        <time>2011-06-22T00:37:45Z</time>
      </trkpt>
      <trkpt lat="48.49816" lon="-3.33872">
        <ele>235</ele>
        <time>2011-06-22T00:38:26Z</time>
      </trkpt>
      <trkpt lat="48.49849" lon="-3.33812">
        <ele>232</ele>
        <time>2011-06-22T00:38:32Z</time>
      </trkpt>
      <trkpt lat="48.49865" lon="-3.33791">
        <ele>231</ele>
        <time>2011-06-22T00:38:35Z</time>
      </trkpt>
      <trkpt lat="48.49923" lon="-3.33757">
        <ele>228</ele>
        <time>2011-06-22T00:38:44Z</time>
      </trkpt>
      <trkpt lat="48.49968" lon="-3.33749">
        <ele>225</ele>
        <time>2011-06-22T00:38:50Z</time>
      </trkpt>
      <trkpt lat="48.50043" lon="-3.33737">
        <ele>221</ele>
        <time>2011-06-22T00:39:00Z</time>
      </trkpt>
      <trkpt lat="48.50202" lon="-3.33734">
        <ele>214</ele>
        <time>2011-06-22T00:39:21Z</time>
      </trkpt>
      <trkpt lat="48.50263" lon="-3.33696">
        <ele>211</ele>
        <time>2011-06-22T00:39:30Z</time>
      </trkpt>
      <trkpt lat="48.50299" lon="-3.33659">
        <ele>210</ele>
        <time>2011-06-22T00:39:36Z</time>
      </trkpt>
      <trkpt lat="48.50385" lon="-3.33588">
        <ele>202</ele>
        <time>2011-06-22T00:39:49Z</time>
      </trkpt>
      <trkpt lat="48.50494" lon="-3.33565">
        <ele>198</ele>
        <time>2011-06-22T00:40:03Z</time>
      </trkpt>
      <trkpt lat="48.50571" lon="-3.33506">
        <ele>192</ele>
        <time>2011-06-22T00:40:15Z</time>
      </trkpt>
      <trkpt lat="48.50665" lon="-3.33446">
        <ele>185</ele>
        <time>2011-06-22T00:40:29Z</time>
      </trkpt>
      <trkpt lat="48.50703" lon="-3.33416">
        <ele>182</ele>
        <time>2011-06-22T00:40:34Z</time>
      </trkpt>
      <trkpt lat="48.50728" lon="-3.33385">
        <ele>181</ele>
        <time>2011-06-22T00:40:39Z</time>
      </trkpt>
      <trkpt lat="48.50739" lon="-3.33346">
        <ele>180</ele>
        <time>2011-06-22T00:40:42Z</time>
      </trkpt>
      <trkpt lat="48.50739" lon="-3.33297">
        <ele>177</ele>
        <time>2011-06-22T00:40:47Z</time>
      </trkpt>
      <trkpt lat="48.50735" lon="-3.33259">
        <ele>176</ele>
        <time>2011-06-22T00:40:50Z</time>
      </trkpt>
      <trkpt lat="48.50708" lon="-3.33072">
        <ele>168</ele>
        <time>2011-06-22T00:41:07Z</time>
      </trkpt>
      <trkpt lat="48.50716" lon="-3.33021">
        <ele>166</ele>
        <time>2011-06-22T00:41:12Z</time>
      </trkpt>
      <trkpt lat="48.50763" lon="-3.32891">
        <ele>164</ele>
        <time>2011-06-22T00:41:25Z</time>
      </trkpt>
      <trkpt lat="48.50834" lon="-3.32721">
        <ele>168</ele>
        <time>2011-06-22T00:41:52Z</time>
      </trkpt>
      <trkpt lat="48.50894" lon="-3.32614">
        <ele>174</ele>
        <time>2011-06-22T00:42:19Z</time>
      </trkpt>
      <trkpt lat="48.50894" lon="-3.32614">
        <ele>174</ele>
        <time>2011-06-22T00:42:20Z</time>
      </trkpt>
      <trkpt lat="48.50981" lon="-3.325">
        <ele>181</ele>
        <time>2011-06-22T00:42:52Z</time>
      </trkpt>
      <trkpt lat="48.51074" lon="-3.32357">
        <ele>190</ele>
        <time>2011-06-22T00:43:32Z</time>
      </trkpt>
      <trkpt lat="48.512" lon="-3.32049">
        <ele>210</ele>
        <time>2011-06-22T00:44:52Z</time>
      </trkpt>
      <trkpt lat="48.51251" lon="-3.31975">
        <ele>214</ele>
        <time>2011-06-22T00:45:12Z</time>
      </trkpt>
      <trkpt lat="48.51373" lon="-3.31818">
        <ele>225</ele>
        <time>2011-06-22T00:45:58Z</time>
      </trkpt>
      <trkpt lat="48.51407" lon="-3.31761">
        <ele>227</ele>
        <time>2011-06-22T00:46:12Z</time>
      </trkpt>
      <trkpt lat="48.51449" lon="-3.31674">
        <ele>232</ele>
        <time>2011-06-22T00:46:32Z</time>
      </trkpt>
      <trkpt lat="48.51466" lon="-3.3163">
        <ele>233</ele>
        <time>2011-06-22T00:46:40Z</time>
      </trkpt>
      <trkpt lat="48.51482" lon="-3.31573">
        <ele>235</ele>
        <time>2011-06-22T00:46:50Z</time>
      </trkpt>
      <trkpt lat="48.51566" lon="-3.31243">
        <ele>246</ele>
        <time>2011-06-22T00:47:46Z</time>
      </trkpt>
      <trkpt lat="48.5165" lon="-3.31022">
        <ele>253</ele>
        <time>2011-06-22T00:48:26Z</time>
      </trkpt>
      <trkpt lat="48.51674" lon="-3.30944">
        <ele>257</ele>
        <time>2011-06-22T00:48:44Z</time>
      </trkpt>
      <trkpt lat="48.51688" lon="-3.30885">
        <ele>261</ele>
        <time>2011-06-22T00:48:58Z</time>
      </trkpt>
      <trkpt lat="48.51693" lon="-3.30823">
        <ele>263</ele>
        <time>2011-06-22T00:49:09Z</time>
      </trkpt>
      <trkpt lat="48.51692" lon="-3.30616">
        <ele>270</ele>
        <time>2011-06-22T00:49:44Z</time>
      </trkpt>
      <trkpt lat="48.51688" lon="-3.30555">
        <ele>272</ele>
        <time>2011-06-22T00:49:55Z</time>
      </trkpt>
      <trkpt lat="48.51678" lon="-3.30485">
        <ele>275</ele>
        <time>2011-06-22T00:50:08Z</time>
      </trkpt>
      <trkpt lat="48.51656" lon="-3.30398">
        <ele>279</ele>
        <time>2011-06-22T00:50:25Z</time>
      </trkpt>
      <trkpt lat="48.51623" lon="-3.30304">
        <ele>282</ele>
        <time>2011-06-22T00:50:44Z</time>
      </trkpt>
      <trkpt lat="48.51586" lon="-3.30244">
        <ele>286</ele>
        <time>2011-06-22T00:50:59Z</time>
      </trkpt>
      <trkpt lat="48.51581" lon="-3.30223">
        <ele>286</ele>
        <time>2011-06-22T00:51:01Z</time>
      </trkpt>
      <trkpt lat="48.51587" lon="-3.30143">
        <ele>286</ele>
        <time>2011-06-22T00:51:08Z</time>
      </trkpt>
      <trkpt lat="48.5159" lon="-3.2999">
        <ele>286</ele>
        <time>2011-06-22T00:51:21Z</time>
      </trkpt>
      <trkpt lat="48.51589" lon="-3.29954">
        <ele>285</ele>
        <time>2011-06-22T00:51:24Z</time>
      </trkpt>
      <trkpt lat="48.51604" lon="-3.29945">
        <ele>285</ele>
        <time>2011-06-22T00:51:27Z</time>
      </trkpt>
      <trkpt lat="48.51671" lon="-3.29808">
        <ele>285</ele>
        <time>2011-06-22T00:51:42Z</time>
      </trkpt>
      <trkpt lat="48.51701" lon="-3.29764">
        <ele>283</ele>
        <time>2011-06-22T00:51:47Z</time>
      </trkpt>
      <trkpt lat="48.5175" lon="-3.29677">
        <ele>281</ele>
        <time>2011-06-22T00:51:57Z</time>
      </trkpt>
      <trkpt lat="48.51816" lon="-3.29526">
        <ele>278</ele>
        <time>2011-06-22T00:52:13Z</time>
      </trkpt>
      <trkpt lat="48.51841" lon="-3.2949">
        <ele>278</ele>
        <time>2011-06-22T00:52:20Z</time>
      </trkpt>
      <trkpt lat="48.51884" lon="-3.29458">
        <ele>279</ele>
        <time>2011-06-22T00:52:28Z</time>
      </trkpt>
      <trkpt lat="48.51954" lon="-3.29427">
        <ele>281</ele>
        <time>2011-06-22T00:52:41Z</time>
      </trkpt>
      <trkpt lat="48.51964" lon="-3.29419">
        <ele>280</ele>
        <time>2011-06-22T00:52:43Z</time>
      </trkpt>
      <trkpt lat="48.51975" lon="-3.29401">
        <ele>280</ele>
        <time>2011-06-22T00:52:45Z</time>
      </trkpt>
      <trkpt lat="48.51998" lon="-3.29325">
        <ele>278</ele>
        <time>2011-06-22T00:52:52Z</time>
      </trkpt>
      <trkpt lat="48.52044" lon="-3.29123">
        <ele>274</ele>
        <time>2011-06-22T00:53:11Z</time>
      </trkpt>
      <trkpt lat="48.5207" lon="-3.28932">
        <ele>271</ele>
        <time>2011-06-22T00:53:29Z</time>
      </trkpt>
      <trkpt lat="48.52082" lon="-3.28867">
        <ele>270</ele>
        <time>2011-06-22T00:53:35Z</time>
      </trkpt>
      <trkpt lat="48.52103" lon="-3.28787">
        <ele>270</ele>
        <time>2011-06-22T00:53:42Z</time>
      </trkpt>
      <trkpt lat="48.52122" lon="-3.28722">
        <ele>270</ele>
        <time>2011-06-22T00:53:49Z</time>
      </trkpt>
      <trkpt lat="48.52207" lon="-3.28529">
        <ele>271</ele>
        <time>2011-06-22T00:54:11Z</time>
      </trkpt>
      <trkpt lat="48.52263" lon="-3.28459">
        <ele>271</ele>
        <time>2011-06-22T00:54:22Z</time>
      </trkpt>
      <trkpt lat="48.52381" lon="-3.28399">
        <ele>272</ele>
        <time>2011-06-22T00:54:40Z</time>
      </trkpt>
      <trkpt lat="48.52402" lon="-3.28383">
        <ele>272</ele>
        <time>2011-06-22T00:54:43Z</time>
      </trkpt>
      <trkpt lat="48.52444" lon="-3.28334">
        <ele>272</ele>
        <time>2011-06-22T00:54:50Z</time>
      </trkpt>
      <trkpt lat="48.52486" lon="-3.28269">
        <ele>272</ele>
        <time>2011-06-22T00:54:58Z</time>
      </trkpt>
      <trkpt lat="48.52517" lon="-3.28219">
        <ele>272</ele>
        <time>2011-06-22T00:55:05Z</time>
      </trkpt>
      <trkpt lat="48.52562" lon="-3.28121">
        <ele>273</ele>
        <time>2011-06-22T00:55:17Z</time>
      </trkpt>
      <trkpt lat="48.52638" lon="-3.27926">
        <ele>271</ele>
        <time>2011-06-22T00:55:37Z</time>
      </trkpt>
      <trkpt lat="48.5278" lon="-3.27628">
        <ele>280</ele>
        <time>2011-06-22T00:56:31Z</time>
      </trkpt>
      <trkpt lat="48.52808" lon="-3.27542">
        <ele>280</ele>
        <time>2011-06-22T00:56:42Z</time>
      </trkpt>
      <trkpt lat="48.52853" lon="-3.27423">
        <ele>282</ele>
        <time>2011-06-22T00:56:57Z</time>
      </trkpt>
      <trkpt lat="48.5287" lon="-3.27341">
        <ele>282</ele>
        <time>2011-06-22T00:57:04Z</time>
      </trkpt>
      <trkpt lat="48.52877" lon="-3.27243">
        <ele>282</ele>
        <time>2011-06-22T00:57:13Z</time>
      </trkpt>
      <trkpt lat="48.52878" lon="-3.26947">
        <ele>285</ele>
        <time>2011-06-22T00:57:47Z</time>
      </trkpt>
      <trkpt lat="48.52879" lon="-3.26919">
        <ele>285</ele>
        <time>2011-06-22T00:57:50Z</time>
      </trkpt>
      <trkpt lat="48.52886" lon="-3.26877">
        <ele>286</ele>
        <time>2011-06-22T00:57:56Z</time>
      </trkpt>
      <trkpt lat="48.52898" lon="-3.26833">
        <ele>287</ele>
        <time>2011-06-22T00:58:02Z</time>
      </trkpt>
      <trkpt lat="48.52931" lon="-3.26743">
        <ele>289</ele>
        <time>2011-06-22T00:58:16Z</time>
      </trkpt>
      <trkpt lat="48.52963" lon="-3.26683">
        <ele>290</ele>
        <time>2011-06-22T00:58:25Z</time>
      </trkpt>
      <trkpt lat="48.52963" lon="-3.26683">
        <ele>290</ele>
        <time>2011-06-22T00:58:26Z</time>
      </trkpt>
      <trkpt lat="48.52971" lon="-3.26674">
        <ele>289</ele>
        <time>2011-06-22T00:58:27Z</time>
      </trkpt>
      <trkpt lat="48.52999" lon="-3.26659">
        <ele>288</ele>
        <time>2011-06-22T00:58:31Z</time>
      </trkpt>
      <trkpt lat="48.53047" lon="-3.2664">
        <ele>287</ele>
        <time>2011-06-22T00:58:38Z</time>
      </trkpt>
      <trkpt lat="48.53298" lon="-3.26561">
        <ele>279</ele>
        <time>2011-06-22T00:59:12Z</time>
      </trkpt>
      <trkpt lat="48.53333" lon="-3.26543">
        <ele>276</ele>
        <time>2011-06-22T00:59:17Z</time>
      </trkpt>
      <trkpt lat="48.53406" lon="-3.26594">
        <ele>272</ele>
        <time>2011-06-22T00:59:28Z</time>
      </trkpt>
      <trkpt lat="48.53442" lon="-3.26611">
        <ele>270</ele>
        <time>2011-06-22T00:59:33Z</time>
      </trkpt>
      <trkpt lat="48.53489" lon="-3.26617">
        <ele>267</ele>
        <time>2011-06-22T00:59:39Z</time>
      </trkpt>
      <trkpt lat="48.5353" lon="-3.26606">
        <ele>266</ele>
        <time>2011-06-22T00:59:45Z</time>
      </trkpt>
      <trkpt lat="48.53572" lon="-3.26584">
        <ele>264</ele>
        <time>2011-06-22T00:59:51Z</time>
      </trkpt>
      <trkpt lat="48.53646" lon="-3.26543">
        <ele>263</ele>
        <time>2011-06-22T01:00:01Z</time>
      </trkpt>
      <trkpt lat="48.53692" lon="-3.26507">
        <ele>261</ele>
        <time>2011-06-22T01:00:08Z</time>
      </trkpt>
      <trkpt lat="48.53742" lon="-3.26505">
        <ele>260</ele>
        <time>2011-06-22T01:00:15Z</time>
      </trkpt>
      <trkpt lat="48.53798" lon="-3.26534">
        <ele>261</ele>
        <time>2011-06-22T01:00:26Z</time>
      </trkpt>
      <trkpt lat="48.5393" lon="-3.26646">
        <ele>265</ele>
        <time>2011-06-22T01:00:55Z</time>
      </trkpt>
      <trkpt lat="48.53948" lon="-3.26656">
        <ele>265</ele>
        <time>2011-06-22T01:00:57Z</time>
      </trkpt>
      <trkpt lat="48.53972" lon="-3.26664">
        <ele>265</ele>
        <time>2011-06-22T01:01:01Z</time>
      </trkpt>
      <trkpt lat="48.54135" lon="-3.26654">
        <ele>265</ele>
        <time>2011-06-22T01:01:23Z</time>
      </trkpt>
      <trkpt lat="48.54182" lon="-3.26645">
        <ele>263</ele>
        <time>2011-06-22T01:01:29Z</time>
      </trkpt>
      <trkpt lat="48.54275" lon="-3.26637">
        <ele>262</ele>
        <time>2011-06-22T01:01:41Z</time>
      </trkpt>
      <trkpt lat="48.54339" lon="-3.26619">
        <ele>259</ele>
        <time>2011-06-22T01:01:50Z</time>
      </trkpt>
      <trkpt lat="48.54465" lon="-3.2657">
        <ele>256</ele>
        <time>2011-06-22T01:02:07Z</time>
      </trkpt>
      <trkpt lat="48.54566" lon="-3.26503">
        <ele>252</ele>
        <time>2011-06-22T01:02:22Z</time>
      </trkpt>
      <trkpt lat="48.5459" lon="-3.26496">
        <ele>250</ele>
        <time>2011-06-22T01:02:25Z</time>
      </trkpt>
      <trkpt lat="48.5479" lon="-3.26469">
        <ele>242</ele>
        <time>2011-06-22T01:02:52Z</time>
      </trkpt>
      <trkpt lat="48.5485" lon="-3.26457">
        <ele>241</ele>
        <time>2011-06-22T01:03:00Z</time>
      </trkpt>
      <trkpt lat="48.54925" lon="-3.26433">
        <ele>241</ele>
        <time>2011-06-22T01:03:11Z</time>
      </trkpt>
      <trkpt lat="48.54961" lon="-3.26428">
        <ele>241</ele>
        <time>2011-06-22T01:03:16Z</time>
      </trkpt>
      <trkpt lat="48.55033" lon="-3.2643">
        <ele>242</ele>
        <time>2011-06-22T01:03:27Z</time>
      </trkpt>
      <trkpt lat="48.55105" lon="-3.26418">
        <ele>241</ele>
        <time>2011-06-22T01:03:37Z</time>
      </trkpt>
      <trkpt lat="48.55126" lon="-3.26407">
        <ele>241</ele>
        <time>2011-06-22T01:03:40Z</time>
      </trkpt>
      <trkpt lat="48.55149" lon="-3.26372">
        <ele>240</ele>
        <time>2011-06-22T01:03:44Z</time>
      </trkpt>
      <trkpt lat="48.55315" lon="-3.26625">
        <ele>237</ele>
        <time>2011-06-22T01:04:16Z</time>
      </trkpt>
      <trkpt lat="48.55388" lon="-3.26748">
        <ele>232</ele>
        <time>2011-06-22T01:04:31Z</time>
      </trkpt>
      <trkpt lat="48.55421" lon="-3.26795">
        <ele>230</ele>
        <time>2011-06-22T01:04:37Z</time>
      </trkpt>
      <trkpt lat="48.55421" lon="-3.26795">
        <ele>230</ele>
        <time>2011-06-22T01:04:38Z</time>
      </trkpt>
      <trkpt lat="48.555" lon="-3.26904">
        <ele>225</ele>
        <time>2011-06-22T01:04:52Z</time>
      </trkpt>
      <trkpt lat="48.55657" lon="-3.27084">
        <ele>220</ele>
        <time>2011-06-22T01:05:18Z</time>
      </trkpt>
      <trkpt lat="48.55662" lon="-3.27095">
        <ele>219</ele>
        <time>2011-06-22T01:05:19Z</time>
      </trkpt>
      <trkpt lat="48.55668" lon="-3.27118">
        <ele>219</ele>
        <time>2011-06-22T01:05:22Z</time>
      </trkpt>
      <trkpt lat="48.55688" lon="-3.27421">
        <ele>215</ele>
        <time>2011-06-22T01:05:49Z</time>
      </trkpt>
      <trkpt lat="48.5569" lon="-3.27469">
        <ele>214</ele>
        <time>2011-06-22T01:05:53Z</time>
      </trkpt>
      <trkpt lat="48.55683" lon="-3.2752">
        <ele>213</ele>
        <time>2011-06-22T01:05:57Z</time>
      </trkpt>
      <trkpt lat="48.5576" lon="-3.27541">
        <ele>211</ele>
        <time>2011-06-22T01:06:08Z</time>
      </trkpt>
      <trkpt lat="48.55782" lon="-3.27551">
        <ele>209</ele>
        <time>2011-06-22T01:06:11Z</time>
      </trkpt>
      <trkpt lat="48.55804" lon="-3.27569">
        <ele>208</ele>
        <time>2011-06-22T01:06:14Z</time>
      </trkpt>
      <trkpt lat="48.55872" lon="-3.27633">
        <ele>205</ele>
        <time>2011-06-22T01:06:25Z</time>
      </trkpt>
      <trkpt lat="48.55942" lon="-3.2768">
        <ele>203</ele>
        <time>2011-06-22T01:06:35Z</time>
      </trkpt>
      <trkpt lat="48.55996" lon="-3.27692">
        <ele>203</ele>
        <time>2011-06-22T01:06:42Z</time>
      </trkpt>
      <trkpt lat="48.56077" lon="-3.27689">
        <ele>203</ele>
        <time>2011-06-22T01:06:55Z</time>
      </trkpt>
      <trkpt lat="48.56192" lon="-3.27678">
        <ele>205</ele>
        <time>2011-06-22T01:07:13Z</time>
      </trkpt>
      <trkpt lat="48.56267" lon="-3.27642">
        <ele>205</ele>
        <time>2011-06-22T01:07:24Z</time>
      </trkpt>
      <trkpt lat="48.56288" lon="-3.2763">
        <ele>205</ele>
        <time>2011-06-22T01:07:27Z</time>
      </trkpt>
      <trkpt lat="48.56364" lon="-3.27535">
        <ele>207</ele>
        <time>2011-06-22T01:07:45Z</time>
      </trkpt>
      <trkpt lat="48.56364" lon="-3.27535">
        <ele>207</ele>
        <time>2011-06-22T01:07:46Z</time>
      </trkpt>
      <trkpt lat="48.56401" lon="-3.27497">
        <ele>205</ele>
        <time>2011-06-22T01:07:52Z</time>
      </trkpt>
      <trkpt lat="48.56474" lon="-3.27448">
        <ele>203</ele>
        <time>2011-06-22T01:08:03Z</time>
      </trkpt>
      <trkpt lat="48.56533" lon="-3.27389">
        <ele>197</ele>
        <time>2011-06-22T01:08:12Z</time>
      </trkpt>
      <trkpt lat="48.56639" lon="-3.27224">
        <ele>186</ele>
        <time>2011-06-22T01:08:32Z</time>
      </trkpt>
      <trkpt lat="48.56707" lon="-3.27108">
        <ele>180</ele>
        <time>2011-06-22T01:08:46Z</time>
      </trkpt>
      <trkpt lat="48.56789" lon="-3.26946">
        <ele>174</ele>
        <time>2011-06-22T01:09:04Z</time>
      </trkpt>
      <trkpt lat="48.56789" lon="-3.26946">
        <ele>174</ele>
        <time>2011-06-22T01:09:05Z</time>
      </trkpt>
      <trkpt lat="48.5681" lon="-3.26909">
        <ele>174</ele>
        <time>2011-06-22T01:09:11Z</time>
      </trkpt>
      <trkpt lat="48.56835" lon="-3.26894">
        <ele>175</ele>
        <time>2011-06-22T01:09:16Z</time>
      </trkpt>
      <trkpt lat="48.56831" lon="-3.27375">
        <ele>182</ele>
        <time>2011-06-22T01:10:15Z</time>
      </trkpt>
      <trkpt lat="48.56824" lon="-3.27546">
        <ele>181</ele>
        <time>2011-06-22T01:10:30Z</time>
      </trkpt>
      <trkpt lat="48.5682" lon="-3.27769">
        <ele>176</ele>
        <time>2011-06-22T01:10:50Z</time>
      </trkpt>
      <trkpt lat="48.5682" lon="-3.27769">
        <ele>176</ele>
        <time>2011-06-22T01:10:51Z</time>
      </trkpt>
      <trkpt lat="48.56816" lon="-3.28048">
        <ele>164</ele>
        <time>2011-06-22T01:11:15Z</time>
      </trkpt>
      <trkpt lat="48.5681" lon="-3.28166">
        <ele>161</ele>
        <time>2011-06-22T01:11:26Z</time>
      </trkpt>
      <trkpt lat="48.56806" lon="-3.28432">
        <ele>155</ele>
        <time>2011-06-22T01:11:49Z</time>
      </trkpt>
      <trkpt lat="48.56801" lon="-3.28496">
        <ele>156</ele>
        <time>2011-06-22T01:11:59Z</time>
      </trkpt>
      <trkpt lat="48.56789" lon="-3.29073">
        <ele>171</ele>
        <time>2011-06-22T01:13:24Z</time>
      </trkpt>
      <trkpt lat="48.56814" lon="-3.2909">
        <ele>170</ele>
        <time>2011-06-22T01:13:28Z</time>
      </trkpt>
      <trkpt lat="48.56846" lon="-3.29102">
        <ele>170</ele>
        <time>2011-06-22T01:13:32Z</time>
      </trkpt>
      <trkpt lat="48.56948" lon="-3.29102">
        <ele>169</ele>
        <time>2011-06-22T01:13:46Z</time>
      </trkpt>
      <trkpt lat="48.56986" lon="-3.2911">
        <ele>170</ele>
        <time>2011-06-22T01:13:54Z</time>
      </trkpt>
      <trkpt lat="48.56986" lon="-3.2911">
        <ele>170</ele>
        <time>2011-06-22T01:13:55Z</time>
      </trkpt>
      <trkpt lat="48.57007" lon="-3.2911">
        <ele>170</ele>
        <time>2011-06-22T01:13:57Z</time>
      </trkpt>
      <trkpt lat="48.57026" lon="-3.29095">
        <ele>170</ele>
        <time>2011-06-22T01:14:00Z</time>
      </trkpt>
      <trkpt lat="48.57102" lon="-3.28977">
        <ele>170</ele>
        <time>2011-06-22T01:14:15Z</time>
      </trkpt>
      <trkpt lat="48.57155" lon="-3.28928">
        <ele>171</ele>
        <time>2011-06-22T01:14:26Z</time>
      </trkpt>
      <trkpt lat="48.57215" lon="-3.2884">
        <ele>173</ele>
        <time>2011-06-22T01:14:41Z</time>
      </trkpt>
      <trkpt lat="48.57229" lon="-3.28809">
        <ele>173</ele>
        <time>2011-06-22T01:14:45Z</time>
      </trkpt>
      <trkpt lat="48.57237" lon="-3.28775">
        <ele>173</ele>
        <time>2011-06-22T01:14:49Z</time>
      </trkpt>
      <trkpt lat="48.57244" lon="-3.28712">
        <ele>173</ele>
        <time>2011-06-22T01:14:56Z</time>
      </trkpt>
      <trkpt lat="48.57251" lon="-3.28562">
        <ele>175</ele>
        <time>2011-06-22T01:15:12Z</time>
      </trkpt>
      <trkpt lat="48.57264" lon="-3.28533">
        <ele>175</ele>
        <time>2011-06-22T01:15:15Z</time>
      </trkpt>
      <trkpt lat="48.57277" lon="-3.28513">
        <ele>175</ele>
        <time>2011-06-22T01:15:18Z</time>
      </trkpt>
      <trkpt lat="48.57298" lon="-3.28494">
        <ele>175</ele>
        <time>2011-06-22T01:15:22Z</time>
      </trkpt>
      <trkpt lat="48.57433" lon="-3.28396">
        <ele>177</ele>
        <time>2011-06-22T01:15:45Z</time>
      </trkpt>
      <trkpt lat="48.57433" lon="-3.28396">
        <ele>177</ele>
        <time>2011-06-22T01:15:46Z</time>
      </trkpt>
      <trkpt lat="48.57464" lon="-3.28377">
        <ele>177</ele>
        <time>2011-06-22T01:15:51Z</time>
      </trkpt>
      <trkpt lat="48.57565" lon="-3.28346">
        <ele>177</ele>
        <time>2011-06-22T01:16:05Z</time>
      </trkpt>
      <trkpt lat="48.57606" lon="-3.2834">
        <ele>177</ele>
        <time>2011-06-22T01:16:10Z</time>
      </trkpt>
      <trkpt lat="48.57744" lon="-3.28337">
        <ele>177</ele>
        <time>2011-06-22T01:16:29Z</time>
      </trkpt>
      <trkpt lat="48.57784" lon="-3.28323">
        <ele>175</ele>
        <time>2011-06-22T01:16:34Z</time>
      </trkpt>
      <trkpt lat="48.5782" lon="-3.28291">
        <ele>173</ele>
        <time>2011-06-22T01:16:40Z</time>
      </trkpt>
      <trkpt lat="48.57911" lon="-3.28168">
        <ele>169</ele>
        <time>2011-06-22T01:16:56Z</time>
      </trkpt>
      <trkpt lat="48.5793" lon="-3.28151">
        <ele>168</ele>
        <time>2011-06-22T01:16:59Z</time>
      </trkpt>
      <trkpt lat="48.58037" lon="-3.28135">
        <ele>164</ele>
        <time>2011-06-22T01:17:13Z</time>
      </trkpt>
      <trkpt lat="48.58069" lon="-3.28124">
        <ele>162</ele>
        <time>2011-06-22T01:17:18Z</time>
      </trkpt>
      <trkpt lat="48.58173" lon="-3.28015">
        <ele>157</ele>
        <time>2011-06-22T01:17:35Z</time>
      </trkpt>
      <trkpt lat="48.58381" lon="-3.27907">
        <ele>149</ele>
        <time>2011-06-22T01:18:04Z</time>
      </trkpt>
      <trkpt lat="48.58442" lon="-3.27862">
        <ele>148</ele>
        <time>2011-06-22T01:18:13Z</time>
      </trkpt>
      <trkpt lat="48.58506" lon="-3.27823">
        <ele>147</ele>
        <time>2011-06-22T01:18:22Z</time>
      </trkpt>
      <trkpt lat="48.58571" lon="-3.27801">
        <ele>144</ele>
        <time>2011-06-22T01:18:31Z</time>
      </trkpt>
      <trkpt lat="48.5862" lon="-3.27751">
        <ele>143</ele>
        <time>2011-06-22T01:18:39Z</time>
      </trkpt>
      <trkpt lat="48.58646" lon="-3.27731">
        <ele>141</ele>
        <time>2011-06-22T01:18:43Z</time>
      </trkpt>
      <trkpt lat="48.587" lon="-3.27719">
        <ele>138</ele>
        <time>2011-06-22T01:18:50Z</time>
      </trkpt>
      <trkpt lat="48.58735" lon="-3.277">
        <ele>137</ele>
        <time>2011-06-22T01:18:55Z</time>
      </trkpt>
      <trkpt lat="48.58759" lon="-3.27674">
        <ele>135</ele>
        <time>2011-06-22T01:18:59Z</time>
      </trkpt>
      <trkpt lat="48.58778" lon="-3.27644">
        <ele>134</ele>
        <time>2011-06-22T01:19:03Z</time>
      </trkpt>
      <trkpt lat="48.58793" lon="-3.2761">
        <ele>133</ele>
        <time>2011-06-22T01:19:06Z</time>
      </trkpt>
      <trkpt lat="48.58825" lon="-3.27569">
        <ele>132</ele>
        <time>2011-06-22T01:19:12Z</time>
      </trkpt>
      <trkpt lat="48.5884" lon="-3.27523">
        <ele>132</ele>
        <time>2011-06-22T01:19:16Z</time>
      </trkpt>
      <trkpt lat="48.58872" lon="-3.27464">
        <ele>132</ele>
        <time>2011-06-22T01:19:23Z</time>
      </trkpt>
      <trkpt lat="48.5889" lon="-3.2742">
        <ele>132</ele>
        <time>2011-06-22T01:19:28Z</time>
      </trkpt>
      <trkpt lat="48.58908" lon="-3.27389">
        <ele>131</ele>
        <time>2011-06-22T01:19:31Z</time>
      </trkpt>
      <trkpt lat="48.5894" lon="-3.27353">
        <ele>130</ele>
        <time>2011-06-22T01:19:37Z</time>
      </trkpt>
      <trkpt lat="48.58954" lon="-3.27325">
        <ele>130</ele>
        <time>2011-06-22T01:19:40Z</time>
      </trkpt>
      <trkpt lat="48.58977" lon="-3.27269">
        <ele>130</ele>
        <time>2011-06-22T01:19:46Z</time>
      </trkpt>
      <trkpt lat="48.58998" lon="-3.2719">
        <ele>130</ele>
        <time>2011-06-22T01:19:53Z</time>
      </trkpt>
      <trkpt lat="48.59016" lon="-3.27152">
        <ele>130</ele>
        <time>2011-06-22T01:19:57Z</time>
      </trkpt>
      <trkpt lat="48.59026" lon="-3.27142">
        <ele>130</ele>
        <time>2011-06-22T01:19:59Z</time>
      </trkpt>
      <trkpt lat="48.59112" lon="-3.27126">
        <ele>128</ele>
        <time>2011-06-22T01:20:11Z</time>
      </trkpt>
      <trkpt lat="48.59162" lon="-3.27099">
        <ele>127</ele>
        <time>2011-06-22T01:20:18Z</time>
      </trkpt>
      <trkpt lat="48.59189" lon="-3.27094">
        <ele>125</ele>
        <time>2011-06-22T01:20:21Z</time>
      </trkpt>
      <trkpt lat="48.59208" lon="-3.271">
        <ele>125</ele>
        <time>2011-06-22T01:20:24Z</time>
      </trkpt>
      <trkpt lat="48.59225" lon="-3.27115">
        <ele>124</ele>
        <time>2011-06-22T01:20:26Z</time>
      </trkpt>
      <trkpt lat="48.59251" lon="-3.27156">
        <ele>123</ele>
        <time>2011-06-22T01:20:31Z</time>
      </trkpt>
      <trkpt lat="48.59273" lon="-3.27177">
        <ele>124</ele>
        <time>2011-06-22T01:20:37Z</time>
      </trkpt>
      <trkpt lat="48.59316" lon="-3.272">
        <ele>125</ele>
        <time>2011-06-22T01:20:48Z</time>
      </trkpt>
      <trkpt lat="48.59361" lon="-3.27238">
        <ele>128</ele>
        <time>2011-06-22T01:21:00Z</time>
      </trkpt>
      <trkpt lat="48.59386" lon="-3.27253">
        <ele>128</ele>
        <time>2011-06-22T01:21:05Z</time>
      </trkpt>
      <trkpt lat="48.59413" lon="-3.27256">
        <ele>129</ele>
        <time>2011-06-22T01:21:10Z</time>
      </trkpt>
      <trkpt lat="48.59475" lon="-3.27243">
        <ele>131</ele>
        <time>2011-06-22T01:21:23Z</time>
      </trkpt>
      <trkpt lat="48.59525" lon="-3.27214">
        <ele>131</ele>
        <time>2011-06-22T01:21:30Z</time>
      </trkpt>
      <trkpt lat="48.59551" lon="-3.27197">
        <ele>131</ele>
        <time>2011-06-22T01:21:34Z</time>
      </trkpt>
      <trkpt lat="48.59676" lon="-3.27091">
        <ele>131</ele>
        <time>2011-06-22T01:21:53Z</time>
      </trkpt>
      <trkpt lat="48.59676" lon="-3.2709">
        <ele>130</ele>
        <time>2011-06-22T01:21:53Z</time>
      </trkpt>
      <trkpt lat="48.59726" lon="-3.27041">
        <ele>129</ele>
        <time>2011-06-22T01:22:01Z</time>
      </trkpt>
      <trkpt lat="48.59724" lon="-3.27014">
        <ele>128</ele>
        <time>2011-06-22T01:22:03Z</time>
      </trkpt>
      <trkpt lat="48.59729" lon="-3.26978">
        <ele>128</ele>
        <time>2011-06-22T01:22:06Z</time>
      </trkpt>
      <trkpt lat="48.59741" lon="-3.26951">
        <ele>127</ele>
        <time>2011-06-22T01:22:09Z</time>
      </trkpt>
      <trkpt lat="48.59759" lon="-3.26973">
        <ele>127</ele>
        <time>2011-06-22T01:22:12Z</time>
      </trkpt>
      <trkpt lat="48.59798" lon="-3.26993">
        <ele>127</ele>
        <time>2011-06-22T01:22:18Z</time>
      </trkpt>
      <trkpt lat="48.59921" lon="-3.27004">
        <ele>127</ele>
        <time>2011-06-22T01:22:34Z</time>
      </trkpt>
      <trkpt lat="48.60069" lon="-3.27037">
        <ele>129</ele>
        <time>2011-06-22T01:22:59Z</time>
      </trkpt>
      <trkpt lat="48.60102" lon="-3.27035">
        <ele>130</ele>
        <time>2011-06-22T01:23:06Z</time>
      </trkpt>
      <trkpt lat="48.60148" lon="-3.27008">
        <ele>131</ele>
        <time>2011-06-22T01:23:17Z</time>
      </trkpt>
      <trkpt lat="48.60182" lon="-3.26979">
        <ele>133</ele>
        <time>2011-06-22T01:23:25Z</time>
      </trkpt>
      <trkpt lat="48.6034" lon="-3.26781">
        <ele>136</ele>
        <time>2011-06-22T01:24:00Z</time>
      </trkpt>
      <trkpt lat="48.60361" lon="-3.26765">
        <ele>136</ele>
        <time>2011-06-22T01:24:04Z</time>
      </trkpt>
      <trkpt lat="48.60388" lon="-3.26757">
        <ele>136</ele>
        <time>2011-06-22T01:24:08Z</time>
      </trkpt>
      <trkpt lat="48.60415" lon="-3.26764">
        <ele>137</ele>
        <time>2011-06-22T01:24:13Z</time>
      </trkpt>
      <trkpt lat="48.6045" lon="-3.26794">
        <ele>138</ele>
        <time>2011-06-22T01:24:20Z</time>
      </trkpt>
      <trkpt lat="48.60547" lon="-3.26968">
        <ele>144</ele>
        <time>2011-06-22T01:24:55Z</time>
      </trkpt>
      <trkpt lat="48.60573" lon="-3.27005">
        <ele>144</ele>
        <time>2011-06-22T01:25:01Z</time>
      </trkpt>
      <trkpt lat="48.60601" lon="-3.27032">
        <ele>145</ele>
        <time>2011-06-22T01:25:07Z</time>
      </trkpt>
      <trkpt lat="48.6065" lon="-3.27057">
        <ele>146</ele>
        <time>2011-06-22T01:25:16Z</time>
      </trkpt>
      <trkpt lat="48.60764" lon="-3.27128">
        <ele>146</ele>
        <time>2011-06-22T01:25:32Z</time>
      </trkpt>
      <trkpt lat="48.60784" lon="-3.27133">
        <ele>145</ele>
        <time>2011-06-22T01:25:35Z</time>
      </trkpt>
      <trkpt lat="48.60805" lon="-3.2713">
        <ele>145</ele>
        <time>2011-06-22T01:25:38Z</time>
      </trkpt>
      <trkpt lat="48.60867" lon="-3.27106">
        <ele>144</ele>
        <time>2011-06-22T01:25:46Z</time>
      </trkpt>
      <trkpt lat="48.60916" lon="-3.27073">
        <ele>142</ele>
        <time>2011-06-22T01:25:53Z</time>
      </trkpt>
      <trkpt lat="48.60952" lon="-3.27038">
        <ele>141</ele>
        <time>2011-06-22T01:25:59Z</time>
      </trkpt>
      <trkpt lat="48.61023" lon="-3.26991">
        <ele>139</ele>
        <time>2011-06-22T01:26:09Z</time>
      </trkpt>
      <trkpt lat="48.6109" lon="-3.2692">
        <ele>137</ele>
        <time>2011-06-22T01:26:20Z</time>
      </trkpt>
      <trkpt lat="48.61231" lon="-3.26857">
        <ele>140</ele>
        <time>2011-06-22T01:26:47Z</time>
      </trkpt>
      <trkpt lat="48.61231" lon="-3.26857">
        <ele>140</ele>
        <time>2011-06-22T01:26:48Z</time>
      </trkpt>
      <trkpt lat="48.61251" lon="-3.26848">
        <ele>140</ele>
        <time>2011-06-22T01:26:51Z</time>
      </trkpt>
      <trkpt lat="48.61341" lon="-3.27199">
        <ele>140</ele>
        <time>2011-06-22T01:27:24Z</time>
      </trkpt>
      <trkpt lat="48.61393" lon="-3.27368">
        <ele>137</ele>
        <time>2011-06-22T01:27:41Z</time>
      </trkpt>
      <trkpt lat="48.61486" lon="-3.27706">
        <ele>127</ele>
        <time>2011-06-22T01:28:13Z</time>
      </trkpt>
      <trkpt lat="48.615" lon="-3.27738">
        <ele>126</ele>
        <time>2011-06-22T01:28:16Z</time>
      </trkpt>
      <trkpt lat="48.6156" lon="-3.27832">
        <ele>123</ele>
        <time>2011-06-22T01:28:28Z</time>
      </trkpt>
      <trkpt lat="48.61575" lon="-3.27862">
        <ele>121</ele>
        <time>2011-06-22T01:28:31Z</time>
      </trkpt>
      <trkpt lat="48.61597" lon="-3.27936">
        <ele>118</ele>
        <time>2011-06-22T01:28:38Z</time>
      </trkpt>
      <trkpt lat="48.61627" lon="-3.28082">
        <ele>112</ele>
        <time>2011-06-22T01:28:52Z</time>
      </trkpt>
      <trkpt lat="48.61627" lon="-3.28082">
        <ele>112</ele>
        <time>2011-06-22T01:28:53Z</time>
      </trkpt>
      <trkpt lat="48.61651" lon="-3.2816">
        <ele>106</ele>
        <time>2011-06-22T01:29:01Z</time>
      </trkpt>
      <trkpt lat="48.61681" lon="-3.28225">
        <ele>101</ele>
        <time>2011-06-22T01:29:08Z</time>
      </trkpt>
      <trkpt lat="48.61777" lon="-3.2835">
        <ele>97</ele>
        <time>2011-06-22T01:29:24Z</time>
      </trkpt>
      <trkpt lat="48.61794" lon="-3.28384">
        <ele>98</ele>
        <time>2011-06-22T01:29:32Z</time>
      </trkpt>
      <trkpt lat="48.61804" lon="-3.28386">
        <ele>99</ele>
        <time>2011-06-22T01:29:35Z</time>
      </trkpt>
      <trkpt lat="48.61806" lon="-3.284">
        <ele>99</ele>
        <time>2011-06-22T01:29:38Z</time>
      </trkpt>
      <trkpt lat="48.61802" lon="-3.28405">
        <ele>100</ele>
        <time>2011-06-22T01:29:39Z</time>
      </trkpt>
      <trkpt lat="48.61824" lon="-3.28469">
        <ele>103</ele>
        <time>2011-06-22T01:29:52Z</time>
      </trkpt>
      <trkpt lat="48.61832" lon="-3.28526">
        <ele>105</ele>
        <time>2011-06-22T01:30:03Z</time>
      </trkpt>
      <trkpt lat="48.61832" lon="-3.28581">
        <ele>107</ele>
        <time>2011-06-22T01:30:12Z</time>
      </trkpt>
      <trkpt lat="48.61821" lon="-3.28656">
        <ele>110</ele>
        <time>2011-06-22T01:30:26Z</time>
      </trkpt>
      <trkpt lat="48.61807" lon="-3.28706">
        <ele>112</ele>
        <time>2011-06-22T01:30:36Z</time>
      </trkpt>
      <trkpt lat="48.618" lon="-3.2877">
        <ele>114</ele>
        <time>2011-06-22T01:30:48Z</time>
      </trkpt>
      <trkpt lat="48.61808" lon="-3.28906">
        <ele>120</ele>
        <time>2011-06-22T01:31:13Z</time>
      </trkpt>
      <trkpt lat="48.61815" lon="-3.28951">
        <ele>121</ele>
        <time>2011-06-22T01:31:21Z</time>
      </trkpt>
      <trkpt lat="48.61824" lon="-3.28984">
        <ele>123</ele>
        <time>2011-06-22T01:31:27Z</time>
      </trkpt>
      <trkpt lat="48.61838" lon="-3.29014">
        <ele>124</ele>
        <time>2011-06-22T01:31:34Z</time>
      </trkpt>
      <trkpt lat="48.61856" lon="-3.2904">
        <ele>126</ele>
        <time>2011-06-22T01:31:41Z</time>
      </trkpt>
      <trkpt lat="48.61992" lon="-3.29183">
        <ele>136</ele>
        <time>2011-06-22T01:32:27Z</time>
      </trkpt>
      <trkpt lat="48.62047" lon="-3.29252">
        <ele>136</ele>
        <time>2011-06-22T01:32:39Z</time>
      </trkpt>
      <trkpt lat="48.6207" lon="-3.29243">
        <ele>137</ele>
        <time>2011-06-22T01:32:43Z</time>
      </trkpt>
      <trkpt lat="48.62121" lon="-3.29237">
        <ele>138</ele>
        <time>2011-06-22T01:32:51Z</time>
      </trkpt>
      <trkpt lat="48.62181" lon="-3.29246">
        <ele>138</ele>
        <time>2011-06-22T01:33:01Z</time>
      </trkpt>
      <trkpt lat="48.62257" lon="-3.29303">
        <ele>140</ele>
        <time>2011-06-22T01:33:15Z</time>
      </trkpt>
      <trkpt lat="48.62341" lon="-3.29352">
        <ele>144</ele>
        <time>2011-06-22T01:33:37Z</time>
      </trkpt>
      <trkpt lat="48.62436" lon="-3.29401">
        <ele>144</ele>
        <time>2011-06-22T01:33:50Z</time>
      </trkpt>
      <trkpt lat="48.62495" lon="-3.29421">
        <ele>145</ele>
        <time>2011-06-22T01:34:02Z</time>
      </trkpt>
      <trkpt lat="48.62521" lon="-3.29435">
        <ele>146</ele>
        <time>2011-06-22T01:34:08Z</time>
      </trkpt>
      <trkpt lat="48.62548" lon="-3.29458">
        <ele>147</ele>
        <time>2011-06-22T01:34:14Z</time>
      </trkpt>
      <trkpt lat="48.62591" lon="-3.29513">
        <ele>148</ele>
        <time>2011-06-22T01:34:23Z</time>
      </trkpt>
      <trkpt lat="48.62591" lon="-3.29513">
        <ele>148</ele>
        <time>2011-06-22T01:34:24Z</time>
      </trkpt>
      <trkpt lat="48.62613" lon="-3.29541">
        <ele>147</ele>
        <time>2011-06-22T01:34:28Z</time>
      </trkpt>
      <trkpt lat="48.62639" lon="-3.29586">
        <ele>146</ele>
        <time>2011-06-22T01:34:34Z</time>
      </trkpt>
      <trkpt lat="48.62654" lon="-3.29559">
        <ele>146</ele>
        <time>2011-06-22T01:34:37Z</time>
      </trkpt>
      <trkpt lat="48.62681" lon="-3.29465">
        <ele>145</ele>
        <time>2011-06-22T01:34:46Z</time>
      </trkpt>
      <trkpt lat="48.62717" lon="-3.29451">
        <ele>142</ele>
        <time>2011-06-22T01:34:51Z</time>
      </trkpt>
      <trkpt lat="48.62737" lon="-3.29435">
        <ele>141</ele>
        <time>2011-06-22T01:34:54Z</time>
      </trkpt>
      <trkpt lat="48.62765" lon="-3.29402">
        <ele>139</ele>
        <time>2011-06-22T01:34:58Z</time>
      </trkpt>
      <trkpt lat="48.62801" lon="-3.29389">
        <ele>136</ele>
        <time>2011-06-22T01:35:03Z</time>
      </trkpt>
      <trkpt lat="48.62815" lon="-3.29378">
        <ele>135</ele>
        <time>2011-06-22T01:35:05Z</time>
      </trkpt>
      <trkpt lat="48.62952" lon="-3.2925">
        <ele>126</ele>
        <time>2011-06-22T01:35:27Z</time>
      </trkpt>
      <trkpt lat="48.62952" lon="-3.29249">
        <ele>125</ele>
        <time>2011-06-22T01:35:27Z</time>
      </trkpt>
      <trkpt lat="48.63079" lon="-3.29127">
        <ele>118</ele>
        <time>2011-06-22T01:35:47Z</time>
      </trkpt>
      <trkpt lat="48.63092" lon="-3.2912">
        <ele>117</ele>
        <time>2011-06-22T01:35:49Z</time>
      </trkpt>
      <trkpt lat="48.6319" lon="-3.29109">
        <ele>117</ele>
        <time>2011-06-22T01:36:02Z</time>
      </trkpt>
      <trkpt lat="48.63313" lon="-3.29104">
        <ele>115</ele>
        <time>2011-06-22T01:36:19Z</time>
      </trkpt>
      <trkpt lat="48.63418" lon="-3.29117">
        <ele>113</ele>
        <time>2011-06-22T01:36:33Z</time>
      </trkpt>
      <trkpt lat="48.63455" lon="-3.29125">
        <ele>112</ele>
        <time>2011-06-22T01:36:38Z</time>
      </trkpt>
      <trkpt lat="48.63472" lon="-3.29134">
        <ele>111</ele>
        <time>2011-06-22T01:36:40Z</time>
      </trkpt>
      <trkpt lat="48.63492" lon="-3.291">
        <ele>111</ele>
        <time>2011-06-22T01:36:44Z</time>
      </trkpt>
      <trkpt lat="48.63546" lon="-3.29036">
        <ele>110</ele>
        <time>2011-06-22T01:36:53Z</time>
      </trkpt>
      <trkpt lat="48.63661" lon="-3.28915">
        <ele>106</ele>
        <time>2011-06-22T01:37:12Z</time>
      </trkpt>
      <trkpt lat="48.63661" lon="-3.28915">
        <ele>106</ele>
        <time>2011-06-22T01:37:13Z</time>
      </trkpt>
      <trkpt lat="48.6373" lon="-3.28841">
        <ele>104</ele>
        <time>2011-06-22T01:37:24Z</time>
      </trkpt>
      <trkpt lat="48.63744" lon="-3.28829">
        <ele>104</ele>
        <time>2011-06-22T01:37:26Z</time>
      </trkpt>
      <trkpt lat="48.63804" lon="-3.28802">
        <ele>103</ele>
        <time>2011-06-22T01:37:35Z</time>
      </trkpt>
      <trkpt lat="48.63949" lon="-3.28665">
        <ele>103</ele>
        <time>2011-06-22T01:37:58Z</time>
      </trkpt>
      <trkpt lat="48.63984" lon="-3.28615">
        <ele>101</ele>
        <time>2011-06-22T01:38:04Z</time>
      </trkpt>
      <trkpt lat="48.64008" lon="-3.2855">
        <ele>100</ele>
        <time>2011-06-22T01:38:11Z</time>
      </trkpt>
      <trkpt lat="48.64026" lon="-3.28534">
        <ele>100</ele>
        <time>2011-06-22T01:38:13Z</time>
      </trkpt>
      <trkpt lat="48.64043" lon="-3.28528">
        <ele>100</ele>
        <time>2011-06-22T01:38:16Z</time>
      </trkpt>
      <trkpt lat="48.64061" lon="-3.28532">
        <ele>100</ele>
        <time>2011-06-22T01:38:18Z</time>
      </trkpt>
      <trkpt lat="48.64159" lon="-3.28588">
        <ele>100</ele>
        <time>2011-06-22T01:38:32Z</time>
      </trkpt>
      <trkpt lat="48.64188" lon="-3.28595">
        <ele>99</ele>
        <time>2011-06-22T01:38:36Z</time>
      </trkpt>
      <trkpt lat="48.64213" lon="-3.28585">
        <ele>99</ele>
        <time>2011-06-22T01:38:40Z</time>
      </trkpt>
      <trkpt lat="48.643" lon="-3.2842">
        <ele>98</ele>
        <time>2011-06-22T01:38:58Z</time>
      </trkpt>
      <trkpt lat="48.64364" lon="-3.28316">
        <ele>98</ele>
        <time>2011-06-22T01:39:11Z</time>
      </trkpt>
      <trkpt lat="48.64482" lon="-3.28141">
        <ele>97</ele>
        <time>2011-06-22T01:39:33Z</time>
      </trkpt>
      <trkpt lat="48.64502" lon="-3.28062">
        <ele>97</ele>
        <time>2011-06-22T01:39:41Z</time>
      </trkpt>
      <trkpt lat="48.64501" lon="-3.28028">
        <ele>97</ele>
        <time>2011-06-22T01:39:45Z</time>
      </trkpt>
      <trkpt lat="48.64485" lon="-3.27933">
        <ele>98</ele>
        <time>2011-06-22T01:39:54Z</time>
      </trkpt>
      <trkpt lat="48.64483" lon="-3.27904">
        <ele>97</ele>
        <time>2011-06-22T01:39:57Z</time>
      </trkpt>
      <trkpt lat="48.64482" lon="-3.27863">
        <ele>97</ele>
        <time>2011-06-22T01:40:00Z</time>
      </trkpt>
      <trkpt lat="48.64487" lon="-3.27813">
        <ele>97</ele>
        <time>2011-06-22T01:40:05Z</time>
      </trkpt>
      <trkpt lat="48.64533" lon="-3.27585">
        <ele>97</ele>
        <time>2011-06-22T01:40:26Z</time>
      </trkpt>
      <trkpt lat="48.64654" lon="-3.27043">
        <ele>101</ele>
        <time>2011-06-22T01:41:26Z</time>
      </trkpt>
      <trkpt lat="48.64663" lon="-3.26962">
        <ele>100</ele>
        <time>2011-06-22T01:41:33Z</time>
      </trkpt>
      <trkpt lat="48.64662" lon="-3.26887">
        <ele>100</ele>
        <time>2011-06-22T01:41:40Z</time>
      </trkpt>
      <trkpt lat="48.64659" lon="-3.26869">
        <ele>99</ele>
        <time>2011-06-22T01:41:42Z</time>
      </trkpt>
      <trkpt lat="48.6465" lon="-3.26841">
        <ele>99</ele>
        <time>2011-06-22T01:41:44Z</time>
      </trkpt>
      <trkpt lat="48.64559" lon="-3.26649">
        <ele>99</ele>
        <time>2011-06-22T01:42:05Z</time>
      </trkpt>
      <trkpt lat="48.64555" lon="-3.26612">
        <ele>98</ele>
        <time>2011-06-22T01:42:08Z</time>
      </trkpt>
      <trkpt lat="48.64559" lon="-3.26576">
        <ele>98</ele>
        <time>2011-06-22T01:42:12Z</time>
      </trkpt>
      <trkpt lat="48.64572" lon="-3.26534">
        <ele>98</ele>
        <time>2011-06-22T01:42:16Z</time>
      </trkpt>
      <trkpt lat="48.64594" lon="-3.26485">
        <ele>98</ele>
        <time>2011-06-22T01:42:21Z</time>
      </trkpt>
      <trkpt lat="48.64654" lon="-3.26379">
        <ele>97</ele>
        <time>2011-06-22T01:42:33Z</time>
      </trkpt>
      <trkpt lat="48.6476" lon="-3.26155">
        <ele>95</ele>
        <time>2011-06-22T01:42:58Z</time>
      </trkpt>
      <trkpt lat="48.64789" lon="-3.26073">
        <ele>94</ele>
        <time>2011-06-22T01:43:06Z</time>
      </trkpt>
      <trkpt lat="48.64818" lon="-3.25964">
        <ele>93</ele>
        <time>2011-06-22T01:43:16Z</time>
      </trkpt>
      <trkpt lat="48.64839" lon="-3.25929">
        <ele>92</ele>
        <time>2011-06-22T01:43:20Z</time>
      </trkpt>
      <trkpt lat="48.64862" lon="-3.25901">
        <ele>92</ele>
        <time>2011-06-22T01:43:24Z</time>
      </trkpt>
      <trkpt lat="48.64862" lon="-3.25901">
        <ele>92</ele>
        <time>2011-06-22T01:43:25Z</time>
      </trkpt>
      <trkpt lat="48.64925" lon="-3.25831">
        <ele>90</ele>
        <time>2011-06-22T01:43:36Z</time>
      </trkpt>
      <trkpt lat="48.64947" lon="-3.25792">
        <ele>90</ele>
        <time>2011-06-22T01:43:40Z</time>
      </trkpt>
      <trkpt lat="48.64972" lon="-3.25771">
        <ele>90</ele>
        <time>2011-06-22T01:43:46Z</time>
      </trkpt>
      <trkpt lat="48.64987" lon="-3.25736">
        <ele>91</ele>
        <time>2011-06-22T01:43:52Z</time>
      </trkpt>
      <trkpt lat="48.65" lon="-3.25661">
        <ele>93</ele>
        <time>2011-06-22T01:44:02Z</time>
      </trkpt>
      <trkpt lat="48.65003" lon="-3.25558">
        <ele>93</ele>
        <time>2011-06-22T01:44:11Z</time>
      </trkpt>
      <trkpt lat="48.65008" lon="-3.25532">
        <ele>93</ele>
        <time>2011-06-22T01:44:13Z</time>
      </trkpt>
      <trkpt lat="48.65051" lon="-3.25474">
        <ele>93</ele>
        <time>2011-06-22T01:44:21Z</time>
      </trkpt>
      <trkpt lat="48.65083" lon="-3.2541">
        <ele>93</ele>
        <time>2011-06-22T01:44:29Z</time>
      </trkpt>
      <trkpt lat="48.65098" lon="-3.25353">
        <ele>94</ele>
        <time>2011-06-22T01:44:36Z</time>
      </trkpt>
      <trkpt lat="48.65116" lon="-3.2518">
        <ele>91</ele>
        <time>2011-06-22T01:44:51Z</time>
      </trkpt>
      <trkpt lat="48.6514" lon="-3.2511">
        <ele>90</ele>
        <time>2011-06-22T01:44:58Z</time>
      </trkpt>
      <trkpt lat="48.65158" lon="-3.25104">
        <ele>90</ele>
        <time>2011-06-22T01:45:01Z</time>
      </trkpt>
      <trkpt lat="48.6518" lon="-3.25105">
        <ele>90</ele>
        <time>2011-06-22T01:45:04Z</time>
      </trkpt>
      <trkpt lat="48.6534" lon="-3.25158">
        <ele>89</ele>
        <time>2011-06-22T01:45:26Z</time>
      </trkpt>
      <trkpt lat="48.65363" lon="-3.25158">
        <ele>87</ele>
        <time>2011-06-22T01:45:29Z</time>
      </trkpt>
      <trkpt lat="48.65379" lon="-3.2515">
        <ele>87</ele>
        <time>2011-06-22T01:45:31Z</time>
      </trkpt>
      <trkpt lat="48.65405" lon="-3.25122">
        <ele>85</ele>
        <time>2011-06-22T01:45:35Z</time>
      </trkpt>
      <trkpt lat="48.65427" lon="-3.25078">
        <ele>84</ele>
        <time>2011-06-22T01:45:40Z</time>
      </trkpt>
      <trkpt lat="48.65478" lon="-3.25008">
        <ele>81</ele>
        <time>2011-06-22T01:45:49Z</time>
      </trkpt>
      <trkpt lat="48.65486" lon="-3.24988">
        <ele>80</ele>
        <time>2011-06-22T01:45:51Z</time>
      </trkpt>
      <trkpt lat="48.65492" lon="-3.24962">
        <ele>80</ele>
        <time>2011-06-22T01:45:54Z</time>
      </trkpt>
      <trkpt lat="48.65494" lon="-3.24921">
        <ele>79</ele>
        <time>2011-06-22T01:45:57Z</time>
      </trkpt>
      <trkpt lat="48.65494" lon="-3.24887">
        <ele>78</ele>
        <time>2011-06-22T01:46:00Z</time>
      </trkpt>
      <trkpt lat="48.6549" lon="-3.24869">
        <ele>78</ele>
        <time>2011-06-22T01:46:02Z</time>
      </trkpt>
      <trkpt lat="48.65437" lon="-3.24802">
        <ele>77</ele>
        <time>2011-06-22T01:46:11Z</time>
      </trkpt>
      <trkpt lat="48.6542" lon="-3.24772">
        <ele>76</ele>
        <time>2011-06-22T01:46:15Z</time>
      </trkpt>
      <trkpt lat="48.6539" lon="-3.24676">
        <ele>74</ele>
        <time>2011-06-22T01:46:24Z</time>
      </trkpt>
      <trkpt lat="48.6538" lon="-3.24623">
        <ele>71</ele>
        <time>2011-06-22T01:46:29Z</time>
      </trkpt>
      <trkpt lat="48.65383" lon="-3.24518">
        <ele>67</ele>
        <time>2011-06-22T01:46:38Z</time>
      </trkpt>
      <trkpt lat="48.65375" lon="-3.24455">
        <ele>63</ele>
        <time>2011-06-22T01:46:44Z</time>
      </trkpt>
      <trkpt lat="48.65357" lon="-3.24359">
        <ele>57</ele>
        <time>2011-06-22T01:46:53Z</time>
      </trkpt>
      <trkpt lat="48.65363" lon="-3.24267">
        <ele>52</ele>
        <time>2011-06-22T01:47:01Z</time>
      </trkpt>
      <trkpt lat="48.65371" lon="-3.24225">
        <ele>49</ele>
        <time>2011-06-22T01:47:05Z</time>
      </trkpt>
      <trkpt lat="48.65384" lon="-3.24196">
        <ele>48</ele>
        <time>2011-06-22T01:47:08Z</time>
      </trkpt>
      <trkpt lat="48.65434" lon="-3.24105">
        <ele>50</ele>
        <time>2011-06-22T01:47:24Z</time>
      </trkpt>
      <trkpt lat="48.65468" lon="-3.24064">
        <ele>52</ele>
        <time>2011-06-22T01:47:34Z</time>
      </trkpt>
      <trkpt lat="48.65491" lon="-3.24045">
        <ele>52</ele>
        <time>2011-06-22T01:47:38Z</time>
      </trkpt>
      <trkpt lat="48.65519" lon="-3.24025">
        <ele>52</ele>
        <time>2011-06-22T01:47:44Z</time>
      </trkpt>
      <trkpt lat="48.65791" lon="-3.23889">
        <ele>58</ele>
        <time>2011-06-22T01:48:34Z</time>
      </trkpt>
      <trkpt lat="48.65857" lon="-3.23844">
        <ele>58</ele>
        <time>2011-06-22T01:48:44Z</time>
      </trkpt>
      <trkpt lat="48.65886" lon="-3.23814">
        <ele>58</ele>
        <time>2011-06-22T01:48:48Z</time>
      </trkpt>
      <trkpt lat="48.65903" lon="-3.23777">
        <ele>58</ele>
        <time>2011-06-22T01:48:54Z</time>
      </trkpt>
      <trkpt lat="48.65922" lon="-3.237">
        <ele>60</ele>
        <time>2011-06-22T01:49:05Z</time>
      </trkpt>
      <trkpt lat="48.65954" lon="-3.23593">
        <ele>62</ele>
        <time>2011-06-22T01:49:20Z</time>
      </trkpt>
      <trkpt lat="48.66037" lon="-3.23404">
        <ele>65</ele>
        <time>2011-06-22T01:49:47Z</time>
      </trkpt>
      <trkpt lat="48.66043" lon="-3.23353">
        <ele>66</ele>
        <time>2011-06-22T01:49:54Z</time>
      </trkpt>
      <trkpt lat="48.66039" lon="-3.23309">
        <ele>67</ele>
        <time>2011-06-22T01:50:01Z</time>
      </trkpt>
      <trkpt lat="48.66006" lon="-3.23252">
        <ele>69</ele>
        <time>2011-06-22T01:50:12Z</time>
      </trkpt>
      <trkpt lat="48.65936" lon="-3.23185">
        <ele>70</ele>
        <time>2011-06-22T01:50:26Z</time>
      </trkpt>
      <trkpt lat="48.65917" lon="-3.23139">
        <ele>71</ele>
        <time>2011-06-22T01:50:32Z</time>
      </trkpt>
      <trkpt lat="48.65822" lon="-3.22787">
        <ele>87</ele>
        <time>2011-06-22T01:51:44Z</time>
      </trkpt>
      <trkpt lat="48.65824" lon="-3.22667">
        <ele>87</ele>
        <time>2011-06-22T01:51:55Z</time>
      </trkpt>
      <trkpt lat="48.65835" lon="-3.22548">
        <ele>87</ele>
        <time>2011-06-22T01:52:05Z</time>
      </trkpt>
      <trkpt lat="48.65851" lon="-3.2247">
        <ele>85</ele>
        <time>2011-06-22T01:52:13Z</time>
      </trkpt>
      <trkpt lat="48.65879" lon="-3.22411">
        <ele>84</ele>
        <time>2011-06-22T01:52:19Z</time>
      </trkpt>
      <trkpt lat="48.65924" lon="-3.22338">
        <ele>81</ele>
        <time>2011-06-22T01:52:28Z</time>
      </trkpt>
      <trkpt lat="48.65947" lon="-3.22281">
        <ele>80</ele>
        <time>2011-06-22T01:52:34Z</time>
      </trkpt>
      <trkpt lat="48.65983" lon="-3.22207">
        <ele>78</ele>
        <time>2011-06-22T01:52:42Z</time>
      </trkpt>
      <trkpt lat="48.65998" lon="-3.22159">
        <ele>78</ele>
        <time>2011-06-22T01:52:47Z</time>
      </trkpt>
      <trkpt lat="48.66004" lon="-3.2209">
        <ele>76</ele>
        <time>2011-06-22T01:52:53Z</time>
      </trkpt>
      <trkpt lat="48.66006" lon="-3.21955">
        <ele>74</ele>
        <time>2011-06-22T01:53:05Z</time>
      </trkpt>
      <trkpt lat="48.66011" lon="-3.21889">
        <ele>72</ele>
        <time>2011-06-22T01:53:10Z</time>
      </trkpt>
      <trkpt lat="48.66019" lon="-3.2185">
        <ele>72</ele>
        <time>2011-06-22T01:53:14Z</time>
      </trkpt>
      <trkpt lat="48.66049" lon="-3.21785">
        <ele>71</ele>
        <time>2011-06-22T01:53:21Z</time>
      </trkpt>
      <trkpt lat="48.66061" lon="-3.21736">
        <ele>69</ele>
        <time>2011-06-22T01:53:26Z</time>
      </trkpt>
      <trkpt lat="48.66061" lon="-3.21699">
        <ele>68</ele>
        <time>2011-06-22T01:53:29Z</time>
      </trkpt>
      <trkpt lat="48.66052" lon="-3.2164">
        <ele>66</ele>
        <time>2011-06-22T01:53:34Z</time>
      </trkpt>
      <trkpt lat="48.66059" lon="-3.21584">
        <ele>64</ele>
        <time>2011-06-22T01:53:39Z</time>
      </trkpt>
      <trkpt lat="48.66058" lon="-3.21558">
        <ele>63</ele>
        <time>2011-06-22T01:53:42Z</time>
      </trkpt>
      <trkpt lat="48.66028" lon="-3.21446">
        <ele>61</ele>
        <time>2011-06-22T01:53:52Z</time>
      </trkpt>
      <trkpt lat="48.66022" lon="-3.21404">
        <ele>59</ele>
        <time>2011-06-22T01:53:56Z</time>
      </trkpt>
      <trkpt lat="48.66022" lon="-3.2136">
        <ele>57</ele>
        <time>2011-06-22T01:54:00Z</time>
      </trkpt>
      <trkpt lat="48.66025" lon="-3.21331">
        <ele>56</ele>
        <time>2011-06-22T01:54:02Z</time>
      </trkpt>
      <trkpt lat="48.66033" lon="-3.21307">
        <ele>56</ele>
        <time>2011-06-22T01:54:05Z</time>
      </trkpt>
      <trkpt lat="48.66093" lon="-3.21174">
        <ele>52</ele>
        <time>2011-06-22T01:54:19Z</time>
      </trkpt>
      <trkpt lat="48.66106" lon="-3.21121">
        <ele>54</ele>
        <time>2011-06-22T01:54:30Z</time>
      </trkpt>
      <trkpt lat="48.66107" lon="-3.2101">
        <ele>59</ele>
        <time>2011-06-22T01:54:51Z</time>
      </trkpt>
      <trkpt lat="48.66118" lon="-3.20835">
        <ele>62</ele>
        <time>2011-06-22T01:55:13Z</time>
      </trkpt>
      <trkpt lat="48.66119" lon="-3.20719">
        <ele>63</ele>
        <time>2011-06-22T01:55:26Z</time>
      </trkpt>
      <trkpt lat="48.66119" lon="-3.20719">
        <ele>63</ele>
        <time>2011-06-22T01:55:27Z</time>
      </trkpt>
      <trkpt lat="48.6611" lon="-3.20662">
        <ele>63</ele>
        <time>2011-06-22T01:55:33Z</time>
      </trkpt>
      <trkpt lat="48.66102" lon="-3.20641">
        <ele>63</ele>
        <time>2011-06-22T01:55:36Z</time>
      </trkpt>
      <trkpt lat="48.66089" lon="-3.20626">
        <ele>63</ele>
        <time>2011-06-22T01:55:39Z</time>
      </trkpt>
      <trkpt lat="48.66069" lon="-3.20619">
        <ele>64</ele>
        <time>2011-06-22T01:55:42Z</time>
      </trkpt>
      <trkpt lat="48.66006" lon="-3.20625">
        <ele>65</ele>
        <time>2011-06-22T01:55:52Z</time>
      </trkpt>
      <trkpt lat="48.65941" lon="-3.20611">
        <ele>66</ele>
        <time>2011-06-22T01:56:04Z</time>
      </trkpt>
      <trkpt lat="48.65912" lon="-3.20591">
        <ele>67</ele>
        <time>2011-06-22T01:56:10Z</time>
      </trkpt>
      <trkpt lat="48.65904" lon="-3.20572">
        <ele>67</ele>
        <time>2011-06-22T01:56:13Z</time>
      </trkpt>
      <trkpt lat="48.65897" lon="-3.20539">
        <ele>67</ele>
        <time>2011-06-22T01:56:16Z</time>
      </trkpt>
      <trkpt lat="48.65895" lon="-3.20497">
        <ele>67</ele>
        <time>2011-06-22T01:56:20Z</time>
      </trkpt>
      <trkpt lat="48.65905" lon="-3.20425">
        <ele>68</ele>
        <time>2011-06-22T01:56:28Z</time>
      </trkpt>
      <trkpt lat="48.65918" lon="-3.20392">
        <ele>69</ele>
        <time>2011-06-22T01:56:34Z</time>
      </trkpt>
      <trkpt lat="48.65965" lon="-3.20322">
        <ele>72</ele>
        <time>2011-06-22T01:56:50Z</time>
      </trkpt>
      <trkpt lat="48.6598" lon="-3.20287">
        <ele>73</ele>
        <time>2011-06-22T01:56:57Z</time>
      </trkpt>
      <trkpt lat="48.65988" lon="-3.20195">
        <ele>76</ele>
        <time>2011-06-22T01:57:12Z</time>
      </trkpt>
      <trkpt lat="48.65982" lon="-3.19998">
        <ele>83</ele>
        <time>2011-06-22T01:57:45Z</time>
      </trkpt>
      <trkpt lat="48.65985" lon="-3.19954">
        <ele>83</ele>
        <time>2011-06-22T01:57:50Z</time>
      </trkpt>
      <trkpt lat="48.65991" lon="-3.19917">
        <ele>83</ele>
        <time>2011-06-22T01:57:54Z</time>
      </trkpt>
      <trkpt lat="48.66021" lon="-3.19805">
        <ele>84</ele>
        <time>2011-06-22T01:58:06Z</time>
      </trkpt>
      <trkpt lat="48.66042" lon="-3.1978">
        <ele>84</ele>
        <time>2011-06-22T01:58:11Z</time>
      </trkpt>
      <trkpt lat="48.66051" lon="-3.19775">
        <ele>84</ele>
        <time>2011-06-22T01:58:12Z</time>
      </trkpt>
      <trkpt lat="48.66062" lon="-3.19771">
        <ele>84</ele>
        <time>2011-06-22T01:58:14Z</time>
      </trkpt>
      <trkpt lat="48.6611" lon="-3.19772">
        <ele>86</ele>
        <time>2011-06-22T01:58:23Z</time>
      </trkpt>
      <trkpt lat="48.66238" lon="-3.19698">
        <ele>89</ele>
        <time>2011-06-22T01:58:49Z</time>
      </trkpt>
      <trkpt lat="48.6629" lon="-3.19672">
        <ele>89</ele>
        <time>2011-06-22T01:58:57Z</time>
      </trkpt>
      <trkpt lat="48.66313" lon="-3.19667">
        <ele>89</ele>
        <time>2011-06-22T01:59:01Z</time>
      </trkpt>
      <trkpt lat="48.66357" lon="-3.19665">
        <ele>90</ele>
        <time>2011-06-22T01:59:08Z</time>
      </trkpt>
      <trkpt lat="48.66705" lon="-3.1974">
        <ele>93</ele>
        <time>2011-06-22T02:00:02Z</time>
      </trkpt>
      <trkpt lat="48.66834" lon="-3.19738">
        <ele>94</ele>
        <time>2011-06-22T02:00:21Z</time>
      </trkpt>
      <trkpt lat="48.66912" lon="-3.19728">
        <ele>92</ele>
        <time>2011-06-22T02:00:32Z</time>
      </trkpt>
      <trkpt lat="48.66946" lon="-3.19713">
        <ele>92</ele>
        <time>2011-06-22T02:00:36Z</time>
      </trkpt>
      <trkpt lat="48.66984" lon="-3.1968">
        <ele>91</ele>
        <time>2011-06-22T02:00:42Z</time>
      </trkpt>
      <trkpt lat="48.67168" lon="-3.19493">
        <ele>91</ele>
        <time>2011-06-22T02:01:12Z</time>
      </trkpt>
      <trkpt lat="48.67353" lon="-3.19314">
        <ele>90</ele>
        <time>2011-06-22T02:01:41Z</time>
      </trkpt>
      <trkpt lat="48.67529" lon="-3.18928">
        <ele>86</ele>
        <time>2011-06-22T02:02:23Z</time>
      </trkpt>
      <trkpt lat="48.67529" lon="-3.18928">
        <ele>86</ele>
        <time>2011-06-22T02:02:24Z</time>
      </trkpt>
      <trkpt lat="48.67555" lon="-3.1887">
        <ele>85</ele>
        <time>2011-06-22T02:02:30Z</time>
      </trkpt>
      <trkpt lat="48.67536" lon="-3.18787">
        <ele>85</ele>
        <time>2011-06-22T02:02:38Z</time>
      </trkpt>
      <trkpt lat="48.6753" lon="-3.18725">
        <ele>84</ele>
        <time>2011-06-22T02:02:43Z</time>
      </trkpt>
      <trkpt lat="48.67531" lon="-3.18692">
        <ele>84</ele>
        <time>2011-06-22T02:02:46Z</time>
      </trkpt>
      <trkpt lat="48.67545" lon="-3.18609">
        <ele>84</ele>
        <time>2011-06-22T02:02:54Z</time>
      </trkpt>
      <trkpt lat="48.67544" lon="-3.18565">
        <ele>83</ele>
        <time>2011-06-22T02:02:57Z</time>
      </trkpt>
      <trkpt lat="48.67513" lon="-3.18451">
        <ele>83</ele>
        <time>2011-06-22T02:03:08Z</time>
      </trkpt>
      <trkpt lat="48.67497" lon="-3.18371">
        <ele>83</ele>
        <time>2011-06-22T02:03:17Z</time>
      </trkpt>
      <trkpt lat="48.67498" lon="-3.18309">
        <ele>84</ele>
        <time>2011-06-22T02:03:24Z</time>
      </trkpt>
      <trkpt lat="48.67492" lon="-3.18157">
        <ele>85</ele>
        <time>2011-06-22T02:03:39Z</time>
      </trkpt>
      <trkpt lat="48.67508" lon="-3.17949">
        <ele>84</ele>
        <time>2011-06-22T02:03:58Z</time>
      </trkpt>
      <trkpt lat="48.67509" lon="-3.17844">
        <ele>82</ele>
        <time>2011-06-22T02:04:07Z</time>
      </trkpt>
      <trkpt lat="48.67504" lon="-3.17807">
        <ele>82</ele>
        <time>2011-06-22T02:04:10Z</time>
      </trkpt>
      <trkpt lat="48.67497" lon="-3.17771">
        <ele>81</ele>
        <time>2011-06-22T02:04:14Z</time>
      </trkpt>
      <trkpt lat="48.67476" lon="-3.17721">
        <ele>81</ele>
        <time>2011-06-22T02:04:19Z</time>
      </trkpt>
      <trkpt lat="48.67438" lon="-3.17502">
        <ele>80</ele>
        <time>2011-06-22T02:04:39Z</time>
      </trkpt>
      <trkpt lat="48.6737" lon="-3.17217">
        <ele>72</ele>
        <time>2011-06-22T02:05:06Z</time>
      </trkpt>
      <trkpt lat="48.67354" lon="-3.17163">
        <ele>70</ele>
        <time>2011-06-22T02:05:11Z</time>
      </trkpt>
      <trkpt lat="48.67338" lon="-3.17122">
        <ele>69</ele>
        <time>2011-06-22T02:05:15Z</time>
      </trkpt>
      <trkpt lat="48.67323" lon="-3.17098">
        <ele>69</ele>
        <time>2011-06-22T02:05:18Z</time>
      </trkpt>
      <trkpt lat="48.67237" lon="-3.1701">
        <ele>63</ele>
        <time>2011-06-22T02:05:32Z</time>
      </trkpt>
      <trkpt lat="48.67209" lon="-3.16974">
        <ele>61</ele>
        <time>2011-06-22T02:05:37Z</time>
      </trkpt>
      <trkpt lat="48.67201" lon="-3.16958">
        <ele>60</ele>
        <time>2011-06-22T02:05:39Z</time>
      </trkpt>
      <trkpt lat="48.67198" lon="-3.16936">
        <ele>60</ele>
        <time>2011-06-22T02:05:41Z</time>
      </trkpt>
      <trkpt lat="48.67207" lon="-3.16901">
        <ele>59</ele>
        <time>2011-06-22T02:05:44Z</time>
      </trkpt>
      <trkpt lat="48.67239" lon="-3.16832">
        <ele>57</ele>
        <time>2011-06-22T02:05:51Z</time>
      </trkpt>
      <trkpt lat="48.67247" lon="-3.16781">
        <ele>57</ele>
        <time>2011-06-22T02:05:56Z</time>
      </trkpt>
      <trkpt lat="48.67252" lon="-3.16711">
        <ele>57</ele>
        <time>2011-06-22T02:06:02Z</time>
      </trkpt>
      <trkpt lat="48.67262" lon="-3.16669">
        <ele>57</ele>
        <time>2011-06-22T02:06:06Z</time>
      </trkpt>
      <trkpt lat="48.67306" lon="-3.16591">
        <ele>60</ele>
        <time>2011-06-22T02:06:24Z</time>
      </trkpt>
      <trkpt lat="48.67308" lon="-3.16567">
        <ele>61</ele>
        <time>2011-06-22T02:06:28Z</time>
      </trkpt>
      <trkpt lat="48.67303" lon="-3.16549">
        <ele>62</ele>
        <time>2011-06-22T02:06:32Z</time>
      </trkpt>
      <trkpt lat="48.67266" lon="-3.16469">
        <ele>66</ele>
        <time>2011-06-22T02:06:49Z</time>
      </trkpt>
      <trkpt lat="48.67256" lon="-3.16426">
        <ele>66</ele>
        <time>2011-06-22T02:06:55Z</time>
      </trkpt>
      <trkpt lat="48.67255" lon="-3.16268">
        <ele>70</ele>
        <time>2011-06-22T02:07:17Z</time>
      </trkpt>
      <trkpt lat="48.67269" lon="-3.16186">
        <ele>68</ele>
        <time>2011-06-22T02:07:24Z</time>
      </trkpt>
      <trkpt lat="48.6727" lon="-3.16155">
        <ele>68</ele>
        <time>2011-06-22T02:07:27Z</time>
      </trkpt>
      <trkpt lat="48.67266" lon="-3.16128">
        <ele>68</ele>
        <time>2011-06-22T02:07:29Z</time>
      </trkpt>
      <trkpt lat="48.67245" lon="-3.16079">
        <ele>68</ele>
        <time>2011-06-22T02:07:35Z</time>
      </trkpt>
      <trkpt lat="48.67169" lon="-3.15981">
        <ele>69</ele>
        <time>2011-06-22T02:07:50Z</time>
      </trkpt>
      <trkpt lat="48.67084" lon="-3.15834">
        <ele>62</ele>
        <time>2011-06-22T02:08:08Z</time>
      </trkpt>
      <trkpt lat="48.6705" lon="-3.15771">
        <ele>62</ele>
        <time>2011-06-22T02:08:17Z</time>
      </trkpt>
      <trkpt lat="48.67007" lon="-3.15667">
        <ele>64</ele>
        <time>2011-06-22T02:08:30Z</time>
      </trkpt>
      <trkpt lat="48.67003" lon="-3.15639">
        <ele>61</ele>
        <time>2011-06-22T02:08:33Z</time>
      </trkpt>
      <trkpt lat="48.67003" lon="-3.15603">
        <ele>58</ele>
        <time>2011-06-22T02:08:36Z</time>
      </trkpt>
      <trkpt lat="48.67018" lon="-3.15509">
        <ele>51</ele>
        <time>2011-06-22T02:08:45Z</time>
      </trkpt>
      <trkpt lat="48.67021" lon="-3.15458">
        <ele>48</ele>
        <time>2011-06-22T02:08:49Z</time>
      </trkpt>
      <trkpt lat="48.67022" lon="-3.15373">
        <ele>45</ele>
        <time>2011-06-22T02:08:57Z</time>
      </trkpt>
      <trkpt lat="48.67017" lon="-3.15312">
        <ele>40</ele>
        <time>2011-06-22T02:09:02Z</time>
      </trkpt>
      <trkpt lat="48.66997" lon="-3.15254">
        <ele>35</ele>
        <time>2011-06-22T02:09:08Z</time>
      </trkpt>
      <trkpt lat="48.66988" lon="-3.15237">
        <ele>34</ele>
        <time>2011-06-22T02:09:10Z</time>
      </trkpt>
      <trkpt lat="48.66974" lon="-3.15223">
        <ele>34</ele>
        <time>2011-06-22T02:09:12Z</time>
      </trkpt>
      <trkpt lat="48.66941" lon="-3.15212">
        <ele>34</ele>
        <time>2011-06-22T02:09:16Z</time>
      </trkpt>
      <trkpt lat="48.66913" lon="-3.15216">
        <ele>34</ele>
        <time>2011-06-22T02:09:20Z</time>
      </trkpt>
      <trkpt lat="48.66891" lon="-3.15211">
        <ele>34</ele>
        <time>2011-06-22T02:09:23Z</time>
      </trkpt>
      <trkpt lat="48.66876" lon="-3.15202">
        <ele>35</ele>
        <time>2011-06-22T02:09:29Z</time>
      </trkpt>
      <trkpt lat="48.66825" lon="-3.15153">
        <ele>40</ele>
        <time>2011-06-22T02:09:48Z</time>
      </trkpt>
      <trkpt lat="48.66805" lon="-3.15143">
        <ele>42</ele>
        <time>2011-06-22T02:09:55Z</time>
      </trkpt>
      <trkpt lat="48.66779" lon="-3.15136">
        <ele>43</ele>
        <time>2011-06-22T02:10:04Z</time>
      </trkpt>
      <trkpt lat="48.66698" lon="-3.15142">
        <ele>50</ele>
        <time>2011-06-22T02:10:29Z</time>
      </trkpt>
      <trkpt lat="48.66681" lon="-3.15137">
        <ele>50</ele>
        <time>2011-06-22T02:10:33Z</time>
      </trkpt>
      <trkpt lat="48.66656" lon="-3.15111">
        <ele>52</ele>
        <time>2011-06-22T02:10:40Z</time>
      </trkpt>
      <trkpt lat="48.6665" lon="-3.15092">
        <ele>52</ele>
        <time>2011-06-22T02:10:44Z</time>
      </trkpt>
      <trkpt lat="48.66638" lon="-3.14915">
        <ele>58</ele>
        <time>2011-06-22T02:11:12Z</time>
      </trkpt>
      <trkpt lat="48.66616" lon="-3.14787">
        <ele>58</ele>
        <time>2011-06-22T02:11:26Z</time>
      </trkpt>
      <trkpt lat="48.66606" lon="-3.14763">
        <ele>59</ele>
        <time>2011-06-22T02:11:29Z</time>
      </trkpt>
      <trkpt lat="48.66594" lon="-3.14751">
        <ele>59</ele>
        <time>2011-06-22T02:11:32Z</time>
      </trkpt>
      <trkpt lat="48.66525" lon="-3.14719">
        <ele>62</ele>
        <time>2011-06-22T02:11:48Z</time>
      </trkpt>
      <trkpt lat="48.66506" lon="-3.14705">
        <ele>63</ele>
        <time>2011-06-22T02:11:53Z</time>
      </trkpt>
      <trkpt lat="48.66407" lon="-3.14584">
        <ele>70</ele>
        <time>2011-06-22T02:12:26Z</time>
      </trkpt>
      <trkpt lat="48.66387" lon="-3.14539">
        <ele>71</ele>
        <time>2011-06-22T02:12:35Z</time>
      </trkpt>
      <trkpt lat="48.6638" lon="-3.14493">
        <ele>72</ele>
        <time>2011-06-22T02:12:43Z</time>
      </trkpt>
      <trkpt lat="48.66377" lon="-3.14423">
        <ele>75</ele>
        <time>2011-06-22T02:12:54Z</time>
      </trkpt>
      <trkpt lat="48.66369" lon="-3.14363">
        <ele>75</ele>
        <time>2011-06-22T02:13:00Z</time>
      </trkpt>
      <trkpt lat="48.66351" lon="-3.14277">
        <ele>76</ele>
        <time>2011-06-22T02:13:09Z</time>
      </trkpt>
      <trkpt lat="48.66348" lon="-3.1415">
        <ele>74</ele>
        <time>2011-06-22T02:13:21Z</time>
      </trkpt>
      <trkpt lat="48.6634" lon="-3.14121">
        <ele>74</ele>
        <time>2011-06-22T02:13:23Z</time>
      </trkpt>
      <trkpt lat="48.66294" lon="-3.14022">
        <ele>76</ele>
        <time>2011-06-22T02:13:40Z</time>
      </trkpt>
      <trkpt lat="48.6629" lon="-3.14002">
        <ele>77</ele>
        <time>2011-06-22T02:13:43Z</time>
      </trkpt>
      <trkpt lat="48.663" lon="-3.13949">
        <ele>77</ele>
        <time>2011-06-22T02:13:48Z</time>
      </trkpt>
      <trkpt lat="48.66367" lon="-3.13703">
        <ele>77</ele>
        <time>2011-06-22T02:14:11Z</time>
      </trkpt>
      <trkpt lat="48.66388" lon="-3.13608">
        <ele>78</ele>
        <time>2011-06-22T02:14:25Z</time>
      </trkpt>
      <trkpt lat="48.66383" lon="-3.13437">
        <ele>82</ele>
        <time>2011-06-22T02:14:47Z</time>
      </trkpt>
      <trkpt lat="48.66383" lon="-3.13437">
        <ele>82</ele>
        <time>2011-06-22T02:14:48Z</time>
      </trkpt>
      <trkpt lat="48.66388" lon="-3.1337">
        <ele>82</ele>
        <time>2011-06-22T02:14:54Z</time>
      </trkpt>
      <trkpt lat="48.66399" lon="-3.13313">
        <ele>82</ele>
        <time>2011-06-22T02:15:00Z</time>
      </trkpt>
      <trkpt lat="48.66433" lon="-3.13303">
        <ele>82</ele>
        <time>2011-06-22T02:15:04Z</time>
      </trkpt>
      <trkpt lat="48.66405" lon="-3.13139">
        <ele>86</ele>
        <time>2011-06-22T02:15:29Z</time>
      </trkpt>
      <trkpt lat="48.66395" lon="-3.13097">
        <ele>86</ele>
        <time>2011-06-22T02:15:33Z</time>
      </trkpt>
      <trkpt lat="48.66373" lon="-3.13039">
        <ele>86</ele>
        <time>2011-06-22T02:15:40Z</time>
      </trkpt>
      <trkpt lat="48.66292" lon="-3.12907">
        <ele>88</ele>
        <time>2011-06-22T02:15:59Z</time>
      </trkpt>
      <trkpt lat="48.66194" lon="-3.1273">
        <ele>90</ele>
        <time>2011-06-22T02:16:24Z</time>
      </trkpt>
      <trkpt lat="48.66159" lon="-3.12655">
        <ele>90</ele>
        <time>2011-06-22T02:16:34Z</time>
      </trkpt>
      <trkpt lat="48.66089" lon="-3.12534">
        <ele>92</ele>
        <time>2011-06-22T02:16:52Z</time>
      </trkpt>
      <trkpt lat="48.66042" lon="-3.12443">
        <ele>91</ele>
        <time>2011-06-22T02:17:02Z</time>
      </trkpt>
      <trkpt lat="48.66018" lon="-3.1237">
        <ele>91</ele>
        <time>2011-06-22T02:17:09Z</time>
      </trkpt>
      <trkpt lat="48.65999" lon="-3.12287">
        <ele>90</ele>
        <time>2011-06-22T02:17:17Z</time>
      </trkpt>
      <trkpt lat="48.65977" lon="-3.12127">
        <ele>90</ele>
        <time>2011-06-22T02:17:31Z</time>
      </trkpt>
      <trkpt lat="48.65971" lon="-3.12102">
        <ele>90</ele>
        <time>2011-06-22T02:17:34Z</time>
      </trkpt>
      <trkpt lat="48.65948" lon="-3.12039">
        <ele>90</ele>
        <time>2011-06-22T02:17:41Z</time>
      </trkpt>
      <trkpt lat="48.6592" lon="-3.11909">
        <ele>91</ele>
        <time>2011-06-22T02:17:54Z</time>
      </trkpt>
      <trkpt lat="48.65876" lon="-3.11808">
        <ele>91</ele>
        <time>2011-06-22T02:18:07Z</time>
      </trkpt>
      <trkpt lat="48.65863" lon="-3.11765">
        <ele>92</ele>
        <time>2011-06-22T02:18:11Z</time>
      </trkpt>
      <trkpt lat="48.65863" lon="-3.11765">
        <ele>92</ele>
        <time>2011-06-22T02:18:12Z</time>
      </trkpt>
      <trkpt lat="48.65819" lon="-3.11633">
        <ele>93</ele>
        <time>2011-06-22T02:18:28Z</time>
      </trkpt>
      <trkpt lat="48.65803" lon="-3.11579">
        <ele>92</ele>
        <time>2011-06-22T02:18:33Z</time>
      </trkpt>
      <trkpt lat="48.658" lon="-3.11544">
        <ele>91</ele>
        <time>2011-06-22T02:18:36Z</time>
      </trkpt>
      <trkpt lat="48.65805" lon="-3.11521">
        <ele>91</ele>
        <time>2011-06-22T02:18:38Z</time>
      </trkpt>
      <trkpt lat="48.65834" lon="-3.11439">
        <ele>90</ele>
        <time>2011-06-22T02:18:47Z</time>
      </trkpt>
      <trkpt lat="48.6584" lon="-3.11409">
        <ele>90</ele>
        <time>2011-06-22T02:18:49Z</time>
      </trkpt>
      <trkpt lat="48.65846" lon="-3.11366">
        <ele>90</ele>
        <time>2011-06-22T02:18:53Z</time>
      </trkpt>
      <trkpt lat="48.65847" lon="-3.1129">
        <ele>90</ele>
        <time>2011-06-22T02:19:00Z</time>
      </trkpt>
      <trkpt lat="48.65838" lon="-3.11226">
        <ele>90</ele>
        <time>2011-06-22T02:19:08Z</time>
      </trkpt>
      <trkpt lat="48.65817" lon="-3.1113">
        <ele>92</ele>
        <time>2011-06-22T02:19:19Z</time>
      </trkpt>
      <trkpt lat="48.65802" lon="-3.11069">
        <ele>92</ele>
        <time>2011-06-22T02:19:25Z</time>
      </trkpt>
      <trkpt lat="48.65779" lon="-3.11">
        <ele>92</ele>
        <time>2011-06-22T02:19:32Z</time>
      </trkpt>
      <trkpt lat="48.65755" lon="-3.10999">
        <ele>92</ele>
        <time>2011-06-22T02:19:36Z</time>
      </trkpt>
      <trkpt lat="48.65743" lon="-3.11008">
        <ele>92</ele>
        <time>2011-06-22T02:19:38Z</time>
      </trkpt>
      <trkpt lat="48.65667" lon="-3.11089">
        <ele>94</ele>
        <time>2011-06-22T02:19:54Z</time>
      </trkpt>
      <trkpt lat="48.65626" lon="-3.11159">
        <ele>94</ele>
        <time>2011-06-22T02:20:03Z</time>
      </trkpt>
      <trkpt lat="48.6562" lon="-3.11165">
        <ele>94</ele>
        <time>2011-06-22T02:20:03Z</time>
      </trkpt>
      <trkpt lat="48.65602" lon="-3.11167">
        <ele>94</ele>
        <time>2011-06-22T02:20:06Z</time>
      </trkpt>
      <trkpt lat="48.6558" lon="-3.11153">
        <ele>94</ele>
        <time>2011-06-22T02:20:09Z</time>
      </trkpt>
      <trkpt lat="48.65527" lon="-3.11077">
        <ele>95</ele>
        <time>2011-06-22T02:20:23Z</time>
      </trkpt>
      <trkpt lat="48.65482" lon="-3.10996">
        <ele>97</ele>
        <time>2011-06-22T02:20:35Z</time>
      </trkpt>
      <trkpt lat="48.65425" lon="-3.1091">
        <ele>97</ele>
        <time>2011-06-22T02:20:46Z</time>
      </trkpt>
      <trkpt lat="48.65406" lon="-3.10872">
        <ele>97</ele>
        <time>2011-06-22T02:20:50Z</time>
      </trkpt>
      <trkpt lat="48.6536" lon="-3.10743">
        <ele>97</ele>
        <time>2011-06-22T02:21:03Z</time>
      </trkpt>
      <trkpt lat="48.65337" lon="-3.10691">
        <ele>97</ele>
        <time>2011-06-22T02:21:09Z</time>
      </trkpt>
      <trkpt lat="48.65306" lon="-3.10641">
        <ele>97</ele>
        <time>2011-06-22T02:21:15Z</time>
      </trkpt>
      <trkpt lat="48.65298" lon="-3.10635">
        <ele>97</ele>
        <time>2011-06-22T02:21:16Z</time>
      </trkpt>
      <trkpt lat="48.65288" lon="-3.10635">
        <ele>96</ele>
        <time>2011-06-22T02:21:17Z</time>
      </trkpt>
      <trkpt lat="48.65251" lon="-3.10645">
        <ele>96</ele>
        <time>2011-06-22T02:21:22Z</time>
      </trkpt>
      <trkpt lat="48.65236" lon="-3.10592">
        <ele>96</ele>
        <time>2011-06-22T02:21:27Z</time>
      </trkpt>
      <trkpt lat="48.65236" lon="-3.10592">
        <ele>96</ele>
        <time>2011-06-22T02:21:28Z</time>
      </trkpt>
      <trkpt lat="48.65182" lon="-3.10414">
        <ele>97</ele>
        <time>2011-06-22T02:21:48Z</time>
      </trkpt>
      <trkpt lat="48.65158" lon="-3.10372">
        <ele>96</ele>
        <time>2011-06-22T02:21:53Z</time>
      </trkpt>
      <trkpt lat="48.65142" lon="-3.10352">
        <ele>96</ele>
        <time>2011-06-22T02:21:56Z</time>
      </trkpt>
      <trkpt lat="48.65137" lon="-3.10243">
        <ele>96</ele>
        <time>2011-06-22T02:22:05Z</time>
      </trkpt>
      <trkpt lat="48.65141" lon="-3.102">
        <ele>95</ele>
        <time>2011-06-22T02:22:09Z</time>
      </trkpt>
      <trkpt lat="48.65159" lon="-3.10116">
        <ele>94</ele>
        <time>2011-06-22T02:22:17Z</time>
      </trkpt>
      <trkpt lat="48.65166" lon="-3.10063">
        <ele>94</ele>
        <time>2011-06-22T02:22:22Z</time>
      </trkpt>
      <trkpt lat="48.65166" lon="-3.09908">
        <ele>95</ele>
        <time>2011-06-22T02:22:38Z</time>
      </trkpt>
      <trkpt lat="48.65164" lon="-3.09863">
        <ele>94</ele>
        <time>2011-06-22T02:22:42Z</time>
      </trkpt>
      <trkpt lat="48.65156" lon="-3.09806">
        <ele>94</ele>
        <time>2011-06-22T02:22:47Z</time>
      </trkpt>
      <trkpt lat="48.65113" lon="-3.09605">
        <ele>93</ele>
        <time>2011-06-22T02:23:06Z</time>
      </trkpt>
      <trkpt lat="48.65103" lon="-3.09514">
        <ele>93</ele>
        <time>2011-06-22T02:23:14Z</time>
      </trkpt>
      <trkpt lat="48.65101" lon="-3.09399">
        <ele>93</ele>
        <time>2011-06-22T02:23:24Z</time>
      </trkpt>
      <trkpt lat="48.65107" lon="-3.09156">
        <ele>94</ele>
        <time>2011-06-22T02:23:48Z</time>
      </trkpt>
      <trkpt lat="48.65058" lon="-3.09123">
        <ele>93</ele>
        <time>2011-06-22T02:23:55Z</time>
      </trkpt>
      <trkpt lat="48.65038" lon="-3.09099">
        <ele>93</ele>
        <time>2011-06-22T02:23:58Z</time>
      </trkpt>
      <trkpt lat="48.65029" lon="-3.09073">
        <ele>93</ele>
        <time>2011-06-22T02:24:01Z</time>
      </trkpt>
      <trkpt lat="48.65022" lon="-3.09033">
        <ele>92</ele>
        <time>2011-06-22T02:24:05Z</time>
      </trkpt>
      <trkpt lat="48.65017" lon="-3.08962">
        <ele>91</ele>
        <time>2011-06-22T02:24:11Z</time>
      </trkpt>
      <trkpt lat="48.64985" lon="-3.08902">
        <ele>91</ele>
        <time>2011-06-22T02:24:18Z</time>
      </trkpt>
      <trkpt lat="48.64978" lon="-3.08877">
        <ele>90</ele>
        <time>2011-06-22T02:24:20Z</time>
      </trkpt>
      <trkpt lat="48.64977" lon="-3.08845">
        <ele>89</ele>
        <time>2011-06-22T02:24:23Z</time>
      </trkpt>
      <trkpt lat="48.64992" lon="-3.08746">
        <ele>87</ele>
        <time>2011-06-22T02:24:32Z</time>
      </trkpt>
      <trkpt lat="48.64995" lon="-3.08706">
        <ele>86</ele>
        <time>2011-06-22T02:24:36Z</time>
      </trkpt>
      <trkpt lat="48.64923" lon="-3.08641">
        <ele>85</ele>
        <time>2011-06-22T02:24:47Z</time>
      </trkpt>
      <trkpt lat="48.64917" lon="-3.08625">
        <ele>84</ele>
        <time>2011-06-22T02:24:48Z</time>
      </trkpt>
      <trkpt lat="48.64912" lon="-3.08479">
        <ele>84</ele>
        <time>2011-06-22T02:25:01Z</time>
      </trkpt>
      <trkpt lat="48.64908" lon="-3.08468">
        <ele>84</ele>
        <time>2011-06-22T02:25:02Z</time>
      </trkpt>
      <trkpt lat="48.64847" lon="-3.08451">
        <ele>84</ele>
        <time>2011-06-22T02:25:11Z</time>
      </trkpt>
      <trkpt lat="48.64758" lon="-3.08439">
        <ele>84</ele>
        <time>2011-06-22T02:25:23Z</time>
      </trkpt>
      <trkpt lat="48.64743" lon="-3.08381">
        <ele>83</ele>
        <time>2011-06-22T02:25:28Z</time>
      </trkpt>
      <trkpt lat="48.64741" lon="-3.08359">
        <ele>83</ele>
        <time>2011-06-22T02:25:30Z</time>
      </trkpt>
      <trkpt lat="48.64744" lon="-3.08319">
        <ele>82</ele>
        <time>2011-06-22T02:25:34Z</time>
      </trkpt>
      <trkpt lat="48.64752" lon="-3.08275">
        <ele>82</ele>
        <time>2011-06-22T02:25:38Z</time>
      </trkpt>
      <trkpt lat="48.64766" lon="-3.08222">
        <ele>80</ele>
        <time>2011-06-22T02:25:43Z</time>
      </trkpt>
      <trkpt lat="48.64787" lon="-3.08164">
        <ele>78</ele>
        <time>2011-06-22T02:25:49Z</time>
      </trkpt>
      <trkpt lat="48.64873" lon="-3.07974">
        <ele>72</ele>
        <time>2011-06-22T02:26:09Z</time>
      </trkpt>
      <trkpt lat="48.64843" lon="-3.07918">
        <ele>72</ele>
        <time>2011-06-22T02:26:16Z</time>
      </trkpt>
      <trkpt lat="48.64785" lon="-3.07842">
        <ele>73</ele>
        <time>2011-06-22T02:26:28Z</time>
      </trkpt>
      <trkpt lat="48.64717" lon="-3.07832">
        <ele>75</ele>
        <time>2011-06-22T02:26:42Z</time>
      </trkpt>
      <trkpt lat="48.64659" lon="-3.07817">
        <ele>77</ele>
        <time>2011-06-22T02:26:54Z</time>
      </trkpt>
      <trkpt lat="48.64624" lon="-3.07799">
        <ele>76</ele>
        <time>2011-06-22T02:26:59Z</time>
      </trkpt>
      <trkpt lat="48.64657" lon="-3.07692">
        <ele>75</ele>
        <time>2011-06-22T02:27:10Z</time>
      </trkpt>
      <trkpt lat="48.6466" lon="-3.07665">
        <ele>75</ele>
        <time>2011-06-22T02:27:12Z</time>
      </trkpt>
      <trkpt lat="48.64647" lon="-3.07539">
        <ele>75</ele>
        <time>2011-06-22T02:27:23Z</time>
      </trkpt>
      <trkpt lat="48.64648" lon="-3.07493">
        <ele>75</ele>
        <time>2011-06-22T02:27:28Z</time>
      </trkpt>
      <trkpt lat="48.64664" lon="-3.0743">
        <ele>75</ele>
        <time>2011-06-22T02:27:35Z</time>
      </trkpt>
      <trkpt lat="48.64678" lon="-3.07392">
        <ele>75</ele>
        <time>2011-06-22T02:27:39Z</time>
      </trkpt>
      <trkpt lat="48.64682" lon="-3.07358">
        <ele>76</ele>
        <time>2011-06-22T02:27:43Z</time>
      </trkpt>
      <trkpt lat="48.64684" lon="-3.07082">
        <ele>79</ele>
        <time>2011-06-22T02:28:14Z</time>
      </trkpt>
      <trkpt lat="48.64694" lon="-3.07006">
        <ele>79</ele>
        <time>2011-06-22T02:28:21Z</time>
      </trkpt>
      <trkpt lat="48.6468" lon="-3.06957">
        <ele>79</ele>
        <time>2011-06-22T02:28:26Z</time>
      </trkpt>
      <trkpt lat="48.64673" lon="-3.06892">
        <ele>79</ele>
        <time>2011-06-22T02:28:32Z</time>
      </trkpt>
      <trkpt lat="48.64619" lon="-3.0685">
        <ele>79</ele>
        <time>2011-06-22T02:28:40Z</time>
      </trkpt>
      <trkpt lat="48.64551" lon="-3.06814">
        <ele>79</ele>
        <time>2011-06-22T02:28:49Z</time>
      </trkpt>
      <trkpt lat="48.64533" lon="-3.068">
        <ele>78</ele>
        <time>2011-06-22T02:28:52Z</time>
      </trkpt>
      <trkpt lat="48.6451" lon="-3.06771">
        <ele>78</ele>
        <time>2011-06-22T02:28:56Z</time>
      </trkpt>
      <trkpt lat="48.64502" lon="-3.06721">
        <ele>78</ele>
        <time>2011-06-22T02:29:01Z</time>
      </trkpt>
      <trkpt lat="48.64501" lon="-3.06681">
        <ele>78</ele>
        <time>2011-06-22T02:29:04Z</time>
      </trkpt>
      <trkpt lat="48.6451" lon="-3.06591">
        <ele>75</ele>
        <time>2011-06-22T02:29:12Z</time>
      </trkpt>
      <trkpt lat="48.64511" lon="-3.06503">
        <ele>74</ele>
        <time>2011-06-22T02:29:20Z</time>
      </trkpt>
      <trkpt lat="48.64503" lon="-3.06486">
        <ele>74</ele>
        <time>2011-06-22T02:29:23Z</time>
      </trkpt>
      <trkpt lat="48.64483" lon="-3.06466">
        <ele>75</ele>
        <time>2011-06-22T02:29:28Z</time>
      </trkpt>
      <trkpt lat="48.64463" lon="-3.06404">
        <ele>76</ele>
        <time>2011-06-22T02:29:38Z</time>
      </trkpt>
      <trkpt lat="48.64415" lon="-3.06322">
        <ele>79</ele>
        <time>2011-06-22T02:29:53Z</time>
      </trkpt>
      <trkpt lat="48.64416" lon="-3.06244">
        <ele>79</ele>
        <time>2011-06-22T02:30:02Z</time>
      </trkpt>
      <trkpt lat="48.64388" lon="-3.06199">
        <ele>80</ele>
        <time>2011-06-22T02:30:09Z</time>
      </trkpt>
      <trkpt lat="48.64387" lon="-3.06171">
        <ele>81</ele>
        <time>2011-06-22T02:30:12Z</time>
      </trkpt>
      <trkpt lat="48.64378" lon="-3.06139">
        <ele>81</ele>
        <time>2011-06-22T02:30:17Z</time>
      </trkpt>
      <trkpt lat="48.64354" lon="-3.06105">
        <ele>82</ele>
        <time>2011-06-22T02:30:23Z</time>
      </trkpt>
      <trkpt lat="48.64373" lon="-3.05927">
        <ele>85</ele>
        <time>2011-06-22T02:30:45Z</time>
      </trkpt>
      <trkpt lat="48.64385" lon="-3.05894">
        <ele>84</ele>
        <time>2011-06-22T02:30:49Z</time>
      </trkpt>
      <trkpt lat="48.64408" lon="-3.05854">
        <ele>83</ele>
        <time>2011-06-22T02:30:53Z</time>
      </trkpt>
      <trkpt lat="48.64424" lon="-3.05813">
        <ele>83</ele>
        <time>2011-06-22T02:30:58Z</time>
      </trkpt>
      <trkpt lat="48.64384" lon="-3.05727">
        <ele>83</ele>
        <time>2011-06-22T02:31:08Z</time>
      </trkpt>
      <trkpt lat="48.64381" lon="-3.05669">
        <ele>84</ele>
        <time>2011-06-22T02:31:14Z</time>
      </trkpt>
      <trkpt lat="48.64299" lon="-3.05551">
        <ele>85</ele>
        <time>2011-06-22T02:31:32Z</time>
      </trkpt>
      <trkpt lat="48.64276" lon="-3.05504">
        <ele>85</ele>
        <time>2011-06-22T02:31:37Z</time>
      </trkpt>
      <trkpt lat="48.64276" lon="-3.05504">
        <ele>85</ele>
        <time>2011-06-22T02:31:38Z</time>
      </trkpt>
      <trkpt lat="48.64225" lon="-3.05359">
        <ele>83</ele>
        <time>2011-06-22T02:31:53Z</time>
      </trkpt>
      <trkpt lat="48.64205" lon="-3.05341">
        <ele>83</ele>
        <time>2011-06-22T02:31:56Z</time>
      </trkpt>
      <trkpt lat="48.64107" lon="-3.05223">
        <ele>84</ele>
        <time>2011-06-22T02:32:15Z</time>
      </trkpt>
      <trkpt lat="48.6405" lon="-3.05122">
        <ele>83</ele>
        <time>2011-06-22T02:32:27Z</time>
      </trkpt>
      <trkpt lat="48.63974" lon="-3.0502">
        <ele>82</ele>
        <time>2011-06-22T02:32:40Z</time>
      </trkpt>
      <trkpt lat="48.64016" lon="-3.04955">
        <ele>82</ele>
        <time>2011-06-22T02:32:48Z</time>
      </trkpt>
      <trkpt lat="48.64016" lon="-3.04955">
        <ele>82</ele>
        <time>2011-06-22T02:32:49Z</time>
      </trkpt>
      <trkpt lat="48.64047" lon="-3.04909">
        <ele>81</ele>
        <time>2011-06-22T02:32:55Z</time>
      </trkpt>
      <trkpt lat="48.64058" lon="-3.04903">
        <ele>81</ele>
        <time>2011-06-22T02:32:56Z</time>
      </trkpt>
      <trkpt lat="48.6408" lon="-3.04904">
        <ele>80</ele>
        <time>2011-06-22T02:32:59Z</time>
      </trkpt>
      <trkpt lat="48.64114" lon="-3.04914">
        <ele>80</ele>
        <time>2011-06-22T02:33:04Z</time>
      </trkpt>
      <trkpt lat="48.64189" lon="-3.04947">
        <ele>78</ele>
        <time>2011-06-22T02:33:14Z</time>
      </trkpt>
      <trkpt lat="48.64212" lon="-3.04882">
        <ele>78</ele>
        <time>2011-06-22T02:33:21Z</time>
      </trkpt>
      <trkpt lat="48.64226" lon="-3.04866">
        <ele>77</ele>
        <time>2011-06-22T02:33:23Z</time>
      </trkpt>
      <trkpt lat="48.64263" lon="-3.04855">
        <ele>77</ele>
        <time>2011-06-22T02:33:28Z</time>
      </trkpt>
      <trkpt lat="48.64292" lon="-3.0483">
        <ele>77</ele>
        <time>2011-06-22T02:33:33Z</time>
      </trkpt>
      <trkpt lat="48.64344" lon="-3.04808">
        <ele>77</ele>
        <time>2011-06-22T02:33:40Z</time>
      </trkpt>
      <trkpt lat="48.64355" lon="-3.04799">
        <ele>77</ele>
        <time>2011-06-22T02:33:42Z</time>
      </trkpt>
      <trkpt lat="48.64389" lon="-3.04744">
        <ele>77</ele>
        <time>2011-06-22T02:33:48Z</time>
      </trkpt>
      <trkpt lat="48.64399" lon="-3.04738">
        <ele>77</ele>
        <time>2011-06-22T02:33:50Z</time>
      </trkpt>
      <trkpt lat="48.64414" lon="-3.04743">
        <ele>77</ele>
        <time>2011-06-22T02:33:52Z</time>
      </trkpt>
      <trkpt lat="48.64403" lon="-3.04553">
        <ele>77</ele>
        <time>2011-06-22T02:34:09Z</time>
      </trkpt>
      <trkpt lat="48.64403" lon="-3.04249">
        <ele>66</ele>
        <time>2011-06-22T02:34:36Z</time>
      </trkpt>
      <trkpt lat="48.64409" lon="-3.04117">
        <ele>61</ele>
        <time>2011-06-22T02:34:47Z</time>
      </trkpt>
      <trkpt lat="48.64414" lon="-3.04072">
        <ele>60</ele>
        <time>2011-06-22T02:34:51Z</time>
      </trkpt>
      <trkpt lat="48.64429" lon="-3.04008">
        <ele>57</ele>
        <time>2011-06-22T02:34:57Z</time>
      </trkpt>
      <trkpt lat="48.64449" lon="-3.03968">
        <ele>54</ele>
        <time>2011-06-22T02:35:02Z</time>
      </trkpt>
      <trkpt lat="48.6448" lon="-3.03924">
        <ele>52</ele>
        <time>2011-06-22T02:35:07Z</time>
      </trkpt>
      <trkpt lat="48.64517" lon="-3.03884">
        <ele>50</ele>
        <time>2011-06-22T02:35:13Z</time>
      </trkpt>
      <trkpt lat="48.64551" lon="-3.03832">
        <ele>49</ele>
        <time>2011-06-22T02:35:20Z</time>
      </trkpt>
      <trkpt lat="48.64565" lon="-3.0382">
        <ele>48</ele>
        <time>2011-06-22T02:35:22Z</time>
      </trkpt>
      <trkpt lat="48.64602" lon="-3.03794">
        <ele>48</ele>
        <time>2011-06-22T02:35:27Z</time>
      </trkpt>
      <trkpt lat="48.64677" lon="-3.03758">
        <ele>47</ele>
        <time>2011-06-22T02:35:38Z</time>
      </trkpt>
      <trkpt lat="48.64741" lon="-3.03706">
        <ele>44</ele>
        <time>2011-06-22T02:35:48Z</time>
      </trkpt>
      <trkpt lat="48.64815" lon="-3.03671">
        <ele>42</ele>
        <time>2011-06-22T02:35:58Z</time>
      </trkpt>
      <trkpt lat="48.64873" lon="-3.03656">
        <ele>37</ele>
        <time>2011-06-22T02:36:06Z</time>
      </trkpt>
      <trkpt lat="48.64899" lon="-3.0364">
        <ele>35</ele>
        <time>2011-06-22T02:36:10Z</time>
      </trkpt>
      <trkpt lat="48.64934" lon="-3.036">
        <ele>32</ele>
        <time>2011-06-22T02:36:15Z</time>
      </trkpt>
      <trkpt lat="48.64963" lon="-3.03553">
        <ele>32</ele>
        <time>2011-06-22T02:36:23Z</time>
      </trkpt>
      <trkpt lat="48.64999" lon="-3.03457">
        <ele>34</ele>
        <time>2011-06-22T02:36:36Z</time>
      </trkpt>
      <trkpt lat="48.65022" lon="-3.03423">
        <ele>34</ele>
        <time>2011-06-22T02:36:42Z</time>
      </trkpt>
      <trkpt lat="48.6507" lon="-3.03461">
        <ele>36</ele>
        <time>2011-06-22T02:36:53Z</time>
      </trkpt>
      <trkpt lat="48.65092" lon="-3.03471">
        <ele>37</ele>
        <time>2011-06-22T02:36:57Z</time>
      </trkpt>
      <trkpt lat="48.65125" lon="-3.03483">
        <ele>38</ele>
        <time>2011-06-22T02:37:04Z</time>
      </trkpt>
      <trkpt lat="48.65191" lon="-3.0349">
        <ele>40</ele>
        <time>2011-06-22T02:37:18Z</time>
      </trkpt>
      <trkpt lat="48.65191" lon="-3.0349">
        <ele>40</ele>
        <time>2011-06-22T02:37:19Z</time>
      </trkpt>
      <trkpt lat="48.65212" lon="-3.0349">
        <ele>40</ele>
        <time>2011-06-22T02:37:23Z</time>
      </trkpt>
      <trkpt lat="48.65185" lon="-3.03453">
        <ele>41</ele>
        <time>2011-06-22T02:37:30Z</time>
      </trkpt>
      <trkpt lat="48.65156" lon="-3.03397">
        <ele>42</ele>
        <time>2011-06-22T02:37:38Z</time>
      </trkpt>
      <trkpt lat="48.65114" lon="-3.0329">
        <ele>44</ele>
        <time>2011-06-22T02:37:54Z</time>
      </trkpt>
      <trkpt lat="48.65087" lon="-3.03186">
        <ele>43</ele>
        <time>2011-06-22T02:38:03Z</time>
      </trkpt>
      <trkpt lat="48.65089" lon="-3.03143">
        <ele>43</ele>
        <time>2011-06-22T02:38:07Z</time>
      </trkpt>
      <trkpt lat="48.65103" lon="-3.03107">
        <ele>45</ele>
        <time>2011-06-22T02:38:17Z</time>
      </trkpt>
      <trkpt lat="48.65146" lon="-3.03037">
        <ele>51</ele>
        <time>2011-06-22T02:38:39Z</time>
      </trkpt>
      <trkpt lat="48.65153" lon="-3.03015">
        <ele>51</ele>
        <time>2011-06-22T02:38:42Z</time>
      </trkpt>
      <trkpt lat="48.65161" lon="-3.0292">
        <ele>52</ele>
        <time>2011-06-22T02:38:53Z</time>
      </trkpt>
      <trkpt lat="48.65164" lon="-3.02815">
        <ele>54</ele>
        <time>2011-06-22T02:39:06Z</time>
      </trkpt>
      <trkpt lat="48.65169" lon="-3.02776">
        <ele>56</ele>
        <time>2011-06-22T02:39:15Z</time>
      </trkpt>
      <trkpt lat="48.65183" lon="-3.02741">
        <ele>58</ele>
        <time>2011-06-22T02:39:24Z</time>
      </trkpt>
      <trkpt lat="48.65217" lon="-3.02681">
        <ele>63</ele>
        <time>2011-06-22T02:39:41Z</time>
      </trkpt>
      <trkpt lat="48.65223" lon="-3.02662">
        <ele>63</ele>
        <time>2011-06-22T02:39:44Z</time>
      </trkpt>
      <trkpt lat="48.65229" lon="-3.02635">
        <ele>64</ele>
        <time>2011-06-22T02:39:49Z</time>
      </trkpt>
      <trkpt lat="48.65235" lon="-3.02523">
        <ele>67</ele>
        <time>2011-06-22T02:40:05Z</time>
      </trkpt>
      <trkpt lat="48.6525" lon="-3.02447">
        <ele>68</ele>
        <time>2011-06-22T02:40:16Z</time>
      </trkpt>
      <trkpt lat="48.65268" lon="-3.02385">
        <ele>70</ele>
        <time>2011-06-22T02:40:25Z</time>
      </trkpt>
      <trkpt lat="48.65289" lon="-3.0235">
        <ele>70</ele>
        <time>2011-06-22T02:40:32Z</time>
      </trkpt>
      <trkpt lat="48.6532" lon="-3.02335">
        <ele>72</ele>
        <time>2011-06-22T02:40:39Z</time>
      </trkpt>
      <trkpt lat="48.65414" lon="-3.02342">
        <ele>75</ele>
        <time>2011-06-22T02:40:59Z</time>
      </trkpt>
      <trkpt lat="48.65617" lon="-3.01964">
        <ele>84</ele>
        <time>2011-06-22T02:42:03Z</time>
      </trkpt>
      <trkpt lat="48.65614" lon="-3.01955">
        <ele>83</ele>
        <time>2011-06-22T02:42:04Z</time>
      </trkpt>
      <trkpt lat="48.65615" lon="-3.01938">
        <ele>83</ele>
        <time>2011-06-22T02:42:06Z</time>
      </trkpt>
      <trkpt lat="48.65626" lon="-3.01923">
        <ele>83</ele>
        <time>2011-06-22T02:42:07Z</time>
      </trkpt>
      <trkpt lat="48.65634" lon="-3.01923">
        <ele>83</ele>
        <time>2011-06-22T02:42:09Z</time>
      </trkpt>
      <trkpt lat="48.65656" lon="-3.0187">
        <ele>82</ele>
        <time>2011-06-22T02:42:14Z</time>
      </trkpt>
      <trkpt lat="48.65687" lon="-3.0181">
        <ele>82</ele>
        <time>2011-06-22T02:42:21Z</time>
      </trkpt>
      <trkpt lat="48.65684" lon="-3.01788">
        <ele>82</ele>
        <time>2011-06-22T02:42:23Z</time>
      </trkpt>
      <trkpt lat="48.65689" lon="-3.01776">
        <ele>82</ele>
        <time>2011-06-22T02:42:24Z</time>
      </trkpt>
      <trkpt lat="48.65704" lon="-3.01768">
        <ele>82</ele>
        <time>2011-06-22T02:42:26Z</time>
      </trkpt>
      <trkpt lat="48.65739" lon="-3.01694">
        <ele>82</ele>
        <time>2011-06-22T02:42:34Z</time>
      </trkpt>
      <trkpt lat="48.65771" lon="-3.01638">
        <ele>82</ele>
        <time>2011-06-22T02:42:41Z</time>
      </trkpt>
      <trkpt lat="48.65789" lon="-3.01588">
        <ele>82</ele>
        <time>2011-06-22T02:42:46Z</time>
      </trkpt>
      <trkpt lat="48.65817" lon="-3.01462">
        <ele>82</ele>
        <time>2011-06-22T02:42:57Z</time>
      </trkpt>
      <trkpt lat="48.65832" lon="-3.0142">
        <ele>81</ele>
        <time>2011-06-22T02:43:02Z</time>
      </trkpt>
      <trkpt lat="48.65826" lon="-3.01376">
        <ele>80</ele>
        <time>2011-06-22T02:43:06Z</time>
      </trkpt>
      <trkpt lat="48.65831" lon="-3.01332">
        <ele>80</ele>
        <time>2011-06-22T02:43:10Z</time>
      </trkpt>
      <trkpt lat="48.65866" lon="-3.01249">
        <ele>79</ele>
        <time>2011-06-22T02:43:18Z</time>
      </trkpt>
      <trkpt lat="48.65866" lon="-3.01249">
        <ele>79</ele>
        <time>2011-06-22T02:43:19Z</time>
      </trkpt>
      <trkpt lat="48.65882" lon="-3.01203">
        <ele>78</ele>
        <time>2011-06-22T02:43:24Z</time>
      </trkpt>
      <trkpt lat="48.65885" lon="-3.01159">
        <ele>77</ele>
        <time>2011-06-22T02:43:28Z</time>
      </trkpt>
      <trkpt lat="48.65882" lon="-3.0113">
        <ele>77</ele>
        <time>2011-06-22T02:43:30Z</time>
      </trkpt>
      <trkpt lat="48.65851" lon="-3.01037">
        <ele>76</ele>
        <time>2011-06-22T02:43:40Z</time>
      </trkpt>
      <trkpt lat="48.65835" lon="-3.00963">
        <ele>73</ele>
        <time>2011-06-22T02:43:46Z</time>
      </trkpt>
      <trkpt lat="48.65826" lon="-3.00889">
        <ele>71</ele>
        <time>2011-06-22T02:43:53Z</time>
      </trkpt>
      <trkpt lat="48.65826" lon="-3.00863">
        <ele>70</ele>
        <time>2011-06-22T02:43:55Z</time>
      </trkpt>
      <trkpt lat="48.65834" lon="-3.00801">
        <ele>68</ele>
        <time>2011-06-22T02:44:01Z</time>
      </trkpt>
      <trkpt lat="48.65871" lon="-3.00591">
        <ele>64</ele>
        <time>2011-06-22T02:44:20Z</time>
      </trkpt>
      <trkpt lat="48.65881" lon="-3.0051">
        <ele>62</ele>
        <time>2011-06-22T02:44:27Z</time>
      </trkpt>
      <trkpt lat="48.65881" lon="-3.00483">
        <ele>61</ele>
        <time>2011-06-22T02:44:30Z</time>
      </trkpt>
      <trkpt lat="48.65853" lon="-3.00367">
        <ele>59</ele>
        <time>2011-06-22T02:44:41Z</time>
      </trkpt>
      <trkpt lat="48.65794" lon="-3.00046">
        <ele>53</ele>
        <time>2011-06-22T02:45:10Z</time>
      </trkpt>
      <trkpt lat="48.6578" lon="-2.99923">
        <ele>53</ele>
        <time>2011-06-22T02:45:23Z</time>
      </trkpt>
      <trkpt lat="48.65758" lon="-2.99797">
        <ele>55</ele>
        <time>2011-06-22T02:45:37Z</time>
      </trkpt>
      <trkpt lat="48.65752" lon="-2.99707">
        <ele>53</ele>
        <time>2011-06-22T02:45:45Z</time>
      </trkpt>
      <trkpt lat="48.65793" lon="-2.99577">
        <ele>52</ele>
        <time>2011-06-22T02:45:58Z</time>
      </trkpt>
      <trkpt lat="48.65803" lon="-2.99435">
        <ele>52</ele>
        <time>2011-06-22T02:46:11Z</time>
      </trkpt>
      <trkpt lat="48.65817" lon="-2.99378">
        <ele>51</ele>
        <time>2011-06-22T02:46:16Z</time>
      </trkpt>
      <trkpt lat="48.65886" lon="-2.99261">
        <ele>51</ele>
        <time>2011-06-22T02:46:30Z</time>
      </trkpt>
      <trkpt lat="48.65916" lon="-2.99167">
        <ele>53</ele>
        <time>2011-06-22T02:46:45Z</time>
      </trkpt>
      <trkpt lat="48.65927" lon="-2.99152">
        <ele>54</ele>
        <time>2011-06-22T02:46:48Z</time>
      </trkpt>
      <trkpt lat="48.66" lon="-2.99111">
        <ele>57</ele>
        <time>2011-06-22T02:47:06Z</time>
      </trkpt>
      <trkpt lat="48.66116" lon="-2.99096">
        <ele>59</ele>
        <time>2011-06-22T02:47:26Z</time>
      </trkpt>
      <trkpt lat="48.66143" lon="-2.99076">
        <ele>59</ele>
        <time>2011-06-22T02:47:32Z</time>
      </trkpt>
      <trkpt lat="48.66183" lon="-2.9903">
        <ele>61</ele>
        <time>2011-06-22T02:47:42Z</time>
      </trkpt>
      <trkpt lat="48.66205" lon="-2.99013">
        <ele>62</ele>
        <time>2011-06-22T02:47:47Z</time>
      </trkpt>
      <trkpt lat="48.66205" lon="-2.99013">
        <ele>62</ele>
        <time>2011-06-22T02:47:48Z</time>
      </trkpt>
      <trkpt lat="48.66239" lon="-2.98984">
        <ele>61</ele>
        <time>2011-06-22T02:47:54Z</time>
      </trkpt>
      <trkpt lat="48.66247" lon="-2.98907">
        <ele>61</ele>
        <time>2011-06-22T02:48:00Z</time>
      </trkpt>
      <trkpt lat="48.66246" lon="-2.98853">
        <ele>61</ele>
        <time>2011-06-22T02:48:05Z</time>
      </trkpt>
      <trkpt lat="48.66236" lon="-2.98797">
        <ele>59</ele>
        <time>2011-06-22T02:48:10Z</time>
      </trkpt>
      <trkpt lat="48.66222" lon="-2.98745">
        <ele>58</ele>
        <time>2011-06-22T02:48:15Z</time>
      </trkpt>
      <trkpt lat="48.66223" lon="-2.98672">
        <ele>57</ele>
        <time>2011-06-22T02:48:22Z</time>
      </trkpt>
      <trkpt lat="48.66279" lon="-2.9865">
        <ele>57</ele>
        <time>2011-06-22T02:48:30Z</time>
      </trkpt>
      <trkpt lat="48.66396" lon="-2.98522">
        <ele>58</ele>
        <time>2011-06-22T02:48:51Z</time>
      </trkpt>
      <trkpt lat="48.66495" lon="-2.98444">
        <ele>60</ele>
        <time>2011-06-22T02:49:11Z</time>
      </trkpt>
      <trkpt lat="48.66495" lon="-2.98444">
        <ele>60</ele>
        <time>2011-06-22T02:49:12Z</time>
      </trkpt>
      <trkpt lat="48.66597" lon="-2.98319">
        <ele>64</ele>
        <time>2011-06-22T02:49:39Z</time>
      </trkpt>
      <trkpt lat="48.66775" lon="-2.98145">
        <ele>64</ele>
        <time>2011-06-22T02:50:07Z</time>
      </trkpt>
      <trkpt lat="48.66827" lon="-2.98084">
        <ele>66</ele>
        <time>2011-06-22T02:50:22Z</time>
      </trkpt>
      <trkpt lat="48.66839" lon="-2.98021">
        <ele>68</ele>
        <time>2011-06-22T02:50:32Z</time>
      </trkpt>
      <trkpt lat="48.66872" lon="-2.97679">
        <ele>73</ele>
        <time>2011-06-22T02:51:14Z</time>
      </trkpt>
      <trkpt lat="48.66881" lon="-2.97642">
        <ele>74</ele>
        <time>2011-06-22T02:51:20Z</time>
      </trkpt>
      <trkpt lat="48.66927" lon="-2.9754">
        <ele>78</ele>
        <time>2011-06-22T02:51:40Z</time>
      </trkpt>
      <trkpt lat="48.66961" lon="-2.97476">
        <ele>79</ele>
        <time>2011-06-22T02:51:52Z</time>
      </trkpt>
      <trkpt lat="48.66981" lon="-2.9739">
        <ele>82</ele>
        <time>2011-06-22T02:52:05Z</time>
      </trkpt>
      <trkpt lat="48.6699" lon="-2.97368">
        <ele>82</ele>
        <time>2011-06-22T02:52:09Z</time>
      </trkpt>
      <trkpt lat="48.6702" lon="-2.9734">
        <ele>83</ele>
        <time>2011-06-22T02:52:16Z</time>
      </trkpt>
      <trkpt lat="48.67033" lon="-2.97271">
        <ele>85</ele>
        <time>2011-06-22T02:52:26Z</time>
      </trkpt>
      <trkpt lat="48.67061" lon="-2.97181">
        <ele>86</ele>
        <time>2011-06-22T02:52:38Z</time>
      </trkpt>
      <trkpt lat="48.67066" lon="-2.97154">
        <ele>86</ele>
        <time>2011-06-22T02:52:41Z</time>
      </trkpt>
      <trkpt lat="48.67063" lon="-2.97004">
        <ele>89</ele>
        <time>2011-06-22T02:53:00Z</time>
      </trkpt>
      <trkpt lat="48.67066" lon="-2.96983">
        <ele>89</ele>
        <time>2011-06-22T02:53:03Z</time>
      </trkpt>
      <trkpt lat="48.67088" lon="-2.96924">
        <ele>90</ele>
        <time>2011-06-22T02:53:11Z</time>
      </trkpt>
      <trkpt lat="48.67105" lon="-2.96895">
        <ele>91</ele>
        <time>2011-06-22T02:53:16Z</time>
      </trkpt>
      <trkpt lat="48.67116" lon="-2.96853">
        <ele>92</ele>
        <time>2011-06-22T02:53:22Z</time>
      </trkpt>
      <trkpt lat="48.67146" lon="-2.96637">
        <ele>96</ele>
        <time>2011-06-22T02:53:51Z</time>
      </trkpt>
      <trkpt lat="48.67153" lon="-2.96563">
        <ele>98</ele>
        <time>2011-06-22T02:54:03Z</time>
      </trkpt>
      <trkpt lat="48.67153" lon="-2.96563">
        <ele>98</ele>
        <time>2011-06-22T02:54:04Z</time>
      </trkpt>
      <trkpt lat="48.67151" lon="-2.9648">
        <ele>96</ele>
        <time>2011-06-22T02:54:11Z</time>
      </trkpt>
      <trkpt lat="48.67146" lon="-2.96431">
        <ele>96</ele>
        <time>2011-06-22T02:54:16Z</time>
      </trkpt>
      <trkpt lat="48.67113" lon="-2.96342">
        <ele>95</ele>
        <time>2011-06-22T02:54:25Z</time>
      </trkpt>
      <trkpt lat="48.67098" lon="-2.96264">
        <ele>94</ele>
        <time>2011-06-22T02:54:32Z</time>
      </trkpt>
      <trkpt lat="48.67055" lon="-2.962">
        <ele>93</ele>
        <time>2011-06-22T02:54:40Z</time>
      </trkpt>
      <trkpt lat="48.67037" lon="-2.95923">
        <ele>96</ele>
        <time>2011-06-22T02:55:11Z</time>
      </trkpt>
      <trkpt lat="48.67059" lon="-2.9582">
        <ele>96</ele>
        <time>2011-06-22T02:55:21Z</time>
      </trkpt>
      <trkpt lat="48.67061" lon="-2.95794">
        <ele>96</ele>
        <time>2011-06-22T02:55:23Z</time>
      </trkpt>
      <trkpt lat="48.67054" lon="-2.95708">
        <ele>96</ele>
        <time>2011-06-22T02:55:31Z</time>
      </trkpt>
      <trkpt lat="48.6704" lon="-2.95622">
        <ele>96</ele>
        <time>2011-06-22T02:55:39Z</time>
      </trkpt>
      <trkpt lat="48.67035" lon="-2.95566">
        <ele>96</ele>
        <time>2011-06-22T02:55:44Z</time>
      </trkpt>
      <trkpt lat="48.67041" lon="-2.95496">
        <ele>96</ele>
        <time>2011-06-22T02:55:50Z</time>
      </trkpt>
      <trkpt lat="48.67041" lon="-2.95399">
        <ele>96</ele>
        <time>2011-06-22T02:55:59Z</time>
      </trkpt>
      <trkpt lat="48.67045" lon="-2.95367">
        <ele>96</ele>
        <time>2011-06-22T02:56:01Z</time>
      </trkpt>
      <trkpt lat="48.67077" lon="-2.95234">
        <ele>96</ele>
        <time>2011-06-22T02:56:14Z</time>
      </trkpt>
      <trkpt lat="48.67111" lon="-2.95158">
        <ele>95</ele>
        <time>2011-06-22T02:56:22Z</time>
      </trkpt>
      <trkpt lat="48.67159" lon="-2.95027">
        <ele>95</ele>
        <time>2011-06-22T02:56:35Z</time>
      </trkpt>
      <trkpt lat="48.67169" lon="-2.9494">
        <ele>93</ele>
        <time>2011-06-22T02:56:43Z</time>
      </trkpt>
      <trkpt lat="48.67173" lon="-2.94911">
        <ele>93</ele>
        <time>2011-06-22T02:56:46Z</time>
      </trkpt>
      <trkpt lat="48.67194" lon="-2.94835">
        <ele>92</ele>
        <time>2011-06-22T02:56:53Z</time>
      </trkpt>
      <trkpt lat="48.67226" lon="-2.94738">
        <ele>93</ele>
        <time>2011-06-22T02:57:05Z</time>
      </trkpt>
      <trkpt lat="48.67278" lon="-2.94669">
        <ele>94</ele>
        <time>2011-06-22T02:57:17Z</time>
      </trkpt>
      <trkpt lat="48.67304" lon="-2.94612">
        <ele>95</ele>
        <time>2011-06-22T02:57:26Z</time>
      </trkpt>
      <trkpt lat="48.67313" lon="-2.94579">
        <ele>95</ele>
        <time>2011-06-22T02:57:30Z</time>
      </trkpt>
      <trkpt lat="48.67338" lon="-2.94475">
        <ele>98</ele>
        <time>2011-06-22T02:57:45Z</time>
      </trkpt>
      <trkpt lat="48.6736" lon="-2.94427">
        <ele>98</ele>
        <time>2011-06-22T02:57:52Z</time>
      </trkpt>
      <trkpt lat="48.6738" lon="-2.94388">
        <ele>98</ele>
        <time>2011-06-22T02:57:57Z</time>
      </trkpt>
      <trkpt lat="48.67437" lon="-2.94309">
        <ele>100</ele>
        <time>2011-06-22T02:58:10Z</time>
      </trkpt>
      <trkpt lat="48.67472" lon="-2.94162">
        <ele>100</ele>
        <time>2011-06-22T02:58:24Z</time>
      </trkpt>
      <trkpt lat="48.67479" lon="-2.9411">
        <ele>99</ele>
        <time>2011-06-22T02:58:28Z</time>
      </trkpt>
      <trkpt lat="48.67473" lon="-2.94082">
        <ele>99</ele>
        <time>2011-06-22T02:58:31Z</time>
      </trkpt>
      <trkpt lat="48.67471" lon="-2.9405">
        <ele>99</ele>
        <time>2011-06-22T02:58:34Z</time>
      </trkpt>
      <trkpt lat="48.67493" lon="-2.93979">
        <ele>99</ele>
        <time>2011-06-22T02:58:41Z</time>
      </trkpt>
      <trkpt lat="48.67499" lon="-2.93921">
        <ele>98</ele>
        <time>2011-06-22T02:58:46Z</time>
      </trkpt>
      <trkpt lat="48.67494" lon="-2.93879">
        <ele>97</ele>
        <time>2011-06-22T02:58:50Z</time>
      </trkpt>
      <trkpt lat="48.67478" lon="-2.93842">
        <ele>97</ele>
        <time>2011-06-22T02:58:53Z</time>
      </trkpt>
      <trkpt lat="48.6747" lon="-2.93793">
        <ele>97</ele>
        <time>2011-06-22T02:58:58Z</time>
      </trkpt>
      <trkpt lat="48.67492" lon="-2.9376">
        <ele>97</ele>
        <time>2011-06-22T02:59:02Z</time>
      </trkpt>
      <trkpt lat="48.67506" lon="-2.9373">
        <ele>97</ele>
        <time>2011-06-22T02:59:05Z</time>
      </trkpt>
      <trkpt lat="48.67516" lon="-2.93686">
        <ele>97</ele>
        <time>2011-06-22T02:59:09Z</time>
      </trkpt>
      <trkpt lat="48.67524" lon="-2.93626">
        <ele>96</ele>
        <time>2011-06-22T02:59:15Z</time>
      </trkpt>
      <trkpt lat="48.6755" lon="-2.93306">
        <ele>93</ele>
        <time>2011-06-22T02:59:43Z</time>
      </trkpt>
      <trkpt lat="48.67556" lon="-2.9325">
        <ele>92</ele>
        <time>2011-06-22T02:59:48Z</time>
      </trkpt>
      <trkpt lat="48.67571" lon="-2.93172">
        <ele>92</ele>
        <time>2011-06-22T02:59:55Z</time>
      </trkpt>
      <trkpt lat="48.67571" lon="-2.93172">
        <ele>92</ele>
        <time>2011-06-22T02:59:56Z</time>
      </trkpt>
      <trkpt lat="48.67577" lon="-2.93143">
        <ele>92</ele>
        <time>2011-06-22T02:59:59Z</time>
      </trkpt>
      <trkpt lat="48.67568" lon="-2.93142">
        <ele>92</ele>
        <time>2011-06-22T03:00:00Z</time>
      </trkpt>
      <trkpt lat="48.67566" lon="-2.93131">
        <ele>92</ele>
        <time>2011-06-22T03:00:01Z</time>
      </trkpt>
      <trkpt lat="48.67571" lon="-2.93125">
        <ele>92</ele>
        <time>2011-06-22T03:00:02Z</time>
      </trkpt>
      <trkpt lat="48.67595" lon="-2.93014">
        <ele>92</ele>
        <time>2011-06-22T03:00:12Z</time>
      </trkpt>
      <trkpt lat="48.67604" lon="-2.92999">
        <ele>92</ele>
        <time>2011-06-22T03:00:14Z</time>
      </trkpt>
      <trkpt lat="48.67622" lon="-2.92921">
        <ele>92</ele>
        <time>2011-06-22T03:00:23Z</time>
      </trkpt>
      <trkpt lat="48.67603" lon="-2.92905">
        <ele>92</ele>
        <time>2011-06-22T03:00:26Z</time>
      </trkpt>
      <trkpt lat="48.67595" lon="-2.92882">
        <ele>92</ele>
        <time>2011-06-22T03:00:29Z</time>
      </trkpt>
      <trkpt lat="48.67594" lon="-2.92869">
        <ele>93</ele>
        <time>2011-06-22T03:00:30Z</time>
      </trkpt>
      <trkpt lat="48.67603" lon="-2.92835">
        <ele>91</ele>
        <time>2011-06-22T03:00:33Z</time>
      </trkpt>
      <trkpt lat="48.67606" lon="-2.92796">
        <ele>90</ele>
        <time>2011-06-22T03:00:37Z</time>
      </trkpt>
      <trkpt lat="48.6744" lon="-2.92696">
        <ele>82</ele>
        <time>2011-06-22T03:01:01Z</time>
      </trkpt>
      <trkpt lat="48.67395" lon="-2.92681">
        <ele>79</ele>
        <time>2011-06-22T03:01:07Z</time>
      </trkpt>
      <trkpt lat="48.67395" lon="-2.92681">
        <ele>79</ele>
        <time>2011-06-22T03:01:08Z</time>
      </trkpt>
      <trkpt lat="48.67308" lon="-2.92653">
        <ele>73</ele>
        <time>2011-06-22T03:01:20Z</time>
      </trkpt>
      <trkpt lat="48.67248" lon="-2.92615">
        <ele>70</ele>
        <time>2011-06-22T03:01:29Z</time>
      </trkpt>
      <trkpt lat="48.67215" lon="-2.92554">
        <ele>69</ele>
        <time>2011-06-22T03:01:35Z</time>
      </trkpt>
      <trkpt lat="48.67194" lon="-2.92525">
        <ele>68</ele>
        <time>2011-06-22T03:01:39Z</time>
      </trkpt>
      <trkpt lat="48.67169" lon="-2.925">
        <ele>68</ele>
        <time>2011-06-22T03:01:43Z</time>
      </trkpt>
      <trkpt lat="48.6711" lon="-2.92454">
        <ele>67</ele>
        <time>2011-06-22T03:01:52Z</time>
      </trkpt>
      <trkpt lat="48.67075" lon="-2.92448">
        <ele>67</ele>
        <time>2011-06-22T03:01:57Z</time>
      </trkpt>
      <trkpt lat="48.67055" lon="-2.9243">
        <ele>65</ele>
        <time>2011-06-22T03:02:00Z</time>
      </trkpt>
      <trkpt lat="48.67008" lon="-2.92353">
        <ele>63</ele>
        <time>2011-06-22T03:02:09Z</time>
      </trkpt>
      <trkpt lat="48.67005" lon="-2.92328">
        <ele>61</ele>
        <time>2011-06-22T03:02:11Z</time>
      </trkpt>
      <trkpt lat="48.66976" lon="-2.9228">
        <ele>59</ele>
        <time>2011-06-22T03:02:17Z</time>
      </trkpt>
      <trkpt lat="48.66976" lon="-2.9228">
        <ele>59</ele>
        <time>2011-06-22T03:02:18Z</time>
      </trkpt>
      <trkpt lat="48.66909" lon="-2.92199">
        <ele>55</ele>
        <time>2011-06-22T03:02:30Z</time>
      </trkpt>
      <trkpt lat="48.66905" lon="-2.92206">
        <ele>55</ele>
        <time>2011-06-22T03:02:30Z</time>
      </trkpt>
      <trkpt lat="48.66893" lon="-2.92211">
        <ele>55</ele>
        <time>2011-06-22T03:02:32Z</time>
      </trkpt>
      <trkpt lat="48.66884" lon="-2.92207">
        <ele>55</ele>
        <time>2011-06-22T03:02:34Z</time>
      </trkpt>
      <trkpt lat="48.66877" lon="-2.92187">
        <ele>55</ele>
        <time>2011-06-22T03:02:37Z</time>
      </trkpt>
      <trkpt lat="48.66859" lon="-2.92178">
        <ele>56</ele>
        <time>2011-06-22T03:02:41Z</time>
      </trkpt>
      <trkpt lat="48.66804" lon="-2.92167">
        <ele>58</ele>
        <time>2011-06-22T03:02:53Z</time>
      </trkpt>
      <trkpt lat="48.66713" lon="-2.92161">
        <ele>61</ele>
        <time>2011-06-22T03:03:12Z</time>
      </trkpt>
      <trkpt lat="48.66663" lon="-2.92115">
        <ele>61</ele>
        <time>2011-06-22T03:03:21Z</time>
      </trkpt>
      <trkpt lat="48.6663" lon="-2.92098">
        <ele>62</ele>
        <time>2011-06-22T03:03:27Z</time>
      </trkpt>
      <trkpt lat="48.66612" lon="-2.92097">
        <ele>62</ele>
        <time>2011-06-22T03:03:30Z</time>
      </trkpt>
      <trkpt lat="48.66576" lon="-2.92107">
        <ele>62</ele>
        <time>2011-06-22T03:03:35Z</time>
      </trkpt>
      <trkpt lat="48.66523" lon="-2.92112">
        <ele>63</ele>
        <time>2011-06-22T03:03:44Z</time>
      </trkpt>
      <trkpt lat="48.66482" lon="-2.92111">
        <ele>64</ele>
        <time>2011-06-22T03:03:52Z</time>
      </trkpt>
      <trkpt lat="48.6646" lon="-2.92105">
        <ele>65</ele>
        <time>2011-06-22T03:03:57Z</time>
      </trkpt>
      <trkpt lat="48.66328" lon="-2.91997">
        <ele>70</ele>
        <time>2011-06-22T03:04:29Z</time>
      </trkpt>
      <trkpt lat="48.66234" lon="-2.91816">
        <ele>72</ele>
        <time>2011-06-22T03:04:54Z</time>
      </trkpt>
      <trkpt lat="48.66204" lon="-2.91779">
        <ele>72</ele>
        <time>2011-06-22T03:05:00Z</time>
      </trkpt>
      <trkpt lat="48.66116" lon="-2.91731">
        <ele>73</ele>
        <time>2011-06-22T03:05:14Z</time>
      </trkpt>
      <trkpt lat="48.66096" lon="-2.91726">
        <ele>73</ele>
        <time>2011-06-22T03:05:17Z</time>
      </trkpt>
      <trkpt lat="48.66069" lon="-2.91728">
        <ele>73</ele>
        <time>2011-06-22T03:05:20Z</time>
      </trkpt>
      <trkpt lat="48.66069" lon="-2.91728">
        <ele>73</ele>
        <time>2011-06-22T03:05:21Z</time>
      </trkpt>
      <trkpt lat="48.66015" lon="-2.91733">
        <ele>73</ele>
        <time>2011-06-22T03:05:29Z</time>
      </trkpt>
      <trkpt lat="48.65993" lon="-2.91725">
        <ele>73</ele>
        <time>2011-06-22T03:05:33Z</time>
      </trkpt>
      <trkpt lat="48.65917" lon="-2.9168">
        <ele>74</ele>
        <time>2011-06-22T03:05:45Z</time>
      </trkpt>
      <trkpt lat="48.65881" lon="-2.91638">
        <ele>74</ele>
        <time>2011-06-22T03:05:52Z</time>
      </trkpt>
      <trkpt lat="48.65859" lon="-2.9159">
        <ele>74</ele>
        <time>2011-06-22T03:05:58Z</time>
      </trkpt>
      <trkpt lat="48.65846" lon="-2.91551">
        <ele>75</ele>
        <time>2011-06-22T03:06:02Z</time>
      </trkpt>
      <trkpt lat="48.65833" lon="-2.91527">
        <ele>75</ele>
        <time>2011-06-22T03:06:06Z</time>
      </trkpt>
      <trkpt lat="48.65814" lon="-2.91507">
        <ele>75</ele>
        <time>2011-06-22T03:06:10Z</time>
      </trkpt>
      <trkpt lat="48.65736" lon="-2.91445">
        <ele>77</ele>
        <time>2011-06-22T03:06:25Z</time>
      </trkpt>
      <trkpt lat="48.65724" lon="-2.91427">
        <ele>77</ele>
        <time>2011-06-22T03:06:27Z</time>
      </trkpt>
      <trkpt lat="48.65711" lon="-2.91394">
        <ele>77</ele>
        <time>2011-06-22T03:06:31Z</time>
      </trkpt>
      <trkpt lat="48.65698" lon="-2.91382">
        <ele>77</ele>
        <time>2011-06-22T03:06:34Z</time>
      </trkpt>
      <trkpt lat="48.65635" lon="-2.91334">
        <ele>78</ele>
        <time>2011-06-22T03:06:44Z</time>
      </trkpt>
      <trkpt lat="48.65554" lon="-2.91312">
        <ele>79</ele>
        <time>2011-06-22T03:06:58Z</time>
      </trkpt>
      <trkpt lat="48.65483" lon="-2.91251">
        <ele>80</ele>
        <time>2011-06-22T03:07:11Z</time>
      </trkpt>
      <trkpt lat="48.65421" lon="-2.91245">
        <ele>80</ele>
        <time>2011-06-22T03:07:21Z</time>
      </trkpt>
      <trkpt lat="48.6541" lon="-2.9124">
        <ele>80</ele>
        <time>2011-06-22T03:07:22Z</time>
      </trkpt>
      <trkpt lat="48.65379" lon="-2.91213">
        <ele>81</ele>
        <time>2011-06-22T03:07:28Z</time>
      </trkpt>
      <trkpt lat="48.65321" lon="-2.91137">
        <ele>79</ele>
        <time>2011-06-22T03:07:38Z</time>
      </trkpt>
      <trkpt lat="48.65297" lon="-2.91114">
        <ele>79</ele>
        <time>2011-06-22T03:07:42Z</time>
      </trkpt>
      <trkpt lat="48.65236" lon="-2.9108">
        <ele>81</ele>
        <time>2011-06-22T03:07:56Z</time>
      </trkpt>
      <trkpt lat="48.65164" lon="-2.91007">
        <ele>84</ele>
        <time>2011-06-22T03:08:14Z</time>
      </trkpt>
      <trkpt lat="48.65152" lon="-2.90987">
        <ele>84</ele>
        <time>2011-06-22T03:08:18Z</time>
      </trkpt>
      <trkpt lat="48.65143" lon="-2.9096">
        <ele>85</ele>
        <time>2011-06-22T03:08:22Z</time>
      </trkpt>
      <trkpt lat="48.65131" lon="-2.90892">
        <ele>86</ele>
        <time>2011-06-22T03:08:32Z</time>
      </trkpt>
      <trkpt lat="48.65111" lon="-2.90839">
        <ele>88</ele>
        <time>2011-06-22T03:08:41Z</time>
      </trkpt>
      <trkpt lat="48.65001" lon="-2.90672">
        <ele>89</ele>
        <time>2011-06-22T03:09:04Z</time>
      </trkpt>
      <trkpt lat="48.64982" lon="-2.90652">
        <ele>89</ele>
        <time>2011-06-22T03:09:08Z</time>
      </trkpt>
      <trkpt lat="48.64876" lon="-2.90569">
        <ele>93</ele>
        <time>2011-06-22T03:09:32Z</time>
      </trkpt>
      <trkpt lat="48.64841" lon="-2.90536">
        <ele>93</ele>
        <time>2011-06-22T03:09:40Z</time>
      </trkpt>
      <trkpt lat="48.64695" lon="-2.90321">
        <ele>98</ele>
        <time>2011-06-22T03:10:17Z</time>
      </trkpt>
      <trkpt lat="48.64595" lon="-2.90091">
        <ele>96</ele>
        <time>2011-06-22T03:10:41Z</time>
      </trkpt>
      <trkpt lat="48.64559" lon="-2.89977">
        <ele>93</ele>
        <time>2011-06-22T03:10:53Z</time>
      </trkpt>
      <trkpt lat="48.64518" lon="-2.8981">
        <ele>89</ele>
        <time>2011-06-22T03:11:08Z</time>
      </trkpt>
      <trkpt lat="48.6451" lon="-2.89797">
        <ele>89</ele>
        <time>2011-06-22T03:11:11Z</time>
      </trkpt>
      <trkpt lat="48.64471" lon="-2.89761">
        <ele>91</ele>
        <time>2011-06-22T03:11:21Z</time>
      </trkpt>
      <trkpt lat="48.64371" lon="-2.89702">
        <ele>95</ele>
        <time>2011-06-22T03:11:45Z</time>
      </trkpt>
      <trkpt lat="48.64341" lon="-2.89675">
        <ele>94</ele>
        <time>2011-06-22T03:11:49Z</time>
      </trkpt>
      <trkpt lat="48.64328" lon="-2.89655">
        <ele>94</ele>
        <time>2011-06-22T03:11:52Z</time>
      </trkpt>
      <trkpt lat="48.64306" lon="-2.896">
        <ele>94</ele>
        <time>2011-06-22T03:11:58Z</time>
      </trkpt>
      <trkpt lat="48.64281" lon="-2.89476">
        <ele>90</ele>
        <time>2011-06-22T03:12:09Z</time>
      </trkpt>
      <trkpt lat="48.64221" lon="-2.89318">
        <ele>86</ele>
        <time>2011-06-22T03:12:25Z</time>
      </trkpt>
      <trkpt lat="48.64205" lon="-2.89232">
        <ele>84</ele>
        <time>2011-06-22T03:12:33Z</time>
      </trkpt>
      <trkpt lat="48.64205" lon="-2.89232">
        <ele>84</ele>
        <time>2011-06-22T03:12:34Z</time>
      </trkpt>
      <trkpt lat="48.64169" lon="-2.8915">
        <ele>83</ele>
        <time>2011-06-22T03:12:43Z</time>
      </trkpt>
      <trkpt lat="48.6416" lon="-2.89153">
        <ele>83</ele>
        <time>2011-06-22T03:12:44Z</time>
      </trkpt>
      <trkpt lat="48.64154" lon="-2.89147">
        <ele>83</ele>
        <time>2011-06-22T03:12:45Z</time>
      </trkpt>
      <trkpt lat="48.64152" lon="-2.89133">
        <ele>82</ele>
        <time>2011-06-22T03:12:46Z</time>
      </trkpt>
      <trkpt lat="48.64156" lon="-2.89123">
        <ele>82</ele>
        <time>2011-06-22T03:12:47Z</time>
      </trkpt>
      <trkpt lat="48.64117" lon="-2.89045">
        <ele>82</ele>
        <time>2011-06-22T03:12:56Z</time>
      </trkpt>
      <trkpt lat="48.64097" lon="-2.89014">
        <ele>82</ele>
        <time>2011-06-22T03:13:00Z</time>
      </trkpt>
      <trkpt lat="48.64059" lon="-2.88977">
        <ele>82</ele>
        <time>2011-06-22T03:13:06Z</time>
      </trkpt>
      <trkpt lat="48.64015" lon="-2.8895">
        <ele>82</ele>
        <time>2011-06-22T03:13:12Z</time>
      </trkpt>
      <trkpt lat="48.63999" lon="-2.88935">
        <ele>82</ele>
        <time>2011-06-22T03:13:14Z</time>
      </trkpt>
      <trkpt lat="48.63916" lon="-2.88813">
        <ele>82</ele>
        <time>2011-06-22T03:13:30Z</time>
      </trkpt>
      <trkpt lat="48.63892" lon="-2.88784">
        <ele>82</ele>
        <time>2011-06-22T03:13:34Z</time>
      </trkpt>
      <trkpt lat="48.63808" lon="-2.88722">
        <ele>82</ele>
        <time>2011-06-22T03:13:46Z</time>
      </trkpt>
      <trkpt lat="48.6379" lon="-2.88694">
        <ele>81</ele>
        <time>2011-06-22T03:13:50Z</time>
      </trkpt>
      <trkpt lat="48.63778" lon="-2.88636">
        <ele>81</ele>
        <time>2011-06-22T03:13:55Z</time>
      </trkpt>
      <trkpt lat="48.6377" lon="-2.88481">
        <ele>80</ele>
        <time>2011-06-22T03:14:09Z</time>
      </trkpt>
      <trkpt lat="48.63737" lon="-2.88299">
        <ele>78</ele>
        <time>2011-06-22T03:14:26Z</time>
      </trkpt>
      <trkpt lat="48.63539" lon="-2.87792">
        <ele>82</ele>
        <time>2011-06-22T03:15:27Z</time>
      </trkpt>
      <trkpt lat="48.63516" lon="-2.87757">
        <ele>82</ele>
        <time>2011-06-22T03:15:33Z</time>
      </trkpt>
      <trkpt lat="48.63421" lon="-2.87656">
        <ele>84</ele>
        <time>2011-06-22T03:15:52Z</time>
      </trkpt>
      <trkpt lat="48.63339" lon="-2.87549">
        <ele>87</ele>
        <time>2011-06-22T03:16:14Z</time>
      </trkpt>
      <trkpt lat="48.63149" lon="-2.87405">
        <ele>85</ele>
        <time>2011-06-22T03:16:42Z</time>
      </trkpt>
      <trkpt lat="48.63112" lon="-2.8735">
        <ele>82</ele>
        <time>2011-06-22T03:16:49Z</time>
      </trkpt>
      <trkpt lat="48.63105" lon="-2.87324">
        <ele>81</ele>
        <time>2011-06-22T03:16:51Z</time>
      </trkpt>
      <trkpt lat="48.63104" lon="-2.87275">
        <ele>80</ele>
        <time>2011-06-22T03:16:56Z</time>
      </trkpt>
      <trkpt lat="48.63094" lon="-2.87233">
        <ele>78</ele>
        <time>2011-06-22T03:17:00Z</time>
      </trkpt>
      <trkpt lat="48.63078" lon="-2.87116">
        <ele>76</ele>
        <time>2011-06-22T03:17:10Z</time>
      </trkpt>
      <trkpt lat="48.63073" lon="-2.87098">
        <ele>75</ele>
        <time>2011-06-22T03:17:12Z</time>
      </trkpt>
      <trkpt lat="48.63023" lon="-2.87026">
        <ele>74</ele>
        <time>2011-06-22T03:17:21Z</time>
      </trkpt>
      <trkpt lat="48.63023" lon="-2.87026">
        <ele>74</ele>
        <time>2011-06-22T03:17:22Z</time>
      </trkpt>
      <trkpt lat="48.62998" lon="-2.87106">
        <ele>75</ele>
        <time>2011-06-22T03:17:33Z</time>
      </trkpt>
      <trkpt lat="48.62969" lon="-2.87163">
        <ele>76</ele>
        <time>2011-06-22T03:17:41Z</time>
      </trkpt>
      <trkpt lat="48.6294" lon="-2.87242">
        <ele>77</ele>
        <time>2011-06-22T03:17:53Z</time>
      </trkpt>
      <trkpt lat="48.62909" lon="-2.8731">
        <ele>79</ele>
        <time>2011-06-22T03:18:04Z</time>
      </trkpt>
      <trkpt lat="48.62781" lon="-2.87469">
        <ele>82</ele>
        <time>2011-06-22T03:18:33Z</time>
      </trkpt>
      <trkpt lat="48.62743" lon="-2.8751">
        <ele>82</ele>
        <time>2011-06-22T03:18:42Z</time>
      </trkpt>
      <trkpt lat="48.62701" lon="-2.87544">
        <ele>84</ele>
        <time>2011-06-22T03:18:50Z</time>
      </trkpt>
      <trkpt lat="48.62681" lon="-2.87552">
        <ele>84</ele>
        <time>2011-06-22T03:18:53Z</time>
      </trkpt>
      <trkpt lat="48.62649" lon="-2.87554">
        <ele>84</ele>
        <time>2011-06-22T03:18:57Z</time>
      </trkpt>
      <trkpt lat="48.62554" lon="-2.87524">
        <ele>84</ele>
        <time>2011-06-22T03:19:10Z</time>
      </trkpt>
      <trkpt lat="48.62508" lon="-2.87522">
        <ele>84</ele>
        <time>2011-06-22T03:19:17Z</time>
      </trkpt>
      <trkpt lat="48.62425" lon="-2.87548">
        <ele>85</ele>
        <time>2011-06-22T03:19:30Z</time>
      </trkpt>
      <trkpt lat="48.62394" lon="-2.87568">
        <ele>85</ele>
        <time>2011-06-22T03:19:35Z</time>
      </trkpt>
      <trkpt lat="48.62317" lon="-2.87598">
        <ele>85</ele>
        <time>2011-06-22T03:19:45Z</time>
      </trkpt>
      <trkpt lat="48.62159" lon="-2.87644">
        <ele>82</ele>
        <time>2011-06-22T03:20:07Z</time>
      </trkpt>
      <trkpt lat="48.62051" lon="-2.87651">
        <ele>81</ele>
        <time>2011-06-22T03:20:21Z</time>
      </trkpt>
      <trkpt lat="48.61957" lon="-2.8769">
        <ele>81</ele>
        <time>2011-06-22T03:20:34Z</time>
      </trkpt>
      <trkpt lat="48.61876" lon="-2.87689">
        <ele>81</ele>
        <time>2011-06-22T03:20:46Z</time>
      </trkpt>
      <trkpt lat="48.6176" lon="-2.87671">
        <ele>82</ele>
        <time>2011-06-22T03:21:03Z</time>
      </trkpt>
      <trkpt lat="48.61669" lon="-2.87651">
        <ele>83</ele>
        <time>2011-06-22T03:21:18Z</time>
      </trkpt>
      <trkpt lat="48.6165" lon="-2.8765">
        <ele>82</ele>
        <time>2011-06-22T03:21:20Z</time>
      </trkpt>
      <trkpt lat="48.61606" lon="-2.87659">
        <ele>80</ele>
        <time>2011-06-22T03:21:26Z</time>
      </trkpt>
      <trkpt lat="48.61496" lon="-2.87694">
        <ele>77</ele>
        <time>2011-06-22T03:21:41Z</time>
      </trkpt>
      <trkpt lat="48.61431" lon="-2.87729">
        <ele>77</ele>
        <time>2011-06-22T03:21:50Z</time>
      </trkpt>
      <trkpt lat="48.61395" lon="-2.8776">
        <ele>77</ele>
        <time>2011-06-22T03:21:56Z</time>
      </trkpt>
      <trkpt lat="48.61308" lon="-2.87819">
        <ele>75</ele>
        <time>2011-06-22T03:22:09Z</time>
      </trkpt>
      <trkpt lat="48.61191" lon="-2.87913">
        <ele>71</ele>
        <time>2011-06-22T03:22:26Z</time>
      </trkpt>
      <trkpt lat="48.6114" lon="-2.87974">
        <ele>70</ele>
        <time>2011-06-22T03:22:35Z</time>
      </trkpt>
      <trkpt lat="48.61099" lon="-2.88">
        <ele>70</ele>
        <time>2011-06-22T03:22:41Z</time>
      </trkpt>
      <trkpt lat="48.6106" lon="-2.88009">
        <ele>68</ele>
        <time>2011-06-22T03:22:46Z</time>
      </trkpt>
      <trkpt lat="48.60965" lon="-2.88052">
        <ele>63</ele>
        <time>2011-06-22T03:23:00Z</time>
      </trkpt>
      <trkpt lat="48.60866" lon="-2.88079">
        <ele>56</ele>
        <time>2011-06-22T03:23:13Z</time>
      </trkpt>
      <trkpt lat="48.60788" lon="-2.88118">
        <ele>59</ele>
        <time>2011-06-22T03:23:32Z</time>
      </trkpt>
      <trkpt lat="48.60719" lon="-2.88143">
        <ele>62</ele>
        <time>2011-06-22T03:23:48Z</time>
      </trkpt>
      <trkpt lat="48.60719" lon="-2.88143">
        <ele>62</ele>
        <time>2011-06-22T03:23:49Z</time>
      </trkpt>
      <trkpt lat="48.60699" lon="-2.88157">
        <ele>63</ele>
        <time>2011-06-22T03:23:55Z</time>
      </trkpt>
      <trkpt lat="48.60663" lon="-2.8821">
        <ele>66</ele>
        <time>2011-06-22T03:24:08Z</time>
      </trkpt>
      <trkpt lat="48.60636" lon="-2.88241">
        <ele>68</ele>
        <time>2011-06-22T03:24:17Z</time>
      </trkpt>
      <trkpt lat="48.60591" lon="-2.88248">
        <ele>69</ele>
        <time>2011-06-22T03:24:28Z</time>
      </trkpt>
      <trkpt lat="48.60548" lon="-2.88262">
        <ele>71</ele>
        <time>2011-06-22T03:24:38Z</time>
      </trkpt>
      <trkpt lat="48.60459" lon="-2.8825">
        <ele>75</ele>
        <time>2011-06-22T03:24:58Z</time>
      </trkpt>
      <trkpt lat="48.60428" lon="-2.88235">
        <ele>76</ele>
        <time>2011-06-22T03:25:06Z</time>
      </trkpt>
      <trkpt lat="48.604" lon="-2.88212">
        <ele>78</ele>
        <time>2011-06-22T03:25:14Z</time>
      </trkpt>
      <trkpt lat="48.604" lon="-2.88213">
        <ele>78</ele>
        <time>2011-06-22T03:25:14Z</time>
      </trkpt>
      <trkpt lat="48.6037" lon="-2.88193">
        <ele>78</ele>
        <time>2011-06-22T03:25:19Z</time>
      </trkpt>
      <trkpt lat="48.60343" lon="-2.88257">
        <ele>78</ele>
        <time>2011-06-22T03:25:27Z</time>
      </trkpt>
      <trkpt lat="48.60283" lon="-2.88463">
        <ele>80</ele>
        <time>2011-06-22T03:25:50Z</time>
      </trkpt>
      <trkpt lat="48.60254" lon="-2.88526">
        <ele>81</ele>
        <time>2011-06-22T03:26:00Z</time>
      </trkpt>
      <trkpt lat="48.60239" lon="-2.88605">
        <ele>83</ele>
        <time>2011-06-22T03:26:11Z</time>
      </trkpt>
      <trkpt lat="48.60214" lon="-2.88694">
        <ele>84</ele>
        <time>2011-06-22T03:26:23Z</time>
      </trkpt>
      <trkpt lat="48.60192" lon="-2.88819">
        <ele>86</ele>
        <time>2011-06-22T03:26:38Z</time>
      </trkpt>
      <trkpt lat="48.60158" lon="-2.88937">
        <ele>88</ele>
        <time>2011-06-22T03:26:55Z</time>
      </trkpt>
      <trkpt lat="48.60124" lon="-2.89079">
        <ele>91</ele>
        <time>2011-06-22T03:27:15Z</time>
      </trkpt>
      <trkpt lat="48.60124" lon="-2.89079">
        <ele>91</ele>
        <time>2011-06-22T03:27:16Z</time>
      </trkpt>
      <trkpt lat="48.60105" lon="-2.89146">
        <ele>91</ele>
        <time>2011-06-22T03:27:22Z</time>
      </trkpt>
      <trkpt lat="48.60083" lon="-2.89202">
        <ele>91</ele>
        <time>2011-06-22T03:27:28Z</time>
      </trkpt>
      <trkpt lat="48.60023" lon="-2.89291">
        <ele>92</ele>
        <time>2011-06-22T03:27:42Z</time>
      </trkpt>
      <trkpt lat="48.59966" lon="-2.8934">
        <ele>93</ele>
        <time>2011-06-22T03:27:53Z</time>
      </trkpt>
      <trkpt lat="48.59952" lon="-2.89358">
        <ele>93</ele>
        <time>2011-06-22T03:27:56Z</time>
      </trkpt>
      <trkpt lat="48.59935" lon="-2.89385">
        <ele>93</ele>
        <time>2011-06-22T03:28:00Z</time>
      </trkpt>
      <trkpt lat="48.59909" lon="-2.89443">
        <ele>94</ele>
        <time>2011-06-22T03:28:08Z</time>
      </trkpt>
      <trkpt lat="48.59899" lon="-2.89502">
        <ele>95</ele>
        <time>2011-06-22T03:28:15Z</time>
      </trkpt>
      <trkpt lat="48.59889" lon="-2.89618">
        <ele>95</ele>
        <time>2011-06-22T03:28:27Z</time>
      </trkpt>
      <trkpt lat="48.59897" lon="-2.89625">
        <ele>95</ele>
        <time>2011-06-22T03:28:29Z</time>
      </trkpt>
      <trkpt lat="48.59899" lon="-2.89635">
        <ele>95</ele>
        <time>2011-06-22T03:28:30Z</time>
      </trkpt>
      <trkpt lat="48.59896" lon="-2.89645">
        <ele>96</ele>
        <time>2011-06-22T03:28:31Z</time>
      </trkpt>
      <trkpt lat="48.59885" lon="-2.8965">
        <ele>96</ele>
        <time>2011-06-22T03:28:33Z</time>
      </trkpt>
      <trkpt lat="48.59879" lon="-2.89643">
        <ele>96</ele>
        <time>2011-06-22T03:28:34Z</time>
      </trkpt>
      <trkpt lat="48.59878" lon="-2.89629">
        <ele>96</ele>
        <time>2011-06-22T03:28:35Z</time>
      </trkpt>
      <trkpt lat="48.59841" lon="-2.89609">
        <ele>96</ele>
        <time>2011-06-22T03:28:41Z</time>
      </trkpt>
      <trkpt lat="48.5981" lon="-2.89751">
        <ele>97</ele>
        <time>2011-06-22T03:28:55Z</time>
      </trkpt>
      <trkpt lat="48.59797" lon="-2.89784">
        <ele>97</ele>
        <time>2011-06-22T03:28:59Z</time>
      </trkpt>
      <trkpt lat="48.59696" lon="-2.89968">
        <ele>98</ele>
        <time>2011-06-22T03:29:22Z</time>
      </trkpt>
      <trkpt lat="48.59624" lon="-2.90113">
        <ele>98</ele>
        <time>2011-06-22T03:29:38Z</time>
      </trkpt>
      <trkpt lat="48.59624" lon="-2.90113">
        <ele>98</ele>
        <time>2011-06-22T03:29:39Z</time>
      </trkpt>
      <trkpt lat="48.59378" lon="-2.90559">
        <ele>95</ele>
        <time>2011-06-22T03:30:31Z</time>
      </trkpt>
      <trkpt lat="48.58869" lon="-2.91384">
        <ele>91</ele>
        <time>2011-06-22T03:32:10Z</time>
      </trkpt>
      <trkpt lat="48.58812" lon="-2.9147">
        <ele>91</ele>
        <time>2011-06-22T03:32:23Z</time>
      </trkpt>
      <trkpt lat="48.588" lon="-2.91483">
        <ele>92</ele>
        <time>2011-06-22T03:32:26Z</time>
      </trkpt>
      <trkpt lat="48.58755" lon="-2.91512">
        <ele>92</ele>
        <time>2011-06-22T03:32:32Z</time>
      </trkpt>
      <trkpt lat="48.58334" lon="-2.91729">
        <ele>93</ele>
        <time>2011-06-22T03:33:34Z</time>
      </trkpt>
      <trkpt lat="48.58334" lon="-2.91729">
        <ele>93</ele>
        <time>2011-06-22T03:33:35Z</time>
      </trkpt>
      <trkpt lat="48.58289" lon="-2.91753">
        <ele>94</ele>
        <time>2011-06-22T03:33:45Z</time>
      </trkpt>
      <trkpt lat="48.58258" lon="-2.91762">
        <ele>95</ele>
        <time>2011-06-22T03:33:51Z</time>
      </trkpt>
      <trkpt lat="48.58065" lon="-2.9174">
        <ele>101</ele>
        <time>2011-06-22T03:34:31Z</time>
      </trkpt>
      <trkpt lat="48.5805" lon="-2.91745">
        <ele>101</ele>
        <time>2011-06-22T03:34:33Z</time>
      </trkpt>
      <trkpt lat="48.58006" lon="-2.91797">
        <ele>101</ele>
        <time>2011-06-22T03:34:42Z</time>
      </trkpt>
      <trkpt lat="48.5797" lon="-2.91831">
        <ele>102</ele>
        <time>2011-06-22T03:34:48Z</time>
      </trkpt>
      <trkpt lat="48.57936" lon="-2.91854">
        <ele>101</ele>
        <time>2011-06-22T03:34:53Z</time>
      </trkpt>
      <trkpt lat="48.57812" lon="-2.91924">
        <ele>99</ele>
        <time>2011-06-22T03:35:11Z</time>
      </trkpt>
      <trkpt lat="48.5775" lon="-2.91941">
        <ele>99</ele>
        <time>2011-06-22T03:35:19Z</time>
      </trkpt>
      <trkpt lat="48.57678" lon="-2.92009">
        <ele>99</ele>
        <time>2011-06-22T03:35:31Z</time>
      </trkpt>
      <trkpt lat="48.57579" lon="-2.92115">
        <ele>104</ele>
        <time>2011-06-22T03:35:59Z</time>
      </trkpt>
      <trkpt lat="48.57533" lon="-2.9219">
        <ele>104</ele>
        <time>2011-06-22T03:36:09Z</time>
      </trkpt>
      <trkpt lat="48.57435" lon="-2.92233">
        <ele>105</ele>
        <time>2011-06-22T03:36:24Z</time>
      </trkpt>
      <trkpt lat="48.57353" lon="-2.92288">
        <ele>106</ele>
        <time>2011-06-22T03:36:40Z</time>
      </trkpt>
      <trkpt lat="48.57282" lon="-2.9235">
        <ele>108</ele>
        <time>2011-06-22T03:36:54Z</time>
      </trkpt>
      <trkpt lat="48.57253" lon="-2.92382">
        <ele>108</ele>
        <time>2011-06-22T03:36:59Z</time>
      </trkpt>
      <trkpt lat="48.57199" lon="-2.92507">
        <ele>108</ele>
        <time>2011-06-22T03:37:12Z</time>
      </trkpt>
      <trkpt lat="48.5715" lon="-2.92554">
        <ele>107</ele>
        <time>2011-06-22T03:37:20Z</time>
      </trkpt>
      <trkpt lat="48.57129" lon="-2.92566">
        <ele>106</ele>
        <time>2011-06-22T03:37:23Z</time>
      </trkpt>
      <trkpt lat="48.57052" lon="-2.92581">
        <ele>106</ele>
        <time>2011-06-22T03:37:33Z</time>
      </trkpt>
      <trkpt lat="48.57027" lon="-2.92595">
        <ele>106</ele>
        <time>2011-06-22T03:37:38Z</time>
      </trkpt>
      <trkpt lat="48.57002" lon="-2.92612">
        <ele>107</ele>
        <time>2011-06-22T03:37:43Z</time>
      </trkpt>
      <trkpt lat="48.56916" lon="-2.92704">
        <ele>109</ele>
        <time>2011-06-22T03:38:02Z</time>
      </trkpt>
      <trkpt lat="48.56875" lon="-2.92729">
        <ele>110</ele>
        <time>2011-06-22T03:38:11Z</time>
      </trkpt>
      <trkpt lat="48.56827" lon="-2.92748">
        <ele>112</ele>
        <time>2011-06-22T03:38:21Z</time>
      </trkpt>
      <trkpt lat="48.56806" lon="-2.92766">
        <ele>112</ele>
        <time>2011-06-22T03:38:26Z</time>
      </trkpt>
      <trkpt lat="48.5679" lon="-2.92791">
        <ele>113</ele>
        <time>2011-06-22T03:38:31Z</time>
      </trkpt>
      <trkpt lat="48.56759" lon="-2.92894">
        <ele>116</ele>
        <time>2011-06-22T03:38:47Z</time>
      </trkpt>
      <trkpt lat="48.56722" lon="-2.92982">
        <ele>119</ele>
        <time>2011-06-22T03:39:04Z</time>
      </trkpt>
      <trkpt lat="48.56696" lon="-2.93021">
        <ele>121</ele>
        <time>2011-06-22T03:39:13Z</time>
      </trkpt>
      <trkpt lat="48.56122" lon="-2.93495">
        <ele>124</ele>
        <time>2011-06-22T03:40:48Z</time>
      </trkpt>
      <trkpt lat="48.56097" lon="-2.93554">
        <ele>123</ele>
        <time>2011-06-22T03:40:54Z</time>
      </trkpt>
      <trkpt lat="48.56038" lon="-2.93717">
        <ele>122</ele>
        <time>2011-06-22T03:41:11Z</time>
      </trkpt>
      <trkpt lat="48.55998" lon="-2.93843">
        <ele>122</ele>
        <time>2011-06-22T03:41:23Z</time>
      </trkpt>
      <trkpt lat="48.55965" lon="-2.93958">
        <ele>120</ele>
        <time>2011-06-22T03:41:34Z</time>
      </trkpt>
      <trkpt lat="48.55946" lon="-2.94062">
        <ele>120</ele>
        <time>2011-06-22T03:41:44Z</time>
      </trkpt>
      <trkpt lat="48.55936" lon="-2.94091">
        <ele>119</ele>
        <time>2011-06-22T03:41:46Z</time>
      </trkpt>
      <trkpt lat="48.55754" lon="-2.94466">
        <ele>115</ele>
        <time>2011-06-22T03:42:28Z</time>
      </trkpt>
      <trkpt lat="48.55754" lon="-2.94466">
        <ele>115</ele>
        <time>2011-06-22T03:42:29Z</time>
      </trkpt>
      <trkpt lat="48.55714" lon="-2.94571">
        <ele>112</ele>
        <time>2011-06-22T03:42:39Z</time>
      </trkpt>
      <trkpt lat="48.55681" lon="-2.94631">
        <ele>111</ele>
        <time>2011-06-22T03:42:46Z</time>
      </trkpt>
      <trkpt lat="48.5564" lon="-2.94662">
        <ele>111</ele>
        <time>2011-06-22T03:42:54Z</time>
      </trkpt>
      <trkpt lat="48.55613" lon="-2.94699">
        <ele>112</ele>
        <time>2011-06-22T03:43:01Z</time>
      </trkpt>
      <trkpt lat="48.55618" lon="-2.94705">
        <ele>112</ele>
        <time>2011-06-22T03:43:02Z</time>
      </trkpt>
      <trkpt lat="48.55617" lon="-2.94713">
        <ele>112</ele>
        <time>2011-06-22T03:43:03Z</time>
      </trkpt>
      <trkpt lat="48.55611" lon="-2.94718">
        <ele>113</ele>
        <time>2011-06-22T03:43:04Z</time>
      </trkpt>
      <trkpt lat="48.55602" lon="-2.94716">
        <ele>113</ele>
        <time>2011-06-22T03:43:06Z</time>
      </trkpt>
      <trkpt lat="48.55571" lon="-2.94766">
        <ele>114</ele>
        <time>2011-06-22T03:43:14Z</time>
      </trkpt>
      <trkpt lat="48.55524" lon="-2.94793">
        <ele>115</ele>
        <time>2011-06-22T03:43:23Z</time>
      </trkpt>
      <trkpt lat="48.55488" lon="-2.94823">
        <ele>116</ele>
        <time>2011-06-22T03:43:31Z</time>
      </trkpt>
      <trkpt lat="48.55457" lon="-2.94865">
        <ele>117</ele>
        <time>2011-06-22T03:43:39Z</time>
      </trkpt>
      <trkpt lat="48.55438" lon="-2.94918">
        <ele>118</ele>
        <time>2011-06-22T03:43:47Z</time>
      </trkpt>
      <trkpt lat="48.55425" lon="-2.95027">
        <ele>118</ele>
        <time>2011-06-22T03:43:58Z</time>
      </trkpt>
      <trkpt lat="48.55403" lon="-2.9513">
        <ele>119</ele>
        <time>2011-06-22T03:44:09Z</time>
      </trkpt>
      <trkpt lat="48.55368" lon="-2.95222">
        <ele>119</ele>
        <time>2011-06-22T03:44:20Z</time>
      </trkpt>
      <trkpt lat="48.55348" lon="-2.95257">
        <ele>120</ele>
        <time>2011-06-22T03:44:24Z</time>
      </trkpt>
      <trkpt lat="48.55327" lon="-2.9529">
        <ele>121</ele>
        <time>2011-06-22T03:44:31Z</time>
      </trkpt>
      <trkpt lat="48.5528" lon="-2.95346">
        <ele>123</ele>
        <time>2011-06-22T03:44:44Z</time>
      </trkpt>
      <trkpt lat="48.55062" lon="-2.95575">
        <ele>123</ele>
        <time>2011-06-22T03:45:19Z</time>
      </trkpt>
      <trkpt lat="48.55044" lon="-2.95611">
        <ele>122</ele>
        <time>2011-06-22T03:45:23Z</time>
      </trkpt>
      <trkpt lat="48.55003" lon="-2.95724">
        <ele>122</ele>
        <time>2011-06-22T03:45:35Z</time>
      </trkpt>
      <trkpt lat="48.54972" lon="-2.95765">
        <ele>122</ele>
        <time>2011-06-22T03:45:41Z</time>
      </trkpt>
      <trkpt lat="48.54923" lon="-2.95817">
        <ele>123</ele>
        <time>2011-06-22T03:45:50Z</time>
      </trkpt>
      <trkpt lat="48.54906" lon="-2.95844">
        <ele>123</ele>
        <time>2011-06-22T03:45:54Z</time>
      </trkpt>
      <trkpt lat="48.54874" lon="-2.95905">
        <ele>123</ele>
        <time>2011-06-22T03:46:01Z</time>
      </trkpt>
      <trkpt lat="48.54789" lon="-2.96099">
        <ele>124</ele>
        <time>2011-06-22T03:46:24Z</time>
      </trkpt>
      <trkpt lat="48.54758" lon="-2.96161">
        <ele>123</ele>
        <time>2011-06-22T03:46:30Z</time>
      </trkpt>
      <trkpt lat="48.5475" lon="-2.96183">
        <ele>123</ele>
        <time>2011-06-22T03:46:33Z</time>
      </trkpt>
      <trkpt lat="48.54738" lon="-2.96255">
        <ele>123</ele>
        <time>2011-06-22T03:46:39Z</time>
      </trkpt>
      <trkpt lat="48.54704" lon="-2.96366">
        <ele>123</ele>
        <time>2011-06-22T03:46:50Z</time>
      </trkpt>
      <trkpt lat="48.54693" lon="-2.96415">
        <ele>123</ele>
        <time>2011-06-22T03:46:55Z</time>
      </trkpt>
      <trkpt lat="48.5468" lon="-2.96442">
        <ele>123</ele>
        <time>2011-06-22T03:46:58Z</time>
      </trkpt>
      <trkpt lat="48.54684" lon="-2.9645">
        <ele>123</ele>
        <time>2011-06-22T03:46:58Z</time>
      </trkpt>
      <trkpt lat="48.54682" lon="-2.96464">
        <ele>123</ele>
        <time>2011-06-22T03:47:00Z</time>
      </trkpt>
      <trkpt lat="48.54634" lon="-2.96597">
        <ele>123</ele>
        <time>2011-06-22T03:47:13Z</time>
      </trkpt>
      <trkpt lat="48.54611" lon="-2.96631">
        <ele>122</ele>
        <time>2011-06-22T03:47:17Z</time>
      </trkpt>
      <trkpt lat="48.54536" lon="-2.96719">
        <ele>120</ele>
        <time>2011-06-22T03:47:30Z</time>
      </trkpt>
      <trkpt lat="48.54445" lon="-2.96773">
        <ele>111</ele>
        <time>2011-06-22T03:47:43Z</time>
      </trkpt>
      <trkpt lat="48.54445" lon="-2.96772">
        <ele>110</ele>
        <time>2011-06-22T03:47:43Z</time>
      </trkpt>
      <trkpt lat="48.54398" lon="-2.96804">
        <ele>108</ele>
        <time>2011-06-22T03:47:50Z</time>
      </trkpt>
      <trkpt lat="48.54341" lon="-2.96767">
        <ele>105</ele>
        <time>2011-06-22T03:47:58Z</time>
      </trkpt>
      <trkpt lat="48.54233" lon="-2.97118">
        <ele>98</ele>
        <time>2011-06-22T03:48:33Z</time>
      </trkpt>
      <trkpt lat="48.54216" lon="-2.9711">
        <ele>98</ele>
        <time>2011-06-22T03:48:37Z</time>
      </trkpt>
      <trkpt lat="48.54212" lon="-2.97133">
        <ele>99</ele>
        <time>2011-06-22T03:48:41Z</time>
      </trkpt>
      <trkpt lat="48.54205" lon="-2.97137">
        <ele>99</ele>
        <time>2011-06-22T03:48:43Z</time>
      </trkpt>
      <trkpt lat="48.54193" lon="-2.97118">
        <ele>100</ele>
        <time>2011-06-22T03:48:47Z</time>
      </trkpt>
      <trkpt lat="48.5418" lon="-2.97114">
        <ele>101</ele>
        <time>2011-06-22T03:48:50Z</time>
      </trkpt>
      <trkpt lat="48.54176" lon="-2.97096">
        <ele>101</ele>
        <time>2011-06-22T03:48:54Z</time>
      </trkpt>
      <trkpt lat="48.54162" lon="-2.97073">
        <ele>102</ele>
        <time>2011-06-22T03:48:59Z</time>
      </trkpt>
      <trkpt lat="48.54141" lon="-2.97064">
        <ele>104</ele>
        <time>2011-06-22T03:49:04Z</time>
      </trkpt>
      <trkpt lat="48.54047" lon="-2.97044">
        <ele>108</ele>
        <time>2011-06-22T03:49:26Z</time>
      </trkpt>
      <trkpt lat="48.54017" lon="-2.97048">
        <ele>108</ele>
        <time>2011-06-22T03:49:32Z</time>
      </trkpt>
      <trkpt lat="48.53924" lon="-2.97117">
        <ele>112</ele>
        <time>2011-06-22T03:49:54Z</time>
      </trkpt>
      <trkpt lat="48.53833" lon="-2.97149">
        <ele>114</ele>
        <time>2011-06-22T03:50:11Z</time>
      </trkpt>
      <trkpt lat="48.53747" lon="-2.97192">
        <ele>116</ele>
        <time>2011-06-22T03:50:28Z</time>
      </trkpt>
      <trkpt lat="48.53718" lon="-2.97213">
        <ele>116</ele>
        <time>2011-06-22T03:50:35Z</time>
      </trkpt>
      <trkpt lat="48.5367" lon="-2.97258">
        <ele>118</ele>
        <time>2011-06-22T03:50:46Z</time>
      </trkpt>
      <trkpt lat="48.5361" lon="-2.97327">
        <ele>121</ele>
        <time>2011-06-22T03:51:02Z</time>
      </trkpt>
      <trkpt lat="48.53456" lon="-2.9728">
        <ele>119</ele>
        <time>2011-06-22T03:51:23Z</time>
      </trkpt>
      <trkpt lat="48.5338" lon="-2.97268">
        <ele>118</ele>
        <time>2011-06-22T03:51:33Z</time>
      </trkpt>
      <trkpt lat="48.53291" lon="-2.97264">
        <ele>118</ele>
        <time>2011-06-22T03:51:45Z</time>
      </trkpt>
      <trkpt lat="48.53266" lon="-2.97253">
        <ele>117</ele>
        <time>2011-06-22T03:51:48Z</time>
      </trkpt>
      <trkpt lat="48.53253" lon="-2.9724">
        <ele>117</ele>
        <time>2011-06-22T03:51:51Z</time>
      </trkpt>
      <trkpt lat="48.53227" lon="-2.97196">
        <ele>117</ele>
        <time>2011-06-22T03:51:56Z</time>
      </trkpt>
      <trkpt lat="48.53216" lon="-2.97208">
        <ele>117</ele>
        <time>2011-06-22T03:51:58Z</time>
      </trkpt>
      <trkpt lat="48.53198" lon="-2.97208">
        <ele>117</ele>
        <time>2011-06-22T03:52:00Z</time>
      </trkpt>
      <trkpt lat="48.53184" lon="-2.97188">
        <ele>117</ele>
        <time>2011-06-22T03:52:03Z</time>
      </trkpt>
      <trkpt lat="48.53183" lon="-2.97172">
        <ele>117</ele>
        <time>2011-06-22T03:52:04Z</time>
      </trkpt>
      <trkpt lat="48.53183" lon="-2.97172">
        <ele>117</ele>
        <time>2011-06-22T03:52:05Z</time>
      </trkpt>
      <trkpt lat="48.53189" lon="-2.9715">
        <ele>117</ele>
        <time>2011-06-22T03:52:08Z</time>
      </trkpt>
      <trkpt lat="48.53203" lon="-2.97138">
        <ele>117</ele>
        <time>2011-06-22T03:52:10Z</time>
      </trkpt>
      <trkpt lat="48.53214" lon="-2.97139">
        <ele>117</ele>
        <time>2011-06-22T03:52:12Z</time>
      </trkpt>
      <trkpt lat="48.53227" lon="-2.97154">
        <ele>117</ele>
        <time>2011-06-22T03:52:15Z</time>
      </trkpt>
      <trkpt lat="48.53231" lon="-2.97169">
        <ele>117</ele>
        <time>2011-06-22T03:52:16Z</time>
      </trkpt>
      <trkpt lat="48.53227" lon="-2.97196">
        <ele>118</ele>
        <time>2011-06-22T03:52:19Z</time>
      </trkpt>
      <trkpt lat="48.53216" lon="-2.97208">
        <ele>118</ele>
        <time>2011-06-22T03:52:22Z</time>
      </trkpt>
      <trkpt lat="48.53198" lon="-2.97208">
        <ele>118</ele>
        <time>2011-06-22T03:52:24Z</time>
      </trkpt>
      <trkpt lat="48.53195" lon="-2.97396">
        <ele>120</ele>
        <time>2011-06-22T03:52:45Z</time>
      </trkpt>
      <trkpt lat="48.53187" lon="-2.97479">
        <ele>122</ele>
        <time>2011-06-22T03:52:57Z</time>
      </trkpt>
      <trkpt lat="48.53177" lon="-2.97558">
        <ele>124</ele>
        <time>2011-06-22T03:53:09Z</time>
      </trkpt>
      <trkpt lat="48.53138" lon="-2.97717">
        <ele>127</ele>
        <time>2011-06-22T03:53:31Z</time>
      </trkpt>
      <trkpt lat="48.53139" lon="-2.9787">
        <ele>124</ele>
        <time>2011-06-22T03:53:45Z</time>
      </trkpt>
      <trkpt lat="48.53148" lon="-2.97952">
        <ele>120</ele>
        <time>2011-06-22T03:53:52Z</time>
      </trkpt>
      <trkpt lat="48.53148" lon="-2.97952">
        <ele>120</ele>
        <time>2011-06-22T03:53:53Z</time>
      </trkpt>
      <trkpt lat="48.5316" lon="-2.98048">
        <ele>117</ele>
        <time>2011-06-22T03:54:02Z</time>
      </trkpt>
      <trkpt lat="48.53173" lon="-2.98088">
        <ele>117</ele>
        <time>2011-06-22T03:54:06Z</time>
      </trkpt>
      <trkpt lat="48.53125" lon="-2.98164">
        <ele>118</ele>
        <time>2011-06-22T03:54:18Z</time>
      </trkpt>
      <trkpt lat="48.53086" lon="-2.982">
        <ele>119</ele>
        <time>2011-06-22T03:54:26Z</time>
      </trkpt>
      <trkpt lat="48.5302" lon="-2.98276">
        <ele>121</ele>
        <time>2011-06-22T03:54:42Z</time>
      </trkpt>
      <trkpt lat="48.53" lon="-2.9832">
        <ele>122</ele>
        <time>2011-06-22T03:54:49Z</time>
      </trkpt>
      <trkpt lat="48.52988" lon="-2.98387">
        <ele>123</ele>
        <time>2011-06-22T03:54:58Z</time>
      </trkpt>
      <trkpt lat="48.52971" lon="-2.98424">
        <ele>124</ele>
        <time>2011-06-22T03:55:04Z</time>
      </trkpt>
      <trkpt lat="48.52939" lon="-2.98452">
        <ele>125</ele>
        <time>2011-06-22T03:55:11Z</time>
      </trkpt>
      <trkpt lat="48.52857" lon="-2.98508">
        <ele>126</ele>
        <time>2011-06-22T03:55:25Z</time>
      </trkpt>
      <trkpt lat="48.52823" lon="-2.98552">
        <ele>126</ele>
        <time>2011-06-22T03:55:31Z</time>
      </trkpt>
      <trkpt lat="48.52799" lon="-2.98599">
        <ele>126</ele>
        <time>2011-06-22T03:55:37Z</time>
      </trkpt>
      <trkpt lat="48.52775" lon="-2.98633">
        <ele>126</ele>
        <time>2011-06-22T03:55:41Z</time>
      </trkpt>
      <trkpt lat="48.52595" lon="-2.98843">
        <ele>129</ele>
        <time>2011-06-22T03:56:19Z</time>
      </trkpt>
      <trkpt lat="48.52524" lon="-2.98904">
        <ele>130</ele>
        <time>2011-06-22T03:56:32Z</time>
      </trkpt>
      <trkpt lat="48.52524" lon="-2.98904">
        <ele>130</ele>
        <time>2011-06-22T03:56:33Z</time>
      </trkpt>
      <trkpt lat="48.52462" lon="-2.98952">
        <ele>130</ele>
        <time>2011-06-22T03:56:42Z</time>
      </trkpt>
      <trkpt lat="48.52372" lon="-2.99031">
        <ele>130</ele>
        <time>2011-06-22T03:56:56Z</time>
      </trkpt>
      <trkpt lat="48.5227" lon="-2.99137">
        <ele>133</ele>
        <time>2011-06-22T03:57:20Z</time>
      </trkpt>
      <trkpt lat="48.52209" lon="-2.99096">
        <ele>132</ele>
        <time>2011-06-22T03:57:29Z</time>
      </trkpt>
      <trkpt lat="48.52121" lon="-2.99054">
        <ele>132</ele>
        <time>2011-06-22T03:57:41Z</time>
      </trkpt>
      <trkpt lat="48.52103" lon="-2.99051">
        <ele>132</ele>
        <time>2011-06-22T03:57:44Z</time>
      </trkpt>
      <trkpt lat="48.51996" lon="-2.99058">
        <ele>133</ele>
        <time>2011-06-22T03:58:00Z</time>
      </trkpt>
      <trkpt lat="48.51941" lon="-2.99045">
        <ele>134</ele>
        <time>2011-06-22T03:58:11Z</time>
      </trkpt>
      <trkpt lat="48.51886" lon="-2.99045">
        <ele>136</ele>
        <time>2011-06-22T03:58:22Z</time>
      </trkpt>
      <trkpt lat="48.51824" lon="-2.99038">
        <ele>136</ele>
        <time>2011-06-22T03:58:32Z</time>
      </trkpt>
      <trkpt lat="48.51777" lon="-2.99021">
        <ele>137</ele>
        <time>2011-06-22T03:58:40Z</time>
      </trkpt>
      <trkpt lat="48.51723" lon="-2.98992">
        <ele>139</ele>
        <time>2011-06-22T03:58:53Z</time>
      </trkpt>
      <trkpt lat="48.51645" lon="-2.98976">
        <ele>143</ele>
        <time>2011-06-22T03:59:12Z</time>
      </trkpt>
      <trkpt lat="48.51587" lon="-2.98956">
        <ele>144</ele>
        <time>2011-06-22T03:59:23Z</time>
      </trkpt>
      <trkpt lat="48.51467" lon="-2.98893">
        <ele>147</ele>
        <time>2011-06-22T03:59:47Z</time>
      </trkpt>
      <trkpt lat="48.51409" lon="-2.98883">
        <ele>148</ele>
        <time>2011-06-22T03:59:57Z</time>
      </trkpt>
      <trkpt lat="48.51361" lon="-2.98864">
        <ele>149</ele>
        <time>2011-06-22T04:00:06Z</time>
      </trkpt>
      <trkpt lat="48.5134" lon="-2.98864">
        <ele>149</ele>
        <time>2011-06-22T04:00:10Z</time>
      </trkpt>
      <trkpt lat="48.51245" lon="-2.98884">
        <ele>152</ele>
        <time>2011-06-22T04:00:29Z</time>
      </trkpt>
      <trkpt lat="48.51221" lon="-2.98882">
        <ele>152</ele>
        <time>2011-06-22T04:00:32Z</time>
      </trkpt>
      <trkpt lat="48.5114" lon="-2.98799">
        <ele>153</ele>
        <time>2011-06-22T04:00:47Z</time>
      </trkpt>
      <trkpt lat="48.51132" lon="-2.98781">
        <ele>152</ele>
        <time>2011-06-22T04:00:49Z</time>
      </trkpt>
      <trkpt lat="48.51117" lon="-2.98669">
        <ele>152</ele>
        <time>2011-06-22T04:00:59Z</time>
      </trkpt>
      <trkpt lat="48.51106" lon="-2.98625">
        <ele>152</ele>
        <time>2011-06-22T04:01:04Z</time>
      </trkpt>
      <trkpt lat="48.51118" lon="-2.98593">
        <ele>150</ele>
        <time>2011-06-22T04:01:07Z</time>
      </trkpt>
      <trkpt lat="48.51134" lon="-2.98566">
        <ele>150</ele>
        <time>2011-06-22T04:01:10Z</time>
      </trkpt>
      <trkpt lat="48.51134" lon="-2.98566">
        <ele>150</ele>
        <time>2011-06-22T04:01:11Z</time>
      </trkpt>
      <trkpt lat="48.51186" lon="-2.98505">
        <ele>149</ele>
        <time>2011-06-22T04:01:20Z</time>
      </trkpt>
      <trkpt lat="48.51196" lon="-2.98469">
        <ele>149</ele>
        <time>2011-06-22T04:01:23Z</time>
      </trkpt>
      <trkpt lat="48.512" lon="-2.98407">
        <ele>149</ele>
        <time>2011-06-22T04:01:29Z</time>
      </trkpt>
      <trkpt lat="48.51177" lon="-2.98369">
        <ele>148</ele>
        <time>2011-06-22T04:01:33Z</time>
      </trkpt>
      <trkpt lat="48.51167" lon="-2.98341">
        <ele>148</ele>
        <time>2011-06-22T04:01:36Z</time>
      </trkpt>
      <trkpt lat="48.51146" lon="-2.98202">
        <ele>147</ele>
        <time>2011-06-22T04:01:49Z</time>
      </trkpt>
      <trkpt lat="48.51144" lon="-2.98169">
        <ele>147</ele>
        <time>2011-06-22T04:01:52Z</time>
      </trkpt>
      <trkpt lat="48.51147" lon="-2.98134">
        <ele>147</ele>
        <time>2011-06-22T04:01:55Z</time>
      </trkpt>
      <trkpt lat="48.51156" lon="-2.98118">
        <ele>147</ele>
        <time>2011-06-22T04:01:57Z</time>
      </trkpt>
      <trkpt lat="48.51198" lon="-2.98072">
        <ele>147</ele>
        <time>2011-06-22T04:02:04Z</time>
      </trkpt>
      <trkpt lat="48.5121" lon="-2.98041">
        <ele>147</ele>
        <time>2011-06-22T04:02:08Z</time>
      </trkpt>
      <trkpt lat="48.51225" lon="-2.98017">
        <ele>148</ele>
        <time>2011-06-22T04:02:13Z</time>
      </trkpt>
      <trkpt lat="48.51261" lon="-2.9799">
        <ele>149</ele>
        <time>2011-06-22T04:02:21Z</time>
      </trkpt>
      <trkpt lat="48.51266" lon="-2.97836">
        <ele>152</ele>
        <time>2011-06-22T04:02:41Z</time>
      </trkpt>
      <trkpt lat="48.5126" lon="-2.97801">
        <ele>152</ele>
        <time>2011-06-22T04:02:45Z</time>
      </trkpt>
      <trkpt lat="48.51237" lon="-2.97768">
        <ele>153</ele>
        <time>2011-06-22T04:02:51Z</time>
      </trkpt>
      <trkpt lat="48.51194" lon="-2.97733">
        <ele>154</ele>
        <time>2011-06-22T04:02:59Z</time>
      </trkpt>
      <trkpt lat="48.51151" lon="-2.97688">
        <ele>152</ele>
        <time>2011-06-22T04:03:06Z</time>
      </trkpt>
      <trkpt lat="48.51133" lon="-2.97648">
        <ele>151</ele>
        <time>2011-06-22T04:03:11Z</time>
      </trkpt>
      <trkpt lat="48.5113" lon="-2.97626">
        <ele>151</ele>
        <time>2011-06-22T04:03:13Z</time>
      </trkpt>
      <trkpt lat="48.51035" lon="-2.97634">
        <ele>149</ele>
        <time>2011-06-22T04:03:25Z</time>
      </trkpt>
      <trkpt lat="48.50971" lon="-2.97623">
        <ele>147</ele>
        <time>2011-06-22T04:03:34Z</time>
      </trkpt>
      <trkpt lat="48.50945" lon="-2.97613">
        <ele>147</ele>
        <time>2011-06-22T04:03:38Z</time>
      </trkpt>
      <trkpt lat="48.50747" lon="-2.97501">
        <ele>144</ele>
        <time>2011-06-22T04:04:06Z</time>
      </trkpt>
      <trkpt lat="48.50357" lon="-2.97268">
        <ele>142</ele>
        <time>2011-06-22T04:05:02Z</time>
      </trkpt>
      <trkpt lat="48.50331" lon="-2.97261">
        <ele>141</ele>
        <time>2011-06-22T04:05:05Z</time>
      </trkpt>
      <trkpt lat="48.50324" lon="-2.97259">
        <ele>141</ele>
        <time>2011-06-22T04:05:06Z</time>
      </trkpt>
      <trkpt lat="48.50324" lon="-2.97259">
        <ele>141</ele>
        <time>2011-06-22T04:05:07Z</time>
      </trkpt>
      <trkpt lat="48.5018" lon="-2.97229">
        <ele>138</ele>
        <time>2011-06-22T04:05:27Z</time>
      </trkpt>
      <trkpt lat="48.49987" lon="-2.97197">
        <ele>143</ele>
        <time>2011-06-22T04:06:05Z</time>
      </trkpt>
      <trkpt lat="48.49902" lon="-2.97145">
        <ele>148</ele>
        <time>2011-06-22T04:06:29Z</time>
      </trkpt>
      <trkpt lat="48.49877" lon="-2.97122">
        <ele>146</ele>
        <time>2011-06-22T04:06:33Z</time>
      </trkpt>
      <trkpt lat="48.49849" lon="-2.97075">
        <ele>144</ele>
        <time>2011-06-22T04:06:38Z</time>
      </trkpt>
      <trkpt lat="48.49786" lon="-2.96903">
        <ele>138</ele>
        <time>2011-06-22T04:06:56Z</time>
      </trkpt>
      <trkpt lat="48.49748" lon="-2.96826">
        <ele>135</ele>
        <time>2011-06-22T04:07:04Z</time>
      </trkpt>
      <trkpt lat="48.49714" lon="-2.96763">
        <ele>134</ele>
        <time>2011-06-22T04:07:12Z</time>
      </trkpt>
      <trkpt lat="48.49681" lon="-2.96713">
        <ele>134</ele>
        <time>2011-06-22T04:07:18Z</time>
      </trkpt>
      <trkpt lat="48.49647" lon="-2.96685">
        <ele>134</ele>
        <time>2011-06-22T04:07:24Z</time>
      </trkpt>
      <trkpt lat="48.49476" lon="-2.96566">
        <ele>135</ele>
        <time>2011-06-22T04:07:51Z</time>
      </trkpt>
      <trkpt lat="48.49276" lon="-2.9644">
        <ele>139</ele>
        <time>2011-06-22T04:08:29Z</time>
      </trkpt>
      <trkpt lat="48.49208" lon="-2.96406">
        <ele>140</ele>
        <time>2011-06-22T04:08:41Z</time>
      </trkpt>
      <trkpt lat="48.49151" lon="-2.96378">
        <ele>141</ele>
        <time>2011-06-22T04:08:51Z</time>
      </trkpt>
      <trkpt lat="48.49021" lon="-2.96331">
        <ele>143</ele>
        <time>2011-06-22T04:09:14Z</time>
      </trkpt>
      <trkpt lat="48.4895" lon="-2.963">
        <ele>146</ele>
        <time>2011-06-22T04:09:32Z</time>
      </trkpt>
      <trkpt lat="48.48889" lon="-2.96267">
        <ele>149</ele>
        <time>2011-06-22T04:09:47Z</time>
      </trkpt>
      <trkpt lat="48.48673" lon="-2.96209">
        <ele>173</ele>
        <time>2011-06-22T04:11:14Z</time>
      </trkpt>
      <trkpt lat="48.4854" lon="-2.96182">
        <ele>174</ele>
        <time>2011-06-22T04:11:34Z</time>
      </trkpt>
      <trkpt lat="48.48527" lon="-2.96175">
        <ele>174</ele>
        <time>2011-06-22T04:11:36Z</time>
      </trkpt>
      <trkpt lat="48.4846" lon="-2.96088">
        <ele>174</ele>
        <time>2011-06-22T04:11:48Z</time>
      </trkpt>
      <trkpt lat="48.48427" lon="-2.96053">
        <ele>174</ele>
        <time>2011-06-22T04:11:53Z</time>
      </trkpt>
      <trkpt lat="48.48427" lon="-2.96052">
        <ele>173</ele>
        <time>2011-06-22T04:11:53Z</time>
      </trkpt>
      <trkpt lat="48.48403" lon="-2.96024">
        <ele>173</ele>
        <time>2011-06-22T04:11:57Z</time>
      </trkpt>
      <trkpt lat="48.48311" lon="-2.96014">
        <ele>172</ele>
        <time>2011-06-22T04:12:10Z</time>
      </trkpt>
      <trkpt lat="48.48287" lon="-2.96016">
        <ele>172</ele>
        <time>2011-06-22T04:12:13Z</time>
      </trkpt>
      <trkpt lat="48.48268" lon="-2.96027">
        <ele>172</ele>
        <time>2011-06-22T04:12:17Z</time>
      </trkpt>
      <trkpt lat="48.4827" lon="-2.96098">
        <ele>172</ele>
        <time>2011-06-22T04:12:24Z</time>
      </trkpt>
      <trkpt lat="48.4826" lon="-2.96161">
        <ele>173</ele>
        <time>2011-06-22T04:12:30Z</time>
      </trkpt>
      <trkpt lat="48.48248" lon="-2.96196">
        <ele>172</ele>
        <time>2011-06-22T04:12:34Z</time>
      </trkpt>
      <trkpt lat="48.48208" lon="-2.96275">
        <ele>171</ele>
        <time>2011-06-22T04:12:42Z</time>
      </trkpt>
      <trkpt lat="48.48127" lon="-2.96386">
        <ele>168</ele>
        <time>2011-06-22T04:12:57Z</time>
      </trkpt>
      <trkpt lat="48.48102" lon="-2.96432">
        <ele>168</ele>
        <time>2011-06-22T04:13:02Z</time>
      </trkpt>
      <trkpt lat="48.48094" lon="-2.96458">
        <ele>168</ele>
        <time>2011-06-22T04:13:05Z</time>
      </trkpt>
      <trkpt lat="48.48081" lon="-2.96522">
        <ele>168</ele>
        <time>2011-06-22T04:13:11Z</time>
      </trkpt>
      <trkpt lat="48.48056" lon="-2.96721">
        <ele>177</ele>
        <time>2011-06-22T04:13:50Z</time>
      </trkpt>
      <trkpt lat="48.48041" lon="-2.96803">
        <ele>180</ele>
        <time>2011-06-22T04:14:06Z</time>
      </trkpt>
      <trkpt lat="48.48015" lon="-2.96906">
        <ele>185</ele>
        <time>2011-06-22T04:14:27Z</time>
      </trkpt>
      <trkpt lat="48.47992" lon="-2.96967">
        <ele>184</ele>
        <time>2011-06-22T04:14:33Z</time>
      </trkpt>
      <trkpt lat="48.47984" lon="-2.96981">
        <ele>184</ele>
        <time>2011-06-22T04:14:35Z</time>
      </trkpt>
      <trkpt lat="48.47959" lon="-2.97007">
        <ele>183</ele>
        <time>2011-06-22T04:14:39Z</time>
      </trkpt>
      <trkpt lat="48.47889" lon="-2.97067">
        <ele>183</ele>
        <time>2011-06-22T04:14:49Z</time>
      </trkpt>
      <trkpt lat="48.47841" lon="-2.97123">
        <ele>181</ele>
        <time>2011-06-22T04:14:58Z</time>
      </trkpt>
      <trkpt lat="48.4781" lon="-2.97171">
        <ele>181</ele>
        <time>2011-06-22T04:15:04Z</time>
      </trkpt>
      <trkpt lat="48.47741" lon="-2.97311">
        <ele>178</ele>
        <time>2011-06-22T04:15:19Z</time>
      </trkpt>
      <trkpt lat="48.47689" lon="-2.97377">
        <ele>174</ele>
        <time>2011-06-22T04:15:28Z</time>
      </trkpt>
      <trkpt lat="48.4766" lon="-2.97393">
        <ele>173</ele>
        <time>2011-06-22T04:15:32Z</time>
      </trkpt>
      <trkpt lat="48.47613" lon="-2.97385">
        <ele>171</ele>
        <time>2011-06-22T04:15:38Z</time>
      </trkpt>
      <trkpt lat="48.47573" lon="-2.97399">
        <ele>169</ele>
        <time>2011-06-22T04:15:44Z</time>
      </trkpt>
      <trkpt lat="48.47513" lon="-2.97442">
        <ele>167</ele>
        <time>2011-06-22T04:15:53Z</time>
      </trkpt>
      <trkpt lat="48.47475" lon="-2.97484">
        <ele>166</ele>
        <time>2011-06-22T04:15:59Z</time>
      </trkpt>
      <trkpt lat="48.47442" lon="-2.97549">
        <ele>165</ele>
        <time>2011-06-22T04:16:06Z</time>
      </trkpt>
      <trkpt lat="48.47403" lon="-2.97668">
        <ele>168</ele>
        <time>2011-06-22T04:16:28Z</time>
      </trkpt>
      <trkpt lat="48.47274" lon="-2.97983">
        <ele>180</ele>
        <time>2011-06-22T04:17:27Z</time>
      </trkpt>
      <trkpt lat="48.47241" lon="-2.98053">
        <ele>184</ele>
        <time>2011-06-22T04:17:45Z</time>
      </trkpt>
      <trkpt lat="48.47196" lon="-2.98103">
        <ele>189</ele>
        <time>2011-06-22T04:18:04Z</time>
      </trkpt>
      <trkpt lat="48.47019" lon="-2.98266">
        <ele>197</ele>
        <time>2011-06-22T04:18:51Z</time>
      </trkpt>
      <trkpt lat="48.4689" lon="-2.98395">
        <ele>205</ele>
        <time>2011-06-22T04:19:30Z</time>
      </trkpt>
      <trkpt lat="48.46848" lon="-2.98458">
        <ele>205</ele>
        <time>2011-06-22T04:19:41Z</time>
      </trkpt>
      <trkpt lat="48.46814" lon="-2.98544">
        <ele>207</ele>
        <time>2011-06-22T04:19:52Z</time>
      </trkpt>
      <trkpt lat="48.46793" lon="-2.98628">
        <ele>210</ele>
        <time>2011-06-22T04:20:07Z</time>
      </trkpt>
      <trkpt lat="48.46793" lon="-2.98628">
        <ele>210</ele>
        <time>2011-06-22T04:20:08Z</time>
      </trkpt>
      <trkpt lat="48.46755" lon="-2.98795">
        <ele>206</ele>
        <time>2011-06-22T04:20:24Z</time>
      </trkpt>
      <trkpt lat="48.46737" lon="-2.98843">
        <ele>205</ele>
        <time>2011-06-22T04:20:29Z</time>
      </trkpt>
      <trkpt lat="48.46715" lon="-2.98873">
        <ele>205</ele>
        <time>2011-06-22T04:20:33Z</time>
      </trkpt>
      <trkpt lat="48.46601" lon="-2.98948">
        <ele>204</ele>
        <time>2011-06-22T04:20:49Z</time>
      </trkpt>
      <trkpt lat="48.46581" lon="-2.98968">
        <ele>204</ele>
        <time>2011-06-22T04:20:55Z</time>
      </trkpt>
      <trkpt lat="48.46551" lon="-2.99019">
        <ele>206</ele>
        <time>2011-06-22T04:21:05Z</time>
      </trkpt>
      <trkpt lat="48.46411" lon="-2.99336">
        <ele>217</ele>
        <time>2011-06-22T04:22:03Z</time>
      </trkpt>
      <trkpt lat="48.46383" lon="-2.99417">
        <ele>215</ele>
        <time>2011-06-22T04:22:11Z</time>
      </trkpt>
      <trkpt lat="48.46372" lon="-2.99473">
        <ele>215</ele>
        <time>2011-06-22T04:22:17Z</time>
      </trkpt>
      <trkpt lat="48.46353" lon="-2.99539">
        <ele>215</ele>
        <time>2011-06-22T04:22:23Z</time>
      </trkpt>
      <trkpt lat="48.4634" lon="-2.99557">
        <ele>215</ele>
        <time>2011-06-22T04:22:25Z</time>
      </trkpt>
      <trkpt lat="48.46253" lon="-2.99653">
        <ele>215</ele>
        <time>2011-06-22T04:22:40Z</time>
      </trkpt>
      <trkpt lat="48.45755" lon="-3.00244">
        <ele>229</ele>
        <time>2011-06-22T04:24:38Z</time>
      </trkpt>
      <trkpt lat="48.45709" lon="-3.00293">
        <ele>229</ele>
        <time>2011-06-22T04:24:46Z</time>
      </trkpt>
      <trkpt lat="48.45299" lon="-3.00627">
        <ele>229</ele>
        <time>2011-06-22T04:25:48Z</time>
      </trkpt>
      <trkpt lat="48.45227" lon="-3.00689">
        <ele>229</ele>
        <time>2011-06-22T04:25:59Z</time>
      </trkpt>
      <trkpt lat="48.45102" lon="-3.00809">
        <ele>229</ele>
        <time>2011-06-22T04:26:19Z</time>
      </trkpt>
      <trkpt lat="48.45071" lon="-3.00847">
        <ele>229</ele>
        <time>2011-06-22T04:26:25Z</time>
      </trkpt>
      <trkpt lat="48.44989" lon="-3.00975">
        <ele>230</ele>
        <time>2011-06-22T04:26:42Z</time>
      </trkpt>
      <trkpt lat="48.4487" lon="-3.01133">
        <ele>230</ele>
        <time>2011-06-22T04:27:03Z</time>
      </trkpt>
      <trkpt lat="48.44808" lon="-3.01243">
        <ele>231</ele>
        <time>2011-06-22T04:27:19Z</time>
      </trkpt>
      <trkpt lat="48.44709" lon="-3.01473">
        <ele>235</ele>
        <time>2011-06-22T04:27:52Z</time>
      </trkpt>
      <trkpt lat="48.44599" lon="-3.01616">
        <ele>238</ele>
        <time>2011-06-22T04:28:19Z</time>
      </trkpt>
      <trkpt lat="48.44599" lon="-3.01616">
        <ele>238</ele>
        <time>2011-06-22T04:28:20Z</time>
      </trkpt>
      <trkpt lat="48.44569" lon="-3.01653">
        <ele>238</ele>
        <time>2011-06-22T04:28:25Z</time>
      </trkpt>
      <trkpt lat="48.44642" lon="-3.01834">
        <ele>238</ele>
        <time>2011-06-22T04:28:44Z</time>
      </trkpt>
      <trkpt lat="48.4471" lon="-3.02033">
        <ele>235</ele>
        <time>2011-06-22T04:29:04Z</time>
      </trkpt>
      <trkpt lat="48.4471" lon="-3.02033">
        <ele>235</ele>
        <time>2011-06-22T04:29:05Z</time>
      </trkpt>
      <trkpt lat="48.44755" lon="-3.02166">
        <ele>233</ele>
        <time>2011-06-22T04:29:18Z</time>
      </trkpt>
      <trkpt lat="48.44811" lon="-3.02355">
        <ele>225</ele>
        <time>2011-06-22T04:29:36Z</time>
      </trkpt>
      <trkpt lat="48.44877" lon="-3.02458">
        <ele>220</ele>
        <time>2011-06-22T04:29:49Z</time>
      </trkpt>
      <trkpt lat="48.44958" lon="-3.02567">
        <ele>218</ele>
        <time>2011-06-22T04:30:04Z</time>
      </trkpt>
      <trkpt lat="48.45051" lon="-3.02713">
        <ele>215</ele>
        <time>2011-06-22T04:30:22Z</time>
      </trkpt>
      <trkpt lat="48.45086" lon="-3.02771">
        <ele>214</ele>
        <time>2011-06-22T04:30:28Z</time>
      </trkpt>
      <trkpt lat="48.45098" lon="-3.02798">
        <ele>214</ele>
        <time>2011-06-22T04:30:31Z</time>
      </trkpt>
      <trkpt lat="48.4514" lon="-3.02916">
        <ele>214</ele>
        <time>2011-06-22T04:30:43Z</time>
      </trkpt>
      <trkpt lat="48.45316" lon="-3.03503">
        <ele>194</ele>
        <time>2011-06-22T04:31:40Z</time>
      </trkpt>
      <trkpt lat="48.4532" lon="-3.03528">
        <ele>193</ele>
        <time>2011-06-22T04:31:43Z</time>
      </trkpt>
      <trkpt lat="48.45324" lon="-3.03603">
        <ele>192</ele>
        <time>2011-06-22T04:31:49Z</time>
      </trkpt>
      <trkpt lat="48.45315" lon="-3.03706">
        <ele>190</ele>
        <time>2011-06-22T04:31:58Z</time>
      </trkpt>
      <trkpt lat="48.4531" lon="-3.03734">
        <ele>188</ele>
        <time>2011-06-22T04:32:01Z</time>
      </trkpt>
      <trkpt lat="48.45282" lon="-3.03826">
        <ele>183</ele>
        <time>2011-06-22T04:32:10Z</time>
      </trkpt>
      <trkpt lat="48.45266" lon="-3.03898">
        <ele>180</ele>
        <time>2011-06-22T04:32:17Z</time>
      </trkpt>
      <trkpt lat="48.45259" lon="-3.03954">
        <ele>178</ele>
        <time>2011-06-22T04:32:22Z</time>
      </trkpt>
      <trkpt lat="48.45258" lon="-3.04052">
        <ele>175</ele>
        <time>2011-06-22T04:32:30Z</time>
      </trkpt>
      <trkpt lat="48.4526" lon="-3.04097">
        <ele>177</ele>
        <time>2011-06-22T04:32:41Z</time>
      </trkpt>
      <trkpt lat="48.45265" lon="-3.04125">
        <ele>179</ele>
        <time>2011-06-22T04:32:48Z</time>
      </trkpt>
      <trkpt lat="48.45285" lon="-3.04189">
        <ele>184</ele>
        <time>2011-06-22T04:33:05Z</time>
      </trkpt>
      <trkpt lat="48.45518" lon="-3.04715">
        <ele>198</ele>
        <time>2011-06-22T04:34:35Z</time>
      </trkpt>
      <trkpt lat="48.45518" lon="-3.04715">
        <ele>198</ele>
        <time>2011-06-22T04:34:36Z</time>
      </trkpt>
      <trkpt lat="48.45532" lon="-3.04748">
        <ele>198</ele>
        <time>2011-06-22T04:34:40Z</time>
      </trkpt>
      <trkpt lat="48.45547" lon="-3.04723">
        <ele>198</ele>
        <time>2011-06-22T04:34:43Z</time>
      </trkpt>
      <trkpt lat="48.45615" lon="-3.04683">
        <ele>199</ele>
        <time>2011-06-22T04:34:54Z</time>
      </trkpt>
      <trkpt lat="48.45634" lon="-3.04662">
        <ele>198</ele>
        <time>2011-06-22T04:34:57Z</time>
      </trkpt>
      <trkpt lat="48.45677" lon="-3.04346">
        <ele>198</ele>
        <time>2011-06-22T04:35:26Z</time>
      </trkpt>
      <trkpt lat="48.45685" lon="-3.04332">
        <ele>197</ele>
        <time>2011-06-22T04:35:28Z</time>
      </trkpt>
      <trkpt lat="48.45805" lon="-3.04197">
        <ele>196</ele>
        <time>2011-06-22T04:35:48Z</time>
      </trkpt>
      <trkpt lat="48.45851" lon="-3.04136">
        <ele>197</ele>
        <time>2011-06-22T04:35:58Z</time>
      </trkpt>
      <trkpt lat="48.45858" lon="-3.04121">
        <ele>197</ele>
        <time>2011-06-22T04:36:00Z</time>
      </trkpt>
      <trkpt lat="48.45883" lon="-3.03876">
        <ele>200</ele>
        <time>2011-06-22T04:36:29Z</time>
      </trkpt>
      <trkpt lat="48.45923" lon="-3.03892">
        <ele>200</ele>
        <time>2011-06-22T04:36:34Z</time>
      </trkpt>
      <trkpt lat="48.45938" lon="-3.03906">
        <ele>200</ele>
        <time>2011-06-22T04:36:37Z</time>
      </trkpt>
      <trkpt lat="48.46008" lon="-3.04025">
        <ele>200</ele>
        <time>2011-06-22T04:36:51Z</time>
      </trkpt>
      <trkpt lat="48.46079" lon="-3.04111">
        <ele>199</ele>
        <time>2011-06-22T04:37:03Z</time>
      </trkpt>
      <trkpt lat="48.46079" lon="-3.04111">
        <ele>199</ele>
        <time>2011-06-22T04:37:04Z</time>
      </trkpt>
      <trkpt lat="48.46104" lon="-3.04143">
        <ele>198</ele>
        <time>2011-06-22T04:37:08Z</time>
      </trkpt>
      <trkpt lat="48.46257" lon="-3.04327">
        <ele>195</ele>
        <time>2011-06-22T04:37:35Z</time>
      </trkpt>
      <trkpt lat="48.46289" lon="-3.04357">
        <ele>195</ele>
        <time>2011-06-22T04:37:42Z</time>
      </trkpt>
      <trkpt lat="48.46392" lon="-3.04436">
        <ele>199</ele>
        <time>2011-06-22T04:38:05Z</time>
      </trkpt>
      <trkpt lat="48.46387" lon="-3.04497">
        <ele>196</ele>
        <time>2011-06-22T04:38:10Z</time>
      </trkpt>
      <trkpt lat="48.4638" lon="-3.04778">
        <ele>184</ele>
        <time>2011-06-22T04:38:35Z</time>
      </trkpt>
      <trkpt lat="48.46375" lon="-3.04822">
        <ele>183</ele>
        <time>2011-06-22T04:38:39Z</time>
      </trkpt>
      <trkpt lat="48.46369" lon="-3.04842">
        <ele>183</ele>
        <time>2011-06-22T04:38:41Z</time>
      </trkpt>
      <trkpt lat="48.46348" lon="-3.04885">
        <ele>183</ele>
        <time>2011-06-22T04:38:46Z</time>
      </trkpt>
      <trkpt lat="48.46281" lon="-3.04996">
        <ele>183</ele>
        <time>2011-06-22T04:38:59Z</time>
      </trkpt>
      <trkpt lat="48.46271" lon="-3.05036">
        <ele>183</ele>
        <time>2011-06-22T04:39:05Z</time>
      </trkpt>
      <trkpt lat="48.46262" lon="-3.05134">
        <ele>186</ele>
        <time>2011-06-22T04:39:19Z</time>
      </trkpt>
      <trkpt lat="48.46262" lon="-3.05134">
        <ele>186</ele>
        <time>2011-06-22T04:39:20Z</time>
      </trkpt>
      <trkpt lat="48.46262" lon="-3.05296">
        <ele>187</ele>
        <time>2011-06-22T04:39:36Z</time>
      </trkpt>
      <trkpt lat="48.46254" lon="-3.0543">
        <ele>187</ele>
        <time>2011-06-22T04:39:48Z</time>
      </trkpt>
      <trkpt lat="48.46237" lon="-3.0556">
        <ele>187</ele>
        <time>2011-06-22T04:40:00Z</time>
      </trkpt>
      <trkpt lat="48.46234" lon="-3.0561">
        <ele>185</ele>
        <time>2011-06-22T04:40:05Z</time>
      </trkpt>
      <trkpt lat="48.46249" lon="-3.05694">
        <ele>183</ele>
        <time>2011-06-22T04:40:12Z</time>
      </trkpt>
      <trkpt lat="48.46232" lon="-3.05792">
        <ele>181</ele>
        <time>2011-06-22T04:40:21Z</time>
      </trkpt>
      <trkpt lat="48.4624" lon="-3.05836">
        <ele>179</ele>
        <time>2011-06-22T04:40:25Z</time>
      </trkpt>
      <trkpt lat="48.4633" lon="-3.05904">
        <ele>176</ele>
        <time>2011-06-22T04:40:39Z</time>
      </trkpt>
      <trkpt lat="48.46364" lon="-3.05907">
        <ele>175</ele>
        <time>2011-06-22T04:40:43Z</time>
      </trkpt>
      <trkpt lat="48.46393" lon="-3.05922">
        <ele>175</ele>
        <time>2011-06-22T04:40:47Z</time>
      </trkpt>
      <trkpt lat="48.46472" lon="-3.05998">
        <ele>174</ele>
        <time>2011-06-22T04:41:00Z</time>
      </trkpt>
      <trkpt lat="48.46531" lon="-3.06042">
        <ele>173</ele>
        <time>2011-06-22T04:41:09Z</time>
      </trkpt>
      <trkpt lat="48.46663" lon="-3.06078">
        <ele>173</ele>
        <time>2011-06-22T04:41:27Z</time>
      </trkpt>
      <trkpt lat="48.46772" lon="-3.06093">
        <ele>171</ele>
        <time>2011-06-22T04:41:41Z</time>
      </trkpt>
      <trkpt lat="48.46789" lon="-3.06119">
        <ele>170</ele>
        <time>2011-06-22T04:41:44Z</time>
      </trkpt>
      <trkpt lat="48.46852" lon="-3.06311">
        <ele>170</ele>
        <time>2011-06-22T04:42:03Z</time>
      </trkpt>
      <trkpt lat="48.46869" lon="-3.06336">
        <ele>170</ele>
        <time>2011-06-22T04:42:07Z</time>
      </trkpt>
      <trkpt lat="48.4706" lon="-3.06441">
        <ele>172</ele>
        <time>2011-06-22T04:42:38Z</time>
      </trkpt>
      <trkpt lat="48.47077" lon="-3.06448">
        <ele>172</ele>
        <time>2011-06-22T04:42:41Z</time>
      </trkpt>
      <trkpt lat="48.47144" lon="-3.06458">
        <ele>173</ele>
        <time>2011-06-22T04:42:53Z</time>
      </trkpt>
      <trkpt lat="48.472" lon="-3.06483">
        <ele>174</ele>
        <time>2011-06-22T04:43:02Z</time>
      </trkpt>
      <trkpt lat="48.472" lon="-3.06483">
        <ele>174</ele>
        <time>2011-06-22T04:43:03Z</time>
      </trkpt>
      <trkpt lat="48.47261" lon="-3.06527">
        <ele>177</ele>
        <time>2011-06-22T04:43:20Z</time>
      </trkpt>
      <trkpt lat="48.47373" lon="-3.06641">
        <ele>183</ele>
        <time>2011-06-22T04:43:52Z</time>
      </trkpt>
      <trkpt lat="48.47434" lon="-3.06678">
        <ele>184</ele>
        <time>2011-06-22T04:44:04Z</time>
      </trkpt>
      <trkpt lat="48.47536" lon="-3.06739">
        <ele>186</ele>
        <time>2011-06-22T04:44:23Z</time>
      </trkpt>
      <trkpt lat="48.47563" lon="-3.06763">
        <ele>185</ele>
        <time>2011-06-22T04:44:27Z</time>
      </trkpt>
      <trkpt lat="48.4774" lon="-3.06954">
        <ele>184</ele>
        <time>2011-06-22T04:44:56Z</time>
      </trkpt>
      <trkpt lat="48.47755" lon="-3.06981">
        <ele>183</ele>
        <time>2011-06-22T04:44:59Z</time>
      </trkpt>
      <trkpt lat="48.47789" lon="-3.07076">
        <ele>183</ele>
        <time>2011-06-22T04:45:09Z</time>
      </trkpt>
      <trkpt lat="48.47815" lon="-3.072">
        <ele>179</ele>
        <time>2011-06-22T04:45:20Z</time>
      </trkpt>
      <trkpt lat="48.47851" lon="-3.07308">
        <ele>176</ele>
        <time>2011-06-22T04:45:31Z</time>
      </trkpt>
      <trkpt lat="48.47871" lon="-3.07343">
        <ele>175</ele>
        <time>2011-06-22T04:45:35Z</time>
      </trkpt>
      <trkpt lat="48.48014" lon="-3.07516">
        <ele>174</ele>
        <time>2011-06-22T04:46:00Z</time>
      </trkpt>
      <trkpt lat="48.48057" lon="-3.0759">
        <ele>173</ele>
        <time>2011-06-22T04:46:08Z</time>
      </trkpt>
      <trkpt lat="48.4808" lon="-3.0765">
        <ele>173</ele>
        <time>2011-06-22T04:46:14Z</time>
      </trkpt>
      <trkpt lat="48.48086" lon="-3.07686">
        <ele>172</ele>
        <time>2011-06-22T04:46:18Z</time>
      </trkpt>
      <trkpt lat="48.48103" lon="-3.08218">
        <ele>164</ele>
        <time>2011-06-22T04:47:05Z</time>
      </trkpt>
      <trkpt lat="48.48106" lon="-3.0826">
        <ele>163</ele>
        <time>2011-06-22T04:47:09Z</time>
      </trkpt>
      <trkpt lat="48.48122" lon="-3.08338">
        <ele>162</ele>
        <time>2011-06-22T04:47:16Z</time>
      </trkpt>
      <trkpt lat="48.48135" lon="-3.08377">
        <ele>162</ele>
        <time>2011-06-22T04:47:20Z</time>
      </trkpt>
      <trkpt lat="48.48304" lon="-3.08682">
        <ele>166</ele>
        <time>2011-06-22T04:48:04Z</time>
      </trkpt>
      <trkpt lat="48.48361" lon="-3.08884">
        <ele>167</ele>
        <time>2011-06-22T04:48:26Z</time>
      </trkpt>
      <trkpt lat="48.48361" lon="-3.08884">
        <ele>167</ele>
        <time>2011-06-22T04:48:27Z</time>
      </trkpt>
      <trkpt lat="48.48411" lon="-3.09054">
        <ele>168</ele>
        <time>2011-06-22T04:48:46Z</time>
      </trkpt>
      <trkpt lat="48.48417" lon="-3.09085">
        <ele>167</ele>
        <time>2011-06-22T04:48:49Z</time>
      </trkpt>
      <trkpt lat="48.48416" lon="-3.09108">
        <ele>167</ele>
        <time>2011-06-22T04:48:51Z</time>
      </trkpt>
      <trkpt lat="48.48408" lon="-3.09136">
        <ele>167</ele>
        <time>2011-06-22T04:48:54Z</time>
      </trkpt>
      <trkpt lat="48.48353" lon="-3.09264">
        <ele>166</ele>
        <time>2011-06-22T04:49:07Z</time>
      </trkpt>
      <trkpt lat="48.48307" lon="-3.09401">
        <ele>164</ele>
        <time>2011-06-22T04:49:21Z</time>
      </trkpt>
      <trkpt lat="48.48278" lon="-3.09508">
        <ele>159</ele>
        <time>2011-06-22T04:49:31Z</time>
      </trkpt>
      <trkpt lat="48.48223" lon="-3.09641">
        <ele>153</ele>
        <time>2011-06-22T04:49:45Z</time>
      </trkpt>
      <trkpt lat="48.482" lon="-3.09724">
        <ele>150</ele>
        <time>2011-06-22T04:49:53Z</time>
      </trkpt>
      <trkpt lat="48.48166" lon="-3.09879">
        <ele>145</ele>
        <time>2011-06-22T04:50:07Z</time>
      </trkpt>
      <trkpt lat="48.48152" lon="-3.09922">
        <ele>144</ele>
        <time>2011-06-22T04:50:12Z</time>
      </trkpt>
      <trkpt lat="48.48142" lon="-3.09987">
        <ele>143</ele>
        <time>2011-06-22T04:50:18Z</time>
      </trkpt>
      <trkpt lat="48.48126" lon="-3.10172">
        <ele>140</ele>
        <time>2011-06-22T04:50:34Z</time>
      </trkpt>
      <trkpt lat="48.48128" lon="-3.10217">
        <ele>138</ele>
        <time>2011-06-22T04:50:38Z</time>
      </trkpt>
      <trkpt lat="48.48138" lon="-3.10264">
        <ele>137</ele>
        <time>2011-06-22T04:50:42Z</time>
      </trkpt>
      <trkpt lat="48.4813" lon="-3.10274">
        <ele>137</ele>
        <time>2011-06-22T04:50:44Z</time>
      </trkpt>
      <trkpt lat="48.48125" lon="-3.10295">
        <ele>136</ele>
        <time>2011-06-22T04:50:46Z</time>
      </trkpt>
      <trkpt lat="48.48124" lon="-3.10408">
        <ele>134</ele>
        <time>2011-06-22T04:50:56Z</time>
      </trkpt>
      <trkpt lat="48.48125" lon="-3.10443">
        <ele>132</ele>
        <time>2011-06-22T04:50:59Z</time>
      </trkpt>
      <trkpt lat="48.4813" lon="-3.10472">
        <ele>131</ele>
        <time>2011-06-22T04:51:02Z</time>
      </trkpt>
      <trkpt lat="48.48183" lon="-3.10586">
        <ele>127</ele>
        <time>2011-06-22T04:51:14Z</time>
      </trkpt>
      <trkpt lat="48.48221" lon="-3.1065">
        <ele>124</ele>
        <time>2011-06-22T04:51:22Z</time>
      </trkpt>
      <trkpt lat="48.48261" lon="-3.10703">
        <ele>122</ele>
        <time>2011-06-22T04:51:29Z</time>
      </trkpt>
      <trkpt lat="48.48285" lon="-3.10751">
        <ele>119</ele>
        <time>2011-06-22T04:51:34Z</time>
      </trkpt>
      <trkpt lat="48.48287" lon="-3.10774">
        <ele>118</ele>
        <time>2011-06-22T04:51:36Z</time>
      </trkpt>
      <trkpt lat="48.48282" lon="-3.10849">
        <ele>115</ele>
        <time>2011-06-22T04:51:43Z</time>
      </trkpt>
      <trkpt lat="48.4827" lon="-3.10917">
        <ele>113</ele>
        <time>2011-06-22T04:51:49Z</time>
      </trkpt>
      <trkpt lat="48.4825" lon="-3.10964">
        <ele>112</ele>
        <time>2011-06-22T04:51:54Z</time>
      </trkpt>
      <trkpt lat="48.48203" lon="-3.11016">
        <ele>110</ele>
        <time>2011-06-22T04:52:02Z</time>
      </trkpt>
      <trkpt lat="48.48196" lon="-3.1103">
        <ele>109</ele>
        <time>2011-06-22T04:52:03Z</time>
      </trkpt>
      <trkpt lat="48.4819" lon="-3.11071">
        <ele>109</ele>
        <time>2011-06-22T04:52:07Z</time>
      </trkpt>
      <trkpt lat="48.48203" lon="-3.11172">
        <ele>109</ele>
        <time>2011-06-22T04:52:16Z</time>
      </trkpt>
      <trkpt lat="48.48215" lon="-3.11224">
        <ele>107</ele>
        <time>2011-06-22T04:52:21Z</time>
      </trkpt>
      <trkpt lat="48.4823" lon="-3.11251">
        <ele>107</ele>
        <time>2011-06-22T04:52:24Z</time>
      </trkpt>
      <trkpt lat="48.48305" lon="-3.11351">
        <ele>104</ele>
        <time>2011-06-22T04:52:37Z</time>
      </trkpt>
      <trkpt lat="48.4831" lon="-3.11369">
        <ele>104</ele>
        <time>2011-06-22T04:52:40Z</time>
      </trkpt>
      <trkpt lat="48.48308" lon="-3.11392">
        <ele>104</ele>
        <time>2011-06-22T04:52:42Z</time>
      </trkpt>
      <trkpt lat="48.48336" lon="-3.11424">
        <ele>105</ele>
        <time>2011-06-22T04:52:48Z</time>
      </trkpt>
      <trkpt lat="48.48296" lon="-3.1149">
        <ele>106</ele>
        <time>2011-06-22T04:52:59Z</time>
      </trkpt>
      <trkpt lat="48.48277" lon="-3.11541">
        <ele>109</ele>
        <time>2011-06-22T04:53:12Z</time>
      </trkpt>
      <trkpt lat="48.48231" lon="-3.11679">
        <ele>118</ele>
        <time>2011-06-22T04:53:46Z</time>
      </trkpt>
      <trkpt lat="48.48202" lon="-3.11775">
        <ele>120</ele>
        <time>2011-06-22T04:54:01Z</time>
      </trkpt>
      <trkpt lat="48.48198" lon="-3.11799">
        <ele>120</ele>
        <time>2011-06-22T04:54:05Z</time>
      </trkpt>
      <trkpt lat="48.48202" lon="-3.11854">
        <ele>122</ele>
        <time>2011-06-22T04:54:12Z</time>
      </trkpt>
      <trkpt lat="48.48235" lon="-3.1208">
        <ele>127</ele>
        <time>2011-06-22T04:54:45Z</time>
      </trkpt>
      <trkpt lat="48.48268" lon="-3.12174">
        <ele>130</ele>
        <time>2011-06-22T04:55:03Z</time>
      </trkpt>
      <trkpt lat="48.48296" lon="-3.12219">
        <ele>133</ele>
        <time>2011-06-22T04:55:14Z</time>
      </trkpt>
      <trkpt lat="48.48386" lon="-3.12158">
        <ele>135</ele>
        <time>2011-06-22T04:55:32Z</time>
      </trkpt>
      <trkpt lat="48.48423" lon="-3.12192">
        <ele>137</ele>
        <time>2011-06-22T04:55:44Z</time>
      </trkpt>
      <trkpt lat="48.48444" lon="-3.1222">
        <ele>139</ele>
        <time>2011-06-22T04:55:52Z</time>
      </trkpt>
      <trkpt lat="48.4849" lon="-3.12243">
        <ele>142</ele>
        <time>2011-06-22T04:56:05Z</time>
      </trkpt>
      <trkpt lat="48.48538" lon="-3.12324">
        <ele>146</ele>
        <time>2011-06-22T04:56:25Z</time>
      </trkpt>
      <trkpt lat="48.48612" lon="-3.12431">
        <ele>153</ele>
        <time>2011-06-22T04:56:55Z</time>
      </trkpt>
      <trkpt lat="48.48653" lon="-3.12474">
        <ele>158</ele>
        <time>2011-06-22T04:57:14Z</time>
      </trkpt>
      <trkpt lat="48.48681" lon="-3.12484">
        <ele>161</ele>
        <time>2011-06-22T04:57:25Z</time>
      </trkpt>
      <trkpt lat="48.48737" lon="-3.12489">
        <ele>167</ele>
        <time>2011-06-22T04:57:46Z</time>
      </trkpt>
      <trkpt lat="48.48763" lon="-3.12497">
        <ele>169</ele>
        <time>2011-06-22T04:57:57Z</time>
      </trkpt>
      <trkpt lat="48.48797" lon="-3.12512">
        <ele>173</ele>
        <time>2011-06-22T04:58:11Z</time>
      </trkpt>
      <trkpt lat="48.48816" lon="-3.12526">
        <ele>176</ele>
        <time>2011-06-22T04:58:20Z</time>
      </trkpt>
      <trkpt lat="48.48845" lon="-3.12572">
        <ele>181</ele>
        <time>2011-06-22T04:58:36Z</time>
      </trkpt>
      <trkpt lat="48.48853" lon="-3.12601">
        <ele>182</ele>
        <time>2011-06-22T04:58:42Z</time>
      </trkpt>
      <trkpt lat="48.48858" lon="-3.1264">
        <ele>183</ele>
        <time>2011-06-22T04:58:48Z</time>
      </trkpt>
      <trkpt lat="48.4886" lon="-3.12701">
        <ele>185</ele>
        <time>2011-06-22T04:58:58Z</time>
      </trkpt>
      <trkpt lat="48.48865" lon="-3.12723">
        <ele>186</ele>
        <time>2011-06-22T04:59:02Z</time>
      </trkpt>
      <trkpt lat="48.48894" lon="-3.1278">
        <ele>188</ele>
        <time>2011-06-22T04:59:13Z</time>
      </trkpt>
      <trkpt lat="48.48894" lon="-3.1278">
        <ele>188</ele>
        <time>2011-06-22T04:59:14Z</time>
      </trkpt>
      <trkpt lat="48.48912" lon="-3.12798">
        <ele>188</ele>
        <time>2011-06-22T04:59:19Z</time>
      </trkpt>
      <trkpt lat="48.48912" lon="-3.1284">
        <ele>190</ele>
        <time>2011-06-22T04:59:26Z</time>
      </trkpt>
      <trkpt lat="48.48946" lon="-3.12894">
        <ele>192</ele>
        <time>2011-06-22T04:59:37Z</time>
      </trkpt>
      <trkpt lat="48.4895" lon="-3.12903">
        <ele>191</ele>
        <time>2011-06-22T04:59:38Z</time>
      </trkpt>
      <trkpt lat="48.4895" lon="-3.12917">
        <ele>191</ele>
        <time>2011-06-22T04:59:39Z</time>
      </trkpt>
      <trkpt lat="48.48946" lon="-3.12936">
        <ele>190</ele>
        <time>2011-06-22T04:59:41Z</time>
      </trkpt>
      <trkpt lat="48.48887" lon="-3.13069">
        <ele>187</ele>
        <time>2011-06-22T04:59:55Z</time>
      </trkpt>
      <trkpt lat="48.48877" lon="-3.13155">
        <ele>185</ele>
        <time>2011-06-22T05:00:03Z</time>
      </trkpt>
      <trkpt lat="48.48849" lon="-3.13239">
        <ele>184</ele>
        <time>2011-06-22T05:00:11Z</time>
      </trkpt>
      <trkpt lat="48.48842" lon="-3.13283">
        <ele>183</ele>
        <time>2011-06-22T05:00:15Z</time>
      </trkpt>
      <trkpt lat="48.48831" lon="-3.13323">
        <ele>182</ele>
        <time>2011-06-22T05:00:19Z</time>
      </trkpt>
      <trkpt lat="48.48796" lon="-3.13505">
        <ele>180</ele>
        <time>2011-06-22T05:00:36Z</time>
      </trkpt>
      <trkpt lat="48.48771" lon="-3.1379">
        <ele>177</ele>
        <time>2011-06-22T05:01:01Z</time>
      </trkpt>
      <trkpt lat="48.48759" lon="-3.13859">
        <ele>173</ele>
        <time>2011-06-22T05:01:08Z</time>
      </trkpt>
      <trkpt lat="48.48736" lon="-3.1391">
        <ele>170</ele>
        <time>2011-06-22T05:01:13Z</time>
      </trkpt>
      <trkpt lat="48.48708" lon="-3.13947">
        <ele>168</ele>
        <time>2011-06-22T05:01:18Z</time>
      </trkpt>
      <trkpt lat="48.4868" lon="-3.13994">
        <ele>164</ele>
        <time>2011-06-22T05:01:24Z</time>
      </trkpt>
      <trkpt lat="48.48615" lon="-3.14119">
        <ele>156</ele>
        <time>2011-06-22T05:01:38Z</time>
      </trkpt>
      <trkpt lat="48.48551" lon="-3.14194">
        <ele>150</ele>
        <time>2011-06-22T05:01:49Z</time>
      </trkpt>
      <trkpt lat="48.48538" lon="-3.14224">
        <ele>149</ele>
        <time>2011-06-22T05:01:52Z</time>
      </trkpt>
      <trkpt lat="48.48494" lon="-3.14364">
        <ele>140</ele>
        <time>2011-06-22T05:02:06Z</time>
      </trkpt>
      <trkpt lat="48.48463" lon="-3.1442">
        <ele>136</ele>
        <time>2011-06-22T05:02:12Z</time>
      </trkpt>
      <trkpt lat="48.48435" lon="-3.14485">
        <ele>133</ele>
        <time>2011-06-22T05:02:19Z</time>
      </trkpt>
      <trkpt lat="48.48413" lon="-3.14516">
        <ele>134</ele>
        <time>2011-06-22T05:02:27Z</time>
      </trkpt>
      <trkpt lat="48.48385" lon="-3.14591">
        <ele>137</ele>
        <time>2011-06-22T05:02:41Z</time>
      </trkpt>
      <trkpt lat="48.48381" lon="-3.1461">
        <ele>138</ele>
        <time>2011-06-22T05:02:44Z</time>
      </trkpt>
      <trkpt lat="48.48379" lon="-3.14743">
        <ele>143</ele>
        <time>2011-06-22T05:03:10Z</time>
      </trkpt>
      <trkpt lat="48.48372" lon="-3.14832">
        <ele>148</ele>
        <time>2011-06-22T05:03:28Z</time>
      </trkpt>
      <trkpt lat="48.48374" lon="-3.14868">
        <ele>148</ele>
        <time>2011-06-22T05:03:32Z</time>
      </trkpt>
      <trkpt lat="48.48389" lon="-3.14945">
        <ele>148</ele>
        <time>2011-06-22T05:03:40Z</time>
      </trkpt>
      <trkpt lat="48.4839" lon="-3.14965">
        <ele>149</ele>
        <time>2011-06-22T05:03:42Z</time>
      </trkpt>
      <trkpt lat="48.48376" lon="-3.15027">
        <ele>150</ele>
        <time>2011-06-22T05:03:53Z</time>
      </trkpt>
      <trkpt lat="48.48331" lon="-3.15141">
        <ele>155</ele>
        <time>2011-06-22T05:04:14Z</time>
      </trkpt>
      <trkpt lat="48.48309" lon="-3.15184">
        <ele>155</ele>
        <time>2011-06-22T05:04:20Z</time>
      </trkpt>
      <trkpt lat="48.48308" lon="-3.15194">
        <ele>155</ele>
        <time>2011-06-22T05:04:22Z</time>
      </trkpt>
      <trkpt lat="48.48274" lon="-3.1533">
        <ele>157</ele>
        <time>2011-06-22T05:04:38Z</time>
      </trkpt>
      <trkpt lat="48.48266" lon="-3.15357">
        <ele>157</ele>
        <time>2011-06-22T05:04:42Z</time>
      </trkpt>
      <trkpt lat="48.48253" lon="-3.15376">
        <ele>158</ele>
        <time>2011-06-22T05:04:46Z</time>
      </trkpt>
      <trkpt lat="48.48248" lon="-3.15407">
        <ele>158</ele>
        <time>2011-06-22T05:04:50Z</time>
      </trkpt>
      <trkpt lat="48.48277" lon="-3.15673">
        <ele>165</ele>
        <time>2011-06-22T05:05:29Z</time>
      </trkpt>
      <trkpt lat="48.48276" lon="-3.15761">
        <ele>167</ele>
        <time>2011-06-22T05:05:43Z</time>
      </trkpt>
      <trkpt lat="48.48266" lon="-3.1581">
        <ele>169</ele>
        <time>2011-06-22T05:05:51Z</time>
      </trkpt>
      <trkpt lat="48.47931" lon="-3.16634">
        <ele>202</ele>
        <time>2011-06-22T05:08:35Z</time>
      </trkpt>
      <trkpt lat="48.47924" lon="-3.16661">
        <ele>203</ele>
        <time>2011-06-22T05:08:42Z</time>
      </trkpt>
      <trkpt lat="48.47924" lon="-3.1685">
        <ele>214</ele>
        <time>2011-06-22T05:09:24Z</time>
      </trkpt>
      <trkpt lat="48.47918" lon="-3.16892">
        <ele>214</ele>
        <time>2011-06-22T05:09:28Z</time>
      </trkpt>
      <trkpt lat="48.47892" lon="-3.16959">
        <ele>214</ele>
        <time>2011-06-22T05:09:36Z</time>
      </trkpt>
      <trkpt lat="48.47831" lon="-3.17082">
        <ele>216</ele>
        <time>2011-06-22T05:09:53Z</time>
      </trkpt>
      <trkpt lat="48.47803" lon="-3.1716">
        <ele>217</ele>
        <time>2011-06-22T05:10:03Z</time>
      </trkpt>
      <trkpt lat="48.47803" lon="-3.17234">
        <ele>218</ele>
        <time>2011-06-22T05:10:12Z</time>
      </trkpt>
      <trkpt lat="48.47813" lon="-3.17388">
        <ele>224</ele>
        <time>2011-06-22T05:10:40Z</time>
      </trkpt>
      <trkpt lat="48.47805" lon="-3.1763">
        <ele>230</ele>
        <time>2011-06-22T05:11:16Z</time>
      </trkpt>
      <trkpt lat="48.47775" lon="-3.17881">
        <ele>223</ele>
        <time>2011-06-22T05:11:38Z</time>
      </trkpt>
      <trkpt lat="48.47764" lon="-3.17914">
        <ele>221</ele>
        <time>2011-06-22T05:11:42Z</time>
      </trkpt>
      <trkpt lat="48.47734" lon="-3.17967">
        <ele>218</ele>
        <time>2011-06-22T05:11:48Z</time>
      </trkpt>
      <trkpt lat="48.47724" lon="-3.17993">
        <ele>217</ele>
        <time>2011-06-22T05:11:51Z</time>
      </trkpt>
      <trkpt lat="48.47716" lon="-3.18022">
        <ele>216</ele>
        <time>2011-06-22T05:11:53Z</time>
      </trkpt>
      <trkpt lat="48.47697" lon="-3.18133">
        <ele>215</ele>
        <time>2011-06-22T05:12:03Z</time>
      </trkpt>
      <trkpt lat="48.47687" lon="-3.18167">
        <ele>214</ele>
        <time>2011-06-22T05:12:07Z</time>
      </trkpt>
      <trkpt lat="48.4765" lon="-3.18255">
        <ele>212</ele>
        <time>2011-06-22T05:12:16Z</time>
      </trkpt>
      <trkpt lat="48.47586" lon="-3.18451">
        <ele>209</ele>
        <time>2011-06-22T05:12:35Z</time>
      </trkpt>
      <trkpt lat="48.47516" lon="-3.18581">
        <ele>206</ele>
        <time>2011-06-22T05:12:50Z</time>
      </trkpt>
      <trkpt lat="48.47516" lon="-3.18581">
        <ele>206</ele>
        <time>2011-06-22T05:12:51Z</time>
      </trkpt>
      <trkpt lat="48.47475" lon="-3.18671">
        <ele>207</ele>
        <time>2011-06-22T05:13:04Z</time>
      </trkpt>
      <trkpt lat="48.47454" lon="-3.18676">
        <ele>207</ele>
        <time>2011-06-22T05:13:07Z</time>
      </trkpt>
      <trkpt lat="48.47433" lon="-3.18694">
        <ele>208</ele>
        <time>2011-06-22T05:13:12Z</time>
      </trkpt>
      <trkpt lat="48.47387" lon="-3.18793">
        <ele>212</ele>
        <time>2011-06-22T05:13:34Z</time>
      </trkpt>
      <trkpt lat="48.47373" lon="-3.18809">
        <ele>214</ele>
        <time>2011-06-22T05:13:39Z</time>
      </trkpt>
      <trkpt lat="48.47423" lon="-3.18857">
        <ele>215</ele>
        <time>2011-06-22T05:13:49Z</time>
      </trkpt>
      <trkpt lat="48.47423" lon="-3.18857">
        <ele>215</ele>
        <time>2011-06-22T05:13:50Z</time>
      </trkpt>
      <trkpt lat="48.47492" lon="-3.18936">
        <ele>213</ele>
        <time>2011-06-22T05:14:02Z</time>
      </trkpt>
      <trkpt lat="48.47547" lon="-3.19028">
        <ele>213</ele>
        <time>2011-06-22T05:14:13Z</time>
      </trkpt>
      <trkpt lat="48.47575" lon="-3.19082">
        <ele>211</ele>
        <time>2011-06-22T05:14:19Z</time>
      </trkpt>
      <trkpt lat="48.47632" lon="-3.19245">
        <ele>208</ele>
        <time>2011-06-22T05:14:35Z</time>
      </trkpt>
      <trkpt lat="48.47632" lon="-3.19245">
        <ele>208</ele>
        <time>2011-06-22T05:14:36Z</time>
      </trkpt>
      <trkpt lat="48.47636" lon="-3.19259">
        <ele>208</ele>
        <time>2011-06-22T05:14:38Z</time>
      </trkpt>
      <trkpt lat="48.47599" lon="-3.19333">
        <ele>210</ele>
        <time>2011-06-22T05:14:51Z</time>
      </trkpt>
      <trkpt lat="48.47573" lon="-3.19357">
        <ele>211</ele>
        <time>2011-06-22T05:14:57Z</time>
      </trkpt>
      <trkpt lat="48.47548" lon="-3.1937">
        <ele>211</ele>
        <time>2011-06-22T05:15:03Z</time>
      </trkpt>
      <trkpt lat="48.47481" lon="-3.19379">
        <ele>214</ele>
        <time>2011-06-22T05:15:17Z</time>
      </trkpt>
      <trkpt lat="48.47456" lon="-3.19396">
        <ele>215</ele>
        <time>2011-06-22T05:15:23Z</time>
      </trkpt>
      <trkpt lat="48.47425" lon="-3.19463">
        <ele>217</ele>
        <time>2011-06-22T05:15:36Z</time>
      </trkpt>
      <trkpt lat="48.47373" lon="-3.19536">
        <ele>220</ele>
        <time>2011-06-22T05:15:52Z</time>
      </trkpt>
      <trkpt lat="48.47332" lon="-3.19602">
        <ele>220</ele>
        <time>2011-06-22T05:16:01Z</time>
      </trkpt>
      <trkpt lat="48.47328" lon="-3.19619">
        <ele>220</ele>
        <time>2011-06-22T05:16:02Z</time>
      </trkpt>
      <trkpt lat="48.4732" lon="-3.19751">
        <ele>221</ele>
        <time>2011-06-22T05:16:15Z</time>
      </trkpt>
      <trkpt lat="48.47287" lon="-3.2005">
        <ele>227</ele>
        <time>2011-06-22T05:16:57Z</time>
      </trkpt>
      <trkpt lat="48.47217" lon="-3.20533">
        <ele>239</ele>
        <time>2011-06-22T05:18:09Z</time>
      </trkpt>
      <trkpt lat="48.47217" lon="-3.20533">
        <ele>239</ele>
        <time>2011-06-22T05:18:10Z</time>
      </trkpt>
      <trkpt lat="48.47174" lon="-3.2083">
        <ele>244</ele>
        <time>2011-06-22T05:18:49Z</time>
      </trkpt>
      <trkpt lat="48.47127" lon="-3.21055">
        <ele>240</ele>
        <time>2011-06-22T05:19:10Z</time>
      </trkpt>
      <trkpt lat="48.47094" lon="-3.21243">
        <ele>238</ele>
        <time>2011-06-22T05:19:27Z</time>
      </trkpt>
      <trkpt lat="48.47066" lon="-3.21322">
        <ele>235</ele>
        <time>2011-06-22T05:19:35Z</time>
      </trkpt>
      <trkpt lat="48.47053" lon="-3.21396">
        <ele>233</ele>
        <time>2011-06-22T05:19:42Z</time>
      </trkpt>
      <trkpt lat="48.47025" lon="-3.21477">
        <ele>229</ele>
        <time>2011-06-22T05:19:50Z</time>
      </trkpt>
      <trkpt lat="48.47018" lon="-3.21509">
        <ele>228</ele>
        <time>2011-06-22T05:19:53Z</time>
      </trkpt>
      <trkpt lat="48.47016" lon="-3.21582">
        <ele>226</ele>
        <time>2011-06-22T05:20:00Z</time>
      </trkpt>
      <trkpt lat="48.47053" lon="-3.21694">
        <ele>223</ele>
        <time>2011-06-22T05:20:11Z</time>
      </trkpt>
      <trkpt lat="48.4706" lon="-3.21806">
        <ele>221</ele>
        <time>2011-06-22T05:20:21Z</time>
      </trkpt>
      <trkpt lat="48.47059" lon="-3.21848">
        <ele>221</ele>
        <time>2011-06-22T05:20:24Z</time>
      </trkpt>
      <trkpt lat="48.47054" lon="-3.2188">
        <ele>221</ele>
        <time>2011-06-22T05:20:27Z</time>
      </trkpt>
      <trkpt lat="48.46894" lon="-3.22116">
        <ele>221</ele>
        <time>2011-06-22T05:20:57Z</time>
      </trkpt>
      <trkpt lat="48.46882" lon="-3.22186">
        <ele>222</ele>
        <time>2011-06-22T05:21:08Z</time>
      </trkpt>
      <trkpt lat="48.46867" lon="-3.2237">
        <ele>227</ele>
        <time>2011-06-22T05:21:34Z</time>
      </trkpt>
      <trkpt lat="48.46865" lon="-3.22462">
        <ele>228</ele>
        <time>2011-06-22T05:21:45Z</time>
      </trkpt>
      <trkpt lat="48.46861" lon="-3.22498">
        <ele>228</ele>
        <time>2011-06-22T05:21:50Z</time>
      </trkpt>
      <trkpt lat="48.46838" lon="-3.22609">
        <ele>230</ele>
        <time>2011-06-22T05:22:03Z</time>
      </trkpt>
      <trkpt lat="48.46817" lon="-3.2274">
        <ele>232</ele>
        <time>2011-06-22T05:22:22Z</time>
      </trkpt>
      <trkpt lat="48.46806" lon="-3.22884">
        <ele>236</ele>
        <time>2011-06-22T05:22:42Z</time>
      </trkpt>
      <trkpt lat="48.46804" lon="-3.22925">
        <ele>236</ele>
        <time>2011-06-22T05:22:48Z</time>
      </trkpt>
      <trkpt lat="48.4682" lon="-3.23054">
        <ele>239</ele>
        <time>2011-06-22T05:23:05Z</time>
      </trkpt>
      <trkpt lat="48.46822" lon="-3.23102">
        <ele>239</ele>
        <time>2011-06-22T05:23:10Z</time>
      </trkpt>
      <trkpt lat="48.46811" lon="-3.23211">
        <ele>240</ele>
        <time>2011-06-22T05:23:21Z</time>
      </trkpt>
      <trkpt lat="48.46817" lon="-3.23268">
        <ele>240</ele>
        <time>2011-06-22T05:23:26Z</time>
      </trkpt>
      <trkpt lat="48.46817" lon="-3.23296">
        <ele>240</ele>
        <time>2011-06-22T05:23:29Z</time>
      </trkpt>
      <trkpt lat="48.46812" lon="-3.2333">
        <ele>240</ele>
        <time>2011-06-22T05:23:32Z</time>
      </trkpt>
      <trkpt lat="48.46804" lon="-3.23357">
        <ele>240</ele>
        <time>2011-06-22T05:23:35Z</time>
      </trkpt>
      <trkpt lat="48.46755" lon="-3.23449">
        <ele>239</ele>
        <time>2011-06-22T05:23:45Z</time>
      </trkpt>
      <trkpt lat="48.46746" lon="-3.23476">
        <ele>239</ele>
        <time>2011-06-22T05:23:48Z</time>
      </trkpt>
      <trkpt lat="48.46738" lon="-3.23516">
        <ele>239</ele>
        <time>2011-06-22T05:23:52Z</time>
      </trkpt>
      <trkpt lat="48.46731" lon="-3.23629">
        <ele>240</ele>
        <time>2011-06-22T05:24:04Z</time>
      </trkpt>
      <trkpt lat="48.46725" lon="-3.23666">
        <ele>240</ele>
        <time>2011-06-22T05:24:07Z</time>
      </trkpt>
      <trkpt lat="48.46715" lon="-3.23719">
        <ele>240</ele>
        <time>2011-06-22T05:24:12Z</time>
      </trkpt>
      <trkpt lat="48.46679" lon="-3.23837">
        <ele>240</ele>
        <time>2011-06-22T05:24:24Z</time>
      </trkpt>
      <trkpt lat="48.46511" lon="-3.24253">
        <ele>247</ele>
        <time>2011-06-22T05:25:24Z</time>
      </trkpt>
      <trkpt lat="48.46497" lon="-3.24267">
        <ele>247</ele>
        <time>2011-06-22T05:25:26Z</time>
      </trkpt>
      <trkpt lat="48.46422" lon="-3.24287">
        <ele>247</ele>
        <time>2011-06-22T05:25:36Z</time>
      </trkpt>
      <trkpt lat="48.46401" lon="-3.24301">
        <ele>247</ele>
        <time>2011-06-22T05:25:41Z</time>
      </trkpt>
      <trkpt lat="48.46333" lon="-3.24365">
        <ele>250</ele>
        <time>2011-06-22T05:25:57Z</time>
      </trkpt>
      <trkpt lat="48.46305" lon="-3.24413">
        <ele>251</ele>
        <time>2011-06-22T05:26:05Z</time>
      </trkpt>
      <trkpt lat="48.46213" lon="-3.24613">
        <ele>255</ele>
        <time>2011-06-22T05:26:36Z</time>
      </trkpt>
      <trkpt lat="48.46211" lon="-3.24645">
        <ele>254</ele>
        <time>2011-06-22T05:26:39Z</time>
      </trkpt>
      <trkpt lat="48.46266" lon="-3.24809">
        <ele>250</ele>
        <time>2011-06-22T05:26:55Z</time>
      </trkpt>
      <trkpt lat="48.46266" lon="-3.24829">
        <ele>250</ele>
        <time>2011-06-22T05:26:57Z</time>
      </trkpt>
      <trkpt lat="48.4623" lon="-3.2514">
        <ele>250</ele>
        <time>2011-06-22T05:27:25Z</time>
      </trkpt>
      <trkpt lat="48.46191" lon="-3.25398">
        <ele>258</ele>
        <time>2011-06-22T05:28:08Z</time>
      </trkpt>
      <trkpt lat="48.46189" lon="-3.25434">
        <ele>258</ele>
        <time>2011-06-22T05:28:11Z</time>
      </trkpt>
      <trkpt lat="48.46196" lon="-3.25702">
        <ele>258</ele>
        <time>2011-06-22T05:28:35Z</time>
      </trkpt>
      <trkpt lat="48.46192" lon="-3.2575">
        <ele>258</ele>
        <time>2011-06-22T05:28:40Z</time>
      </trkpt>
      <trkpt lat="48.46181" lon="-3.25817">
        <ele>259</ele>
        <time>2011-06-22T05:28:48Z</time>
      </trkpt>
      <trkpt lat="48.46177" lon="-3.25891">
        <ele>260</ele>
        <time>2011-06-22T05:28:56Z</time>
      </trkpt>
      <trkpt lat="48.46177" lon="-3.25891">
        <ele>260</ele>
        <time>2011-06-22T05:28:57Z</time>
      </trkpt>
      <trkpt lat="48.46174" lon="-3.26086">
        <ele>264</ele>
        <time>2011-06-22T05:29:24Z</time>
      </trkpt>
      <trkpt lat="48.46133" lon="-3.26261">
        <ele>268</ele>
        <time>2011-06-22T05:29:50Z</time>
      </trkpt>
      <trkpt lat="48.46131" lon="-3.26714">
        <ele>274</ele>
        <time>2011-06-22T05:30:45Z</time>
      </trkpt>
      <trkpt lat="48.46109" lon="-3.26983">
        <ele>270</ele>
        <time>2011-06-22T05:31:09Z</time>
      </trkpt>
      <trkpt lat="48.46108" lon="-3.27056">
        <ele>268</ele>
        <time>2011-06-22T05:31:15Z</time>
      </trkpt>
      <trkpt lat="48.46143" lon="-3.27329">
        <ele>264</ele>
        <time>2011-06-22T05:31:40Z</time>
      </trkpt>
      <trkpt lat="48.46146" lon="-3.27425">
        <ele>264</ele>
        <time>2011-06-22T05:31:49Z</time>
      </trkpt>
      <trkpt lat="48.46131" lon="-3.27519">
        <ele>264</ele>
        <time>2011-06-22T05:31:57Z</time>
      </trkpt>
      <trkpt lat="48.46125" lon="-3.27661">
        <ele>267</ele>
        <time>2011-06-22T05:32:17Z</time>
      </trkpt>
      <trkpt lat="48.46098" lon="-3.27818">
        <ele>270</ele>
        <time>2011-06-22T05:32:38Z</time>
      </trkpt>
      <trkpt lat="48.46082" lon="-3.28113">
        <ele>274</ele>
        <time>2011-06-22T05:33:14Z</time>
      </trkpt>
      <trkpt lat="48.46062" lon="-3.28228">
        <ele>274</ele>
        <time>2011-06-22T05:33:25Z</time>
      </trkpt>
      <trkpt lat="48.46046" lon="-3.28282">
        <ele>274</ele>
        <time>2011-06-22T05:33:30Z</time>
      </trkpt>
      <trkpt lat="48.46024" lon="-3.28381">
        <ele>272</ele>
        <time>2011-06-22T05:33:39Z</time>
      </trkpt>
      <trkpt lat="48.46013" lon="-3.28456">
        <ele>271</ele>
        <time>2011-06-22T05:33:46Z</time>
      </trkpt>
      <trkpt lat="48.46007" lon="-3.28659">
        <ele>265</ele>
        <time>2011-06-22T05:34:04Z</time>
      </trkpt>
      <trkpt lat="48.45973" lon="-3.29026">
        <ele>256</ele>
        <time>2011-06-22T05:34:37Z</time>
      </trkpt>
      <trkpt lat="48.45946" lon="-3.29128">
        <ele>252</ele>
        <time>2011-06-22T05:34:47Z</time>
      </trkpt>
      <trkpt lat="48.45916" lon="-3.29211">
        <ele>250</ele>
        <time>2011-06-22T05:34:55Z</time>
      </trkpt>
      <trkpt lat="48.45892" lon="-3.29375">
        <ele>248</ele>
        <time>2011-06-22T05:35:10Z</time>
      </trkpt>
      <trkpt lat="48.45894" lon="-3.29428">
        <ele>247</ele>
        <time>2011-06-22T05:35:15Z</time>
      </trkpt>
      <trkpt lat="48.45928" lon="-3.29488">
        <ele>246</ele>
        <time>2011-06-22T05:35:22Z</time>
      </trkpt>
      <trkpt lat="48.46033" lon="-3.29613">
        <ele>245</ele>
        <time>2011-06-22T05:35:39Z</time>
      </trkpt>
      <trkpt lat="48.46134" lon="-3.29724">
        <ele>240</ele>
        <time>2011-06-22T05:35:56Z</time>
      </trkpt>
      <trkpt lat="48.46134" lon="-3.29724">
        <ele>240</ele>
        <time>2011-06-22T05:35:57Z</time>
      </trkpt>
      <trkpt lat="48.46156" lon="-3.29753">
        <ele>239</ele>
        <time>2011-06-22T05:36:01Z</time>
      </trkpt>
      <trkpt lat="48.46171" lon="-3.29786">
        <ele>238</ele>
        <time>2011-06-22T05:36:05Z</time>
      </trkpt>
      <trkpt lat="48.4618" lon="-3.2982">
        <ele>237</ele>
        <time>2011-06-22T05:36:08Z</time>
      </trkpt>
      <trkpt lat="48.46187" lon="-3.2988">
        <ele>236</ele>
        <time>2011-06-22T05:36:13Z</time>
      </trkpt>
      <trkpt lat="48.46188" lon="-3.29949">
        <ele>236</ele>
        <time>2011-06-22T05:36:19Z</time>
      </trkpt>
      <trkpt lat="48.46179" lon="-3.30171">
        <ele>236</ele>
        <time>2011-06-22T05:36:39Z</time>
      </trkpt>
      <trkpt lat="48.46181" lon="-3.30243">
        <ele>235</ele>
        <time>2011-06-22T05:36:45Z</time>
      </trkpt>
      <trkpt lat="48.46191" lon="-3.30292">
        <ele>234</ele>
        <time>2011-06-22T05:36:50Z</time>
      </trkpt>
      <trkpt lat="48.46139" lon="-3.30358">
        <ele>234</ele>
        <time>2011-06-22T05:36:59Z</time>
      </trkpt>
      <trkpt lat="48.46139" lon="-3.30358">
        <ele>234</ele>
        <time>2011-06-22T05:37:00Z</time>
      </trkpt>
      <trkpt lat="48.46106" lon="-3.30402">
        <ele>233</ele>
        <time>2011-06-22T05:37:06Z</time>
      </trkpt>
      <trkpt lat="48.4606" lon="-3.305">
        <ele>233</ele>
        <time>2011-06-22T05:37:17Z</time>
      </trkpt>
      <trkpt lat="48.46019" lon="-3.30532">
        <ele>234</ele>
        <time>2011-06-22T05:37:27Z</time>
      </trkpt>
      <trkpt lat="48.4601" lon="-3.30546">
        <ele>235</ele>
        <time>2011-06-22T05:37:30Z</time>
      </trkpt>
      <trkpt lat="48.46002" lon="-3.30621">
        <ele>237</ele>
        <time>2011-06-22T05:37:41Z</time>
      </trkpt>
      <trkpt lat="48.45994" lon="-3.30637">
        <ele>236</ele>
        <time>2011-06-22T05:37:43Z</time>
      </trkpt>
      <trkpt lat="48.45981" lon="-3.3065">
        <ele>235</ele>
        <time>2011-06-22T05:37:45Z</time>
      </trkpt>
      <trkpt lat="48.45931" lon="-3.30682">
        <ele>232</ele>
        <time>2011-06-22T05:37:52Z</time>
      </trkpt>
      <trkpt lat="48.45915" lon="-3.30701">
        <ele>232</ele>
        <time>2011-06-22T05:37:55Z</time>
      </trkpt>
      <trkpt lat="48.45891" lon="-3.30744">
        <ele>229</ele>
        <time>2011-06-22T05:38:00Z</time>
      </trkpt>
      <trkpt lat="48.45928" lon="-3.30777">
        <ele>227</ele>
        <time>2011-06-22T05:38:05Z</time>
      </trkpt>
      <trkpt lat="48.45842" lon="-3.3082">
        <ele>222</ele>
        <time>2011-06-22T05:38:17Z</time>
      </trkpt>
      <trkpt lat="48.45842" lon="-3.3082">
        <ele>222</ele>
        <time>2011-06-22T05:38:18Z</time>
      </trkpt>
      <trkpt lat="48.45815" lon="-3.30831">
        <ele>219</ele>
        <time>2011-06-22T05:38:22Z</time>
      </trkpt>
      <trkpt lat="48.45744" lon="-3.30874">
        <ele>212</ele>
        <time>2011-06-22T05:38:32Z</time>
      </trkpt>
      <trkpt lat="48.4574" lon="-3.30856">
        <ele>212</ele>
        <time>2011-06-22T05:38:35Z</time>
      </trkpt>
      <trkpt lat="48.45736" lon="-3.30774">
        <ele>214</ele>
        <time>2011-06-22T05:38:47Z</time>
      </trkpt>
      <trkpt lat="48.4573" lon="-3.30746">
        <ele>215</ele>
        <time>2011-06-22T05:38:51Z</time>
      </trkpt>
      <trkpt lat="48.4573" lon="-3.30746">
        <ele>215</ele>
        <time>2011-06-22T05:38:52Z</time>
      </trkpt>
      <trkpt lat="48.45724" lon="-3.30734">
        <ele>214</ele>
        <time>2011-06-22T05:38:54Z</time>
      </trkpt>
      <trkpt lat="48.45713" lon="-3.30726">
        <ele>214</ele>
        <time>2011-06-22T05:38:55Z</time>
      </trkpt>
      <trkpt lat="48.45692" lon="-3.30722">
        <ele>214</ele>
        <time>2011-06-22T05:38:58Z</time>
      </trkpt>
      <trkpt lat="48.45618" lon="-3.30729">
        <ele>214</ele>
        <time>2011-06-22T05:39:08Z</time>
      </trkpt>
      <trkpt lat="48.45538" lon="-3.30692">
        <ele>214</ele>
        <time>2011-06-22T05:39:19Z</time>
      </trkpt>
      <trkpt lat="48.45482" lon="-3.30691">
        <ele>214</ele>
        <time>2011-06-22T05:39:27Z</time>
      </trkpt>
      <trkpt lat="48.45426" lon="-3.30701">
        <ele>214</ele>
        <time>2011-06-22T05:39:35Z</time>
      </trkpt>
      <trkpt lat="48.45379" lon="-3.30701">
        <ele>215</ele>
        <time>2011-06-22T05:39:43Z</time>
      </trkpt>
      <trkpt lat="48.45345" lon="-3.30692">
        <ele>216</ele>
        <time>2011-06-22T05:39:50Z</time>
      </trkpt>
      <trkpt lat="48.45295" lon="-3.30688">
        <ele>217</ele>
        <time>2011-06-22T05:40:00Z</time>
      </trkpt>
      <trkpt lat="48.45179" lon="-3.30651">
        <ele>221</ele>
        <time>2011-06-22T05:40:24Z</time>
      </trkpt>
      <trkpt lat="48.45079" lon="-3.30632">
        <ele>228</ele>
        <time>2011-06-22T05:40:55Z</time>
      </trkpt>
      <trkpt lat="48.45062" lon="-3.30634">
        <ele>227</ele>
        <time>2011-06-22T05:40:57Z</time>
      </trkpt>
      <trkpt lat="48.45015" lon="-3.30663">
        <ele>227</ele>
        <time>2011-06-22T05:41:04Z</time>
      </trkpt>
      <trkpt lat="48.45015" lon="-3.30663">
        <ele>227</ele>
        <time>2011-06-22T05:41:05Z</time>
      </trkpt>
      <trkpt lat="48.44988" lon="-3.30681">
        <ele>227</ele>
        <time>2011-06-22T05:41:09Z</time>
      </trkpt>
      <trkpt lat="48.4495" lon="-3.3068">
        <ele>227</ele>
        <time>2011-06-22T05:41:15Z</time>
      </trkpt>
      <trkpt lat="48.44797" lon="-3.30624">
        <ele>229</ele>
        <time>2011-06-22T05:41:39Z</time>
      </trkpt>
      <trkpt lat="48.44705" lon="-3.30616">
        <ele>228</ele>
        <time>2011-06-22T05:41:52Z</time>
      </trkpt>
      <trkpt lat="48.44656" lon="-3.30573">
        <ele>228</ele>
        <time>2011-06-22T05:42:01Z</time>
      </trkpt>
      <trkpt lat="48.44575" lon="-3.30475">
        <ele>230</ele>
        <time>2011-06-22T05:42:18Z</time>
      </trkpt>
      <trkpt lat="48.44559" lon="-3.30469">
        <ele>230</ele>
        <time>2011-06-22T05:42:22Z</time>
      </trkpt>
      <trkpt lat="48.44513" lon="-3.30484">
        <ele>233</ele>
        <time>2011-06-22T05:42:35Z</time>
      </trkpt>
      <trkpt lat="48.44486" lon="-3.30486">
        <ele>235</ele>
        <time>2011-06-22T05:42:42Z</time>
      </trkpt>
      <trkpt lat="48.44471" lon="-3.30479">
        <ele>236</ele>
        <time>2011-06-22T05:42:47Z</time>
      </trkpt>
      <trkpt lat="48.44396" lon="-3.30418">
        <ele>243</ele>
        <time>2011-06-22T05:43:16Z</time>
      </trkpt>
      <trkpt lat="48.44323" lon="-3.3041">
        <ele>250</ele>
        <time>2011-06-22T05:43:41Z</time>
      </trkpt>
      <trkpt lat="48.44282" lon="-3.30425">
        <ele>253</ele>
        <time>2011-06-22T05:43:56Z</time>
      </trkpt>
      <trkpt lat="48.44262" lon="-3.30439">
        <ele>255</ele>
        <time>2011-06-22T05:44:03Z</time>
      </trkpt>
      <trkpt lat="48.44232" lon="-3.30446">
        <ele>258</ele>
        <time>2011-06-22T05:44:13Z</time>
      </trkpt>
      <trkpt lat="48.44219" lon="-3.30444">
        <ele>258</ele>
        <time>2011-06-22T05:44:15Z</time>
      </trkpt>
      <trkpt lat="48.44204" lon="-3.30439">
        <ele>258</ele>
        <time>2011-06-22T05:44:18Z</time>
      </trkpt>
      <trkpt lat="48.44169" lon="-3.30403">
        <ele>259</ele>
        <time>2011-06-22T05:44:25Z</time>
      </trkpt>
      <trkpt lat="48.44117" lon="-3.30389">
        <ele>260</ele>
        <time>2011-06-22T05:44:35Z</time>
      </trkpt>
      <trkpt lat="48.44096" lon="-3.30377">
        <ele>259</ele>
        <time>2011-06-22T05:44:38Z</time>
      </trkpt>
      <trkpt lat="48.44055" lon="-3.30339">
        <ele>258</ele>
        <time>2011-06-22T05:44:44Z</time>
      </trkpt>
      <trkpt lat="48.43996" lon="-3.30345">
        <ele>258</ele>
        <time>2011-06-22T05:44:52Z</time>
      </trkpt>
      <trkpt lat="48.43976" lon="-3.3033">
        <ele>258</ele>
        <time>2011-06-22T05:44:55Z</time>
      </trkpt>
      <trkpt lat="48.43893" lon="-3.30335">
        <ele>258</ele>
        <time>2011-06-22T05:45:06Z</time>
      </trkpt>
      <trkpt lat="48.43893" lon="-3.30335">
        <ele>258</ele>
        <time>2011-06-22T05:45:07Z</time>
      </trkpt>
      <trkpt lat="48.43898" lon="-3.30366">
        <ele>257</ele>
        <time>2011-06-22T05:45:10Z</time>
      </trkpt>
      <trkpt lat="48.43944" lon="-3.305">
        <ele>257</ele>
        <time>2011-06-22T05:45:23Z</time>
      </trkpt>
      <trkpt lat="48.43895" lon="-3.30497">
        <ele>254</ele>
        <time>2011-06-22T05:45:30Z</time>
      </trkpt>
      <trkpt lat="48.43868" lon="-3.30503">
        <ele>253</ele>
        <time>2011-06-22T05:45:33Z</time>
      </trkpt>
      <trkpt lat="48.43807" lon="-3.30534">
        <ele>250</ele>
        <time>2011-06-22T05:45:42Z</time>
      </trkpt>
      <trkpt lat="48.43784" lon="-3.3055">
        <ele>248</ele>
        <time>2011-06-22T05:45:45Z</time>
      </trkpt>
      <trkpt lat="48.4377" lon="-3.30566">
        <ele>247</ele>
        <time>2011-06-22T05:45:48Z</time>
      </trkpt>
      <trkpt lat="48.43764" lon="-3.30593">
        <ele>246</ele>
        <time>2011-06-22T05:45:50Z</time>
      </trkpt>
      <trkpt lat="48.43767" lon="-3.30669">
        <ele>243</ele>
        <time>2011-06-22T05:45:57Z</time>
      </trkpt>
      <trkpt lat="48.43747" lon="-3.30746">
        <ele>241</ele>
        <time>2011-06-22T05:46:04Z</time>
      </trkpt>
      <trkpt lat="48.43728" lon="-3.30795">
        <ele>240</ele>
        <time>2011-06-22T05:46:09Z</time>
      </trkpt>
      <trkpt lat="48.43692" lon="-3.30878">
        <ele>235</ele>
        <time>2011-06-22T05:46:18Z</time>
      </trkpt>
      <trkpt lat="48.43662" lon="-3.30931">
        <ele>233</ele>
        <time>2011-06-22T05:46:24Z</time>
      </trkpt>
      <trkpt lat="48.43631" lon="-3.30967">
        <ele>229</ele>
        <time>2011-06-22T05:46:29Z</time>
      </trkpt>
      <trkpt lat="48.43631" lon="-3.30967">
        <ele>229</ele>
        <time>2011-06-22T05:46:30Z</time>
      </trkpt>
      <trkpt lat="48.43578" lon="-3.30994">
        <ele>226</ele>
        <time>2011-06-22T05:46:38Z</time>
      </trkpt>
      <trkpt lat="48.4357" lon="-3.31003">
        <ele>226</ele>
        <time>2011-06-22T05:46:39Z</time>
      </trkpt>
      <trkpt lat="48.43542" lon="-3.31056">
        <ele>225</ele>
        <time>2011-06-22T05:46:45Z</time>
      </trkpt>
      <trkpt lat="48.43531" lon="-3.3111">
        <ele>226</ele>
        <time>2011-06-22T05:46:53Z</time>
      </trkpt>
      <trkpt lat="48.43523" lon="-3.31133">
        <ele>226</ele>
        <time>2011-06-22T05:46:57Z</time>
      </trkpt>
      <trkpt lat="48.43478" lon="-3.31189">
        <ele>229</ele>
        <time>2011-06-22T05:47:10Z</time>
      </trkpt>
      <trkpt lat="48.43444" lon="-3.31246">
        <ele>231</ele>
        <time>2011-06-22T05:47:23Z</time>
      </trkpt>
      <trkpt lat="48.43409" lon="-3.31366">
        <ele>236</ele>
        <time>2011-06-22T05:47:45Z</time>
      </trkpt>
      <trkpt lat="48.43369" lon="-3.3139">
        <ele>238</ele>
        <time>2011-06-22T05:47:57Z</time>
      </trkpt>
      <trkpt lat="48.43335" lon="-3.31426">
        <ele>241</ele>
        <time>2011-06-22T05:48:09Z</time>
      </trkpt>
      <trkpt lat="48.43295" lon="-3.3149">
        <ele>245</ele>
        <time>2011-06-22T05:48:26Z</time>
      </trkpt>
      <trkpt lat="48.43284" lon="-3.3156">
        <ele>245</ele>
        <time>2011-06-22T05:48:34Z</time>
      </trkpt>
      <trkpt lat="48.43279" lon="-3.31571">
        <ele>245</ele>
        <time>2011-06-22T05:48:36Z</time>
      </trkpt>
      <trkpt lat="48.43216" lon="-3.31635">
        <ele>247</ele>
        <time>2011-06-22T05:48:48Z</time>
      </trkpt>
      <trkpt lat="48.4317" lon="-3.31676">
        <ele>250</ele>
        <time>2011-06-22T05:49:03Z</time>
      </trkpt>
      <trkpt lat="48.4311" lon="-3.31721">
        <ele>254</ele>
        <time>2011-06-22T05:49:21Z</time>
      </trkpt>
      <trkpt lat="48.43003" lon="-3.31762">
        <ele>259</ele>
        <time>2011-06-22T05:49:48Z</time>
      </trkpt>
      <trkpt lat="48.42946" lon="-3.31798">
        <ele>259</ele>
        <time>2011-06-22T05:49:58Z</time>
      </trkpt>
      <trkpt lat="48.42925" lon="-3.31804">
        <ele>259</ele>
        <time>2011-06-22T05:50:01Z</time>
      </trkpt>
      <trkpt lat="48.42896" lon="-3.31803">
        <ele>260</ele>
        <time>2011-06-22T05:50:05Z</time>
      </trkpt>
      <trkpt lat="48.42881" lon="-3.31792">
        <ele>260</ele>
        <time>2011-06-22T05:50:09Z</time>
      </trkpt>
      <trkpt lat="48.42806" lon="-3.31789">
        <ele>262</ele>
        <time>2011-06-22T05:50:22Z</time>
      </trkpt>
      <trkpt lat="48.42795" lon="-3.31794">
        <ele>262</ele>
        <time>2011-06-22T05:50:24Z</time>
      </trkpt>
      <trkpt lat="48.42725" lon="-3.31853">
        <ele>263</ele>
        <time>2011-06-22T05:50:37Z</time>
      </trkpt>
      <trkpt lat="48.42725" lon="-3.31853">
        <ele>263</ele>
        <time>2011-06-22T05:50:38Z</time>
      </trkpt>
      <trkpt lat="48.42703" lon="-3.31871">
        <ele>261</ele>
        <time>2011-06-22T05:50:41Z</time>
      </trkpt>
      <trkpt lat="48.42701" lon="-3.31883">
        <ele>261</ele>
        <time>2011-06-22T05:50:43Z</time>
      </trkpt>
      <trkpt lat="48.4271" lon="-3.31941">
        <ele>259</ele>
        <time>2011-06-22T05:50:48Z</time>
      </trkpt>
      <trkpt lat="48.42729" lon="-3.32023">
        <ele>257</ele>
        <time>2011-06-22T05:50:56Z</time>
      </trkpt>
      <trkpt lat="48.42731" lon="-3.32048">
        <ele>256</ele>
        <time>2011-06-22T05:50:58Z</time>
      </trkpt>
      <trkpt lat="48.42726" lon="-3.32181">
        <ele>253</ele>
        <time>2011-06-22T05:51:10Z</time>
      </trkpt>
      <trkpt lat="48.42722" lon="-3.32198">
        <ele>253</ele>
        <time>2011-06-22T05:51:11Z</time>
      </trkpt>
      <trkpt lat="48.42702" lon="-3.32228">
        <ele>253</ele>
        <time>2011-06-22T05:51:15Z</time>
      </trkpt>
      <trkpt lat="48.42798" lon="-3.3247">
        <ele>254</ele>
        <time>2011-06-22T05:51:42Z</time>
      </trkpt>
      <trkpt lat="48.42823" lon="-3.32553">
        <ele>254</ele>
        <time>2011-06-22T05:51:53Z</time>
      </trkpt>
      <trkpt lat="48.42834" lon="-3.32653">
        <ele>256</ele>
        <time>2011-06-22T05:52:04Z</time>
      </trkpt>
      <trkpt lat="48.42834" lon="-3.3271">
        <ele>257</ele>
        <time>2011-06-22T05:52:12Z</time>
      </trkpt>
      <trkpt lat="48.42817" lon="-3.32972">
        <ele>262</ele>
        <time>2011-06-22T05:52:47Z</time>
      </trkpt>
      <trkpt lat="48.42817" lon="-3.32972">
        <ele>262</ele>
        <time>2011-06-22T05:52:48Z</time>
      </trkpt>
      <trkpt lat="48.4281" lon="-3.33038">
        <ele>262</ele>
        <time>2011-06-22T05:52:56Z</time>
      </trkpt>
      <trkpt lat="48.42791" lon="-3.3307">
        <ele>263</ele>
        <time>2011-06-22T05:53:01Z</time>
      </trkpt>
      <trkpt lat="48.42776" lon="-3.33125">
        <ele>264</ele>
        <time>2011-06-22T05:53:08Z</time>
      </trkpt>
      <trkpt lat="48.42787" lon="-3.33178">
        <ele>263</ele>
        <time>2011-06-22T05:53:13Z</time>
      </trkpt>
      <trkpt lat="48.42796" lon="-3.33175">
        <ele>263</ele>
        <time>2011-06-22T05:53:14Z</time>
      </trkpt>
      <trkpt lat="48.42802" lon="-3.33182">
        <ele>263</ele>
        <time>2011-06-22T05:53:15Z</time>
      </trkpt>
      <trkpt lat="48.42801" lon="-3.3319">
        <ele>263</ele>
        <time>2011-06-22T05:53:16Z</time>
      </trkpt>
      <trkpt lat="48.42794" lon="-3.33195">
        <ele>263</ele>
        <time>2011-06-22T05:53:17Z</time>
      </trkpt>
      <trkpt lat="48.42794" lon="-3.33202">
        <ele>263</ele>
        <time>2011-06-22T05:53:17Z</time>
      </trkpt>
      <trkpt lat="48.42859" lon="-3.33576">
        <ele>263</ele>
        <time>2011-06-22T05:53:52Z</time>
      </trkpt>
      <trkpt lat="48.42859" lon="-3.33599">
        <ele>264</ele>
        <time>2011-06-22T05:53:56Z</time>
      </trkpt>
      <trkpt lat="48.42857" lon="-3.33612">
        <ele>264</ele>
        <time>2011-06-22T05:53:59Z</time>
      </trkpt>
      <trkpt lat="48.42832" lon="-3.33652">
        <ele>267</ele>
        <time>2011-06-22T05:54:10Z</time>
      </trkpt>
      <trkpt lat="48.42813" lon="-3.33719">
        <ele>271</ele>
        <time>2011-06-22T05:54:25Z</time>
      </trkpt>
      <trkpt lat="48.428" lon="-3.3382">
        <ele>274</ele>
        <time>2011-06-22T05:54:43Z</time>
      </trkpt>
      <trkpt lat="48.42797" lon="-3.33885">
        <ele>277</ele>
        <time>2011-06-22T05:54:55Z</time>
      </trkpt>
      <trkpt lat="48.42801" lon="-3.33901">
        <ele>276</ele>
        <time>2011-06-22T05:54:56Z</time>
      </trkpt>
      <trkpt lat="48.42832" lon="-3.33964">
        <ele>274</ele>
        <time>2011-06-22T05:55:03Z</time>
      </trkpt>
      <trkpt lat="48.42867" lon="-3.34048">
        <ele>271</ele>
        <time>2011-06-22T05:55:12Z</time>
      </trkpt>
      <trkpt lat="48.42921" lon="-3.34132">
        <ele>274</ele>
        <time>2011-06-22T05:55:31Z</time>
      </trkpt>
      <trkpt lat="48.42948" lon="-3.34153">
        <ele>276</ele>
        <time>2011-06-22T05:55:38Z</time>
      </trkpt>
      <trkpt lat="48.42963" lon="-3.34156">
        <ele>276</ele>
        <time>2011-06-22T05:55:41Z</time>
      </trkpt>
      <trkpt lat="48.43003" lon="-3.34146">
        <ele>277</ele>
        <time>2011-06-22T05:55:50Z</time>
      </trkpt>
      <trkpt lat="48.43054" lon="-3.34143">
        <ele>279</ele>
        <time>2011-06-22T05:56:00Z</time>
      </trkpt>
      <trkpt lat="48.43074" lon="-3.34147">
        <ele>279</ele>
        <time>2011-06-22T05:56:04Z</time>
      </trkpt>
      <trkpt lat="48.43098" lon="-3.3416">
        <ele>280</ele>
        <time>2011-06-22T05:56:09Z</time>
      </trkpt>
      <trkpt lat="48.43144" lon="-3.34201">
        <ele>282</ele>
        <time>2011-06-22T05:56:20Z</time>
      </trkpt>
      <trkpt lat="48.43208" lon="-3.34259">
        <ele>282</ele>
        <time>2011-06-22T05:56:30Z</time>
      </trkpt>
      <trkpt lat="48.43219" lon="-3.34277">
        <ele>282</ele>
        <time>2011-06-22T05:56:32Z</time>
      </trkpt>
      <trkpt lat="48.4323" lon="-3.34306">
        <ele>281</ele>
        <time>2011-06-22T05:56:35Z</time>
      </trkpt>
      <trkpt lat="48.4328" lon="-3.34497">
        <ele>275</ele>
        <time>2011-06-22T05:56:54Z</time>
      </trkpt>
      <trkpt lat="48.43306" lon="-3.34578">
        <ele>274</ele>
        <time>2011-06-22T05:57:02Z</time>
      </trkpt>
      <trkpt lat="48.43305" lon="-3.34595">
        <ele>273</ele>
        <time>2011-06-22T05:57:03Z</time>
      </trkpt>
      <trkpt lat="48.43285" lon="-3.34669">
        <ele>273</ele>
        <time>2011-06-22T05:57:10Z</time>
      </trkpt>
      <trkpt lat="48.43277" lon="-3.34749">
        <ele>274</ele>
        <time>2011-06-22T05:57:21Z</time>
      </trkpt>
      <trkpt lat="48.43283" lon="-3.34923">
        <ele>278</ele>
        <time>2011-06-22T05:57:45Z</time>
      </trkpt>
      <trkpt lat="48.43298" lon="-3.35">
        <ele>279</ele>
        <time>2011-06-22T05:57:56Z</time>
      </trkpt>
      <trkpt lat="48.43309" lon="-3.35022">
        <ele>280</ele>
        <time>2011-06-22T05:58:00Z</time>
      </trkpt>
      <trkpt lat="48.43358" lon="-3.3507">
        <ele>282</ele>
        <time>2011-06-22T05:58:12Z</time>
      </trkpt>
      <trkpt lat="48.43405" lon="-3.35145">
        <ele>277</ele>
        <time>2011-06-22T05:58:21Z</time>
      </trkpt>
      <trkpt lat="48.43451" lon="-3.35197">
        <ele>273</ele>
        <time>2011-06-22T05:58:29Z</time>
      </trkpt>
      <trkpt lat="48.43458" lon="-3.35215">
        <ele>271</ele>
        <time>2011-06-22T05:58:30Z</time>
      </trkpt>
      <trkpt lat="48.43467" lon="-3.3526">
        <ele>268</ele>
        <time>2011-06-22T05:58:35Z</time>
      </trkpt>
      <trkpt lat="48.43469" lon="-3.35345">
        <ele>263</ele>
        <time>2011-06-22T05:58:42Z</time>
      </trkpt>
      <trkpt lat="48.43462" lon="-3.35416">
        <ele>259</ele>
        <time>2011-06-22T05:58:48Z</time>
      </trkpt>
      <trkpt lat="48.43457" lon="-3.35434">
        <ele>258</ele>
        <time>2011-06-22T05:58:50Z</time>
      </trkpt>
      <trkpt lat="48.43423" lon="-3.35483">
        <ele>255</ele>
        <time>2011-06-22T05:58:56Z</time>
      </trkpt>
      <trkpt lat="48.43402" lon="-3.35525">
        <ele>254</ele>
        <time>2011-06-22T05:59:01Z</time>
      </trkpt>
      <trkpt lat="48.43364" lon="-3.35639">
        <ele>254</ele>
        <time>2011-06-22T05:59:12Z</time>
      </trkpt>
      <trkpt lat="48.43334" lon="-3.35708">
        <ele>253</ele>
        <time>2011-06-22T05:59:20Z</time>
      </trkpt>
      <trkpt lat="48.43308" lon="-3.35832">
        <ele>253</ele>
        <time>2011-06-22T05:59:31Z</time>
      </trkpt>
      <trkpt lat="48.43297" lon="-3.3594">
        <ele>251</ele>
        <time>2011-06-22T05:59:41Z</time>
      </trkpt>
      <trkpt lat="48.43297" lon="-3.3594">
        <ele>251</ele>
        <time>2011-06-22T05:59:42Z</time>
      </trkpt>
      <trkpt lat="48.43291" lon="-3.36096">
        <ele>244</ele>
        <time>2011-06-22T05:59:56Z</time>
      </trkpt>
      <trkpt lat="48.43294" lon="-3.36105">
        <ele>243</ele>
        <time>2011-06-22T05:59:57Z</time>
      </trkpt>
      <trkpt lat="48.43306" lon="-3.36118">
        <ele>242</ele>
        <time>2011-06-22T05:59:59Z</time>
      </trkpt>
      <trkpt lat="48.43366" lon="-3.36162">
        <ele>238</ele>
        <time>2011-06-22T06:00:08Z</time>
      </trkpt>
      <trkpt lat="48.43374" lon="-3.36185">
        <ele>237</ele>
        <time>2011-06-22T06:00:10Z</time>
      </trkpt>
      <trkpt lat="48.43365" lon="-3.3636">
        <ele>231</ele>
        <time>2011-06-22T06:00:25Z</time>
      </trkpt>
      <trkpt lat="48.43344" lon="-3.36599">
        <ele>222</ele>
        <time>2011-06-22T06:00:47Z</time>
      </trkpt>
      <trkpt lat="48.43331" lon="-3.36694">
        <ele>219</ele>
        <time>2011-06-22T06:00:55Z</time>
      </trkpt>
      <trkpt lat="48.43326" lon="-3.36787">
        <ele>217</ele>
        <time>2011-06-22T06:01:04Z</time>
      </trkpt>
      <trkpt lat="48.43328" lon="-3.36828">
        <ele>217</ele>
        <time>2011-06-22T06:01:07Z</time>
      </trkpt>
      <trkpt lat="48.43344" lon="-3.36959">
        <ele>217</ele>
        <time>2011-06-22T06:01:19Z</time>
      </trkpt>
      <trkpt lat="48.43354" lon="-3.37007">
        <ele>218</ele>
        <time>2011-06-22T06:01:27Z</time>
      </trkpt>
      <trkpt lat="48.43366" lon="-3.37127">
        <ele>222</ele>
        <time>2011-06-22T06:01:46Z</time>
      </trkpt>
      <trkpt lat="48.43364" lon="-3.3715">
        <ele>222</ele>
        <time>2011-06-22T06:01:50Z</time>
      </trkpt>
      <trkpt lat="48.43345" lon="-3.37225">
        <ele>225</ele>
        <time>2011-06-22T06:02:03Z</time>
      </trkpt>
      <trkpt lat="48.43324" lon="-3.37335">
        <ele>229</ele>
        <time>2011-06-22T06:02:22Z</time>
      </trkpt>
      <trkpt lat="48.43317" lon="-3.3736">
        <ele>229</ele>
        <time>2011-06-22T06:02:26Z</time>
      </trkpt>
      <trkpt lat="48.43292" lon="-3.37409">
        <ele>230</ele>
        <time>2011-06-22T06:02:33Z</time>
      </trkpt>
      <trkpt lat="48.43288" lon="-3.37423">
        <ele>230</ele>
        <time>2011-06-22T06:02:35Z</time>
      </trkpt>
      <trkpt lat="48.43286" lon="-3.37471">
        <ele>231</ele>
        <time>2011-06-22T06:02:41Z</time>
      </trkpt>
      <trkpt lat="48.43277" lon="-3.37489">
        <ele>230</ele>
        <time>2011-06-22T06:02:43Z</time>
      </trkpt>
      <trkpt lat="48.43175" lon="-3.37636">
        <ele>229</ele>
        <time>2011-06-22T06:03:02Z</time>
      </trkpt>
      <trkpt lat="48.43119" lon="-3.37741">
        <ele>229</ele>
        <time>2011-06-22T06:03:15Z</time>
      </trkpt>
      <trkpt lat="48.43068" lon="-3.37817">
        <ele>230</ele>
        <time>2011-06-22T06:03:26Z</time>
      </trkpt>
      <trkpt lat="48.43033" lon="-3.37863">
        <ele>230</ele>
        <time>2011-06-22T06:03:32Z</time>
      </trkpt>
      <trkpt lat="48.42989" lon="-3.37908">
        <ele>230</ele>
        <time>2011-06-22T06:03:39Z</time>
      </trkpt>
      <trkpt lat="48.42923" lon="-3.37994">
        <ele>229</ele>
        <time>2011-06-22T06:03:50Z</time>
      </trkpt>
      <trkpt lat="48.4276" lon="-3.38241">
        <ele>228</ele>
        <time>2011-06-22T06:04:21Z</time>
      </trkpt>
      <trkpt lat="48.42745" lon="-3.38281">
        <ele>228</ele>
        <time>2011-06-22T06:04:25Z</time>
      </trkpt>
      <trkpt lat="48.42745" lon="-3.38281">
        <ele>228</ele>
        <time>2011-06-22T06:04:26Z</time>
      </trkpt>
      <trkpt lat="48.42728" lon="-3.38416">
        <ele>231</ele>
        <time>2011-06-22T06:04:46Z</time>
      </trkpt>
      <trkpt lat="48.42277" lon="-3.38688">
        <ele>227</ele>
        <time>2011-06-22T06:05:51Z</time>
      </trkpt>
      <trkpt lat="48.4222" lon="-3.38728">
        <ele>224</ele>
        <time>2011-06-22T06:05:59Z</time>
      </trkpt>
      <trkpt lat="48.41967" lon="-3.38942">
        <ele>212</ele>
        <time>2011-06-22T06:06:38Z</time>
      </trkpt>
      <trkpt lat="48.41862" lon="-3.39054">
        <ele>203</ele>
        <time>2011-06-22T06:06:55Z</time>
      </trkpt>
      <trkpt lat="48.41782" lon="-3.39152">
        <ele>202</ele>
        <time>2011-06-22T06:07:09Z</time>
      </trkpt>
      <trkpt lat="48.41622" lon="-3.39382">
        <ele>201</ele>
        <time>2011-06-22T06:07:38Z</time>
      </trkpt>
      <trkpt lat="48.41444" lon="-3.39616">
        <ele>193</ele>
        <time>2011-06-22T06:08:10Z</time>
      </trkpt>
      <trkpt lat="48.41101" lon="-3.40041">
        <ele>177</ele>
        <time>2011-06-22T06:09:09Z</time>
      </trkpt>
      <trkpt lat="48.41004" lon="-3.40149">
        <ele>171</ele>
        <time>2011-06-22T06:09:25Z</time>
      </trkpt>
      <trkpt lat="48.40927" lon="-3.40254">
        <ele>167</ele>
        <time>2011-06-22T06:09:39Z</time>
      </trkpt>
      <trkpt lat="48.40876" lon="-3.40337">
        <ele>165</ele>
        <time>2011-06-22T06:09:49Z</time>
      </trkpt>
      <trkpt lat="48.40864" lon="-3.40362">
        <ele>165</ele>
        <time>2011-06-22T06:09:52Z</time>
      </trkpt>
      <trkpt lat="48.40862" lon="-3.40384">
        <ele>164</ele>
        <time>2011-06-22T06:09:54Z</time>
      </trkpt>
      <trkpt lat="48.408" lon="-3.40529">
        <ele>163</ele>
        <time>2011-06-22T06:10:09Z</time>
      </trkpt>
      <trkpt lat="48.40804" lon="-3.40539">
        <ele>162</ele>
        <time>2011-06-22T06:10:10Z</time>
      </trkpt>
      <trkpt lat="48.40803" lon="-3.40557">
        <ele>162</ele>
        <time>2011-06-22T06:10:12Z</time>
      </trkpt>
      <trkpt lat="48.40797" lon="-3.40567">
        <ele>162</ele>
        <time>2011-06-22T06:10:13Z</time>
      </trkpt>
      <trkpt lat="48.40785" lon="-3.4057">
        <ele>162</ele>
        <time>2011-06-22T06:10:15Z</time>
      </trkpt>
      <trkpt lat="48.40711" lon="-3.4072">
        <ele>161</ele>
        <time>2011-06-22T06:10:31Z</time>
      </trkpt>
      <trkpt lat="48.4069" lon="-3.40753">
        <ele>161</ele>
        <time>2011-06-22T06:10:36Z</time>
      </trkpt>
      <trkpt lat="48.40662" lon="-3.40783">
        <ele>161</ele>
        <time>2011-06-22T06:10:41Z</time>
      </trkpt>
      <trkpt lat="48.40648" lon="-3.40787">
        <ele>161</ele>
        <time>2011-06-22T06:10:43Z</time>
      </trkpt>
      <trkpt lat="48.40581" lon="-3.40854">
        <ele>162</ele>
        <time>2011-06-22T06:10:55Z</time>
      </trkpt>
      <trkpt lat="48.40517" lon="-3.40928">
        <ele>161</ele>
        <time>2011-06-22T06:11:06Z</time>
      </trkpt>
      <trkpt lat="48.4045" lon="-3.40997">
        <ele>161</ele>
        <time>2011-06-22T06:11:17Z</time>
      </trkpt>
      <trkpt lat="48.40264" lon="-3.41209">
        <ele>162</ele>
        <time>2011-06-22T06:11:50Z</time>
      </trkpt>
      <trkpt lat="48.40148" lon="-3.41334">
        <ele>162</ele>
        <time>2011-06-22T06:12:09Z</time>
      </trkpt>
      <trkpt lat="48.39962" lon="-3.4155">
        <ele>165</ele>
        <time>2011-06-22T06:12:48Z</time>
      </trkpt>
      <trkpt lat="48.39554" lon="-3.4213">
        <ele>164</ele>
        <time>2011-06-22T06:14:03Z</time>
      </trkpt>
      <trkpt lat="48.39512" lon="-3.42195">
        <ele>161</ele>
        <time>2011-06-22T06:14:11Z</time>
      </trkpt>
      <trkpt lat="48.39436" lon="-3.42324">
        <ele>158</ele>
        <time>2011-06-22T06:14:26Z</time>
      </trkpt>
      <trkpt lat="48.39414" lon="-3.42382">
        <ele>156</ele>
        <time>2011-06-22T06:14:32Z</time>
      </trkpt>
      <trkpt lat="48.39401" lon="-3.42435">
        <ele>155</ele>
        <time>2011-06-22T06:14:37Z</time>
      </trkpt>
      <trkpt lat="48.39381" lon="-3.42549">
        <ele>153</ele>
        <time>2011-06-22T06:14:47Z</time>
      </trkpt>
      <trkpt lat="48.39372" lon="-3.4264">
        <ele>151</ele>
        <time>2011-06-22T06:14:56Z</time>
      </trkpt>
      <trkpt lat="48.39374" lon="-3.42807">
        <ele>150</ele>
        <time>2011-06-22T06:15:10Z</time>
      </trkpt>
      <trkpt lat="48.39374" lon="-3.42807">
        <ele>150</ele>
        <time>2011-06-22T06:15:11Z</time>
      </trkpt>
      <trkpt lat="48.39377" lon="-3.43148">
        <ele>138</ele>
        <time>2011-06-22T06:15:42Z</time>
      </trkpt>
      <trkpt lat="48.3938" lon="-3.43158">
        <ele>137</ele>
        <time>2011-06-22T06:15:43Z</time>
      </trkpt>
      <trkpt lat="48.39374" lon="-3.43267">
        <ele>136</ele>
        <time>2011-06-22T06:15:52Z</time>
      </trkpt>
      <trkpt lat="48.39406" lon="-3.43261">
        <ele>135</ele>
        <time>2011-06-22T06:15:57Z</time>
      </trkpt>
      <trkpt lat="48.3942" lon="-3.43235">
        <ele>135</ele>
        <time>2011-06-22T06:16:00Z</time>
      </trkpt>
      <trkpt lat="48.39478" lon="-3.43181">
        <ele>134</ele>
        <time>2011-06-22T06:16:09Z</time>
      </trkpt>
      <trkpt lat="48.39677" lon="-3.43041">
        <ele>137</ele>
        <time>2011-06-22T06:16:45Z</time>
      </trkpt>
      <trkpt lat="48.39713" lon="-3.43008">
        <ele>137</ele>
        <time>2011-06-22T06:16:53Z</time>
      </trkpt>
      <trkpt lat="48.39848" lon="-3.42818">
        <ele>141</ele>
        <time>2011-06-22T06:17:25Z</time>
      </trkpt>
      <trkpt lat="48.39912" lon="-3.42761">
        <ele>143</ele>
        <time>2011-06-22T06:17:40Z</time>
      </trkpt>
      <trkpt lat="48.39939" lon="-3.42748">
        <ele>144</ele>
        <time>2011-06-22T06:17:46Z</time>
      </trkpt>
      <trkpt lat="48.39967" lon="-3.42745">
        <ele>145</ele>
        <time>2011-06-22T06:17:52Z</time>
      </trkpt>
      <trkpt lat="48.4017" lon="-3.42764">
        <ele>153</ele>
        <time>2011-06-22T06:18:39Z</time>
      </trkpt>
      <trkpt lat="48.40231" lon="-3.42726">
        <ele>155</ele>
        <time>2011-06-22T06:18:54Z</time>
      </trkpt>
      <trkpt lat="48.40275" lon="-3.42688">
        <ele>158</ele>
        <time>2011-06-22T06:19:06Z</time>
      </trkpt>
      <trkpt lat="48.40303" lon="-3.42777">
        <ele>160</ele>
        <time>2011-06-22T06:19:21Z</time>
      </trkpt>
      <trkpt lat="48.40333" lon="-3.42754">
        <ele>162</ele>
        <time>2011-06-22T06:19:29Z</time>
      </trkpt>
    </trkseg>
  </trk>
</gpx>